.

MPMG - Transparência

Contracheque - Remuneração de todos os servidores ativos - Pré Resolução CNMP 200/2019

Período: 2012 - Outubro

Ordem Matrícula Nome Cargo Efetivo Situação Unidade Administrativa Rendimentos Descontos Rendimento Líquido Total Indenizações Outras Remunerações Retroativas/Temporárias Data de Referência
Remuneração Básica Remuneração Eventual ou Temporária Total de Rendimentos Brutos Obrigatórios/Legais Total de Descontos
Remuneração do Cargo Efetivo Outras Verbas Remuneratórias Função de Confiança ou Cargo em Comissão Gratificação Natalina Férias Abono de Permanência Contribuição Previdenciária Imposto de Renda Retenção por Teto Constitucional
1 498900 ABDON MARCIO BARBOSA DA SILVA OFICIAL DO MP ATIVO ABRE CAMPO - COMARCA; ABRE CAMPO-PJ-02PJ 2.637,71 0,00 0,00 0,00 0,00 0,00 2.637,71 290,15 53,29 0,00 343,44 2.294,27 587,00 0,00 31/10/2012
2 177800 ADALBERTO MENEZES FARIA SAMORA OFICIAL DO MP ATIVO BELO HORIZONTE - COMARCA; DIRET DE PLANOS PROJETOS E PROGRAMAS INST 7.356,10 1.471,22 0,00 0,00 0,00 0,00 8.827,32 971,01 1.313,45 0,00 2.284,46 6.542,86 822,00 0,00 31/10/2012
3 306400 ADALBERTO MOREIRA GONCALVES ANALISTA DO MP ATIVO CONTAGEM - COMARCA; CONTAGEM-PJ-01PJ 7.595,56 759,56 0,00 0,00 0,00 0,00 8.355,12 919,06 1.288,39 0,00 2.207,45 6.147,67 352,00 0,00 31/10/2012
4 179300 ADENISE AUXILIADORA SOUZA SAD OFICIAL DO MP ATIVO BARBACENA - COMARCA; EXTINTA-BARBACENA - 06ª PJ EXECUÇÃO PENAL 7.124,13 1.424,83 0,00 0,00 0,00 0,00 8.548,96 940,39 1.245,32 0,00 2.185,71 6.363,25 2.469,60 194,11 31/10/2012
5 77700 ADIL EXPEDITO DE OLIVEIRA JUNIOR ASSESSOR ATIVO BELO HORIZONTE - COMARCA; CAO-CRIANCAS E ADOLESCENTES-SECRETARIA 0,00 4.986,89 7.124,13 0,00 0,00 0,00 12.111,02 1.332,21 2.117,13 0,00 3.449,34 8.661,68 352,00 0,00 31/10/2012
6 272200 ADILSON BATISTA ORNELAS OFICIAL DO MP ATIVO LAVRAS - COMARCA; LAVRAS-PJ-02PJ 3.519,31 351,93 0,00 0,00 0,00 0,00 3.871,24 425,84 111,27 0,00 537,11 3.334,13 352,00 0,00 31/10/2012
7 380100 ADILSON GONCALVES DE MELO JUNIOR ANALISTA DO MP ATIVO ARAXÁ - COMARCA; ARAXA-PJ-05PJ 5.598,22 335,89 0,00 0,00 0,00 0,00 5.934,11 780,36 889,25 0,00 1.669,61 4.264,50 822,00 1.160,04 31/10/2012
8 148800 ADILSON JANUARIO OFICIAL DO MP ATIVO BELO HORIZONTE - COMARCA; SUPERINTENDENCIA GESTÃO DE PESSOAS 8.098,20 4.049,10 0,00 0,00 0,00 0,00 12.147,30 1.336,20 2.080,76 0,00 3.416,96 8.730,34 352,00 0,00 31/10/2012
9 322600 ADMILSON SILVEIRA OFICIAL DO MP ATIVO BOCAIÚVA - COMARCA; BOCAIUVA-PJ-01PJ 3.811,39 381,14 0,00 0,00 0,00 0,00 4.192,53 461,18 287,40 0,00 748,58 3.443,95 352,00 0,00 31/10/2012
10 333700 ADRIANA ABRITTA TEIXEIRA OFICIAL DO MP ATIVO BELO HORIZONTE - COMARCA; DIRET DE PESSOAL DO MINISTERIO PUBLICO - DPMP 4.619,20 461,92 0,00 0,00 0,00 0,00 5.081,12 635,57 657,62 0,00 1.293,19 3.787,93 352,00 696,80 31/10/2012
11 468500 ADRIANA APARECIDA FIRMINO ANALISTA DO MP ATIVO CARATINGA - COMARCA; CARATINGA-PJ-04PJ 4.473,58 0,00 0,00 0,00 0,00 0,00 4.473,58 492,09 269,63 0,00 761,72 3.711,86 587,00 0,00 31/10/2012
12 326100 ADRIANA AUGUSTA AMARAL BELO OFICIAL DO MP ATIVO BARBACENA - COMARCA; BARBACENA-PJ-08PJ 4.619,20 461,92 0,00 0,00 0,00 0,00 5.081,12 558,92 396,57 0,00 955,49 4.125,63 822,00 0,00 31/10/2012
13 254800 ADRIANA DAS GRACAS FERNANDES ANALISTA DO MP ATIVO UBERABA - COMARCA; UBERABA-PJ-07PJ 8.361,90 4.180,95 0,00 0,00 0,00 0,00 12.542,85 1.379,71 2.313,33 0,00 3.693,04 8.849,81 352,00 0,00 31/10/2012
14 246900 ADRIANA DE ALMEIDA ANTONINI ASSESSOR ATIVO BELO HORIZONTE - COMARCA; EXTINTA - SECRETARIA ADMINISTRATIVA 0,00 421,56 2.107,81 0,00 0,00 0,00 2.529,37 316,95 43,15 0,00 360,10 2.169,27 352,00 0,00 31/10/2012
15 217400 ADRIANA DE CARVALHO CATAO BRAGA ASSESSOR ATIVO BELO HORIZONTE - COMARCA; EXTINTA - DIRETORIA DE CONTRATOS E CONVÊNIOS 0,00 1.119,64 5.598,22 0,00 0,00 0,00 6.717,86 430,78 972,42 0,00 1.403,20 5.314,66 352,00 0,00 31/10/2012
16 434600 ADRIANA FERREIRA DA SILVA ANALISTA DO MP ATIVO BELO HORIZONTE - COMARCA; BH-19PJ SAUDE 5.085,23 305,11 0,00 0,00 0,00 0,00 5.390,34 592,94 562,76 0,00 1.155,70 4.234,64 352,00 0,00 31/10/2012
17 499800 ADRIANA FERREIRA TIAGO OFICIAL DO MP ATIVO SALINAS - COMARCA; SALINAS-PJ-02PJ 2.637,71 0,00 0,00 0,00 0,00 0,00 2.637,71 305,39 63,84 0,00 369,23 2.268,48 352,00 138,60 31/10/2012
18 471500 ADRIANA HORTA DE CARVALHO RODRIGUES DE SOUSA ANALISTA DO MP ATIVO NOVA LIMA - COMARCA; NOVA LIMA-PJ-03PJ 4.924,85 0,00 0,00 0,00 0,00 0,00 4.924,85 541,73 403,57 0,00 945,30 3.979,55 587,00 0,00 31/10/2012
19 86400 ADRIANA MOREIRA CALDEIRA BRANT OFICIAL DO MP ATIVO BELO HORIZONTE - COMARCA; EXTINTA-TUTELA DAS FUNDACOES-21 PJ- GABINETE 7.124,13 2.849,65 0,00 0,00 0,00 0,00 9.973,78 1.097,12 1.639,30 0,00 2.736,42 7.237,36 352,00 0,00 31/10/2012
20 480700 ADRIANA MOREIRA DE AVELLAR CEZILIO OFICIAL DO MP ATIVO BELO HORIZONTE - COMARCA; EXTINTA - DIVISAO DE MATERIAL DE CONSUMO 2.637,71 0,00 0,00 0,00 0,00 0,00 2.637,71 290,15 28,60 0,00 318,75 2.318,96 822,00 0,00 31/10/2012
21 326000 ADRIANA PEREIRA CARNEIRO RESENDE OFICIAL DO MP ATIVO BELO HORIZONTE - COMARCA; BH-18PJ VIOLENCIA DOMESTICA 4.195,87 419,59 0,00 0,00 0,00 0,00 4.615,46 507,70 298,04 0,00 805,74 3.809,72 352,00 0,00 31/10/2012
22 502200 ADRIANA PETRUCCI DAVINA OFICIAL DO MP ATIVO UBERABA - COMARCA; UBERABA-PJ-14PJ 2.903,86 0,00 0,00 0,00 0,00 0,00 2.903,86 319,42 80,87 0,00 400,29 2.503,57 352,00 0,00 31/10/2012
23 201900 ADRIANA REIS PIMENTA OFICIAL DO MP ATIVO TEÓFILO OTONI - COMARCA; TEOFILO OTONI-PJ-03PJ 7.124,13 1.424,83 0,00 0,00 0,00 0,00 8.548,96 940,39 1.335,83 0,00 2.276,22 6.272,74 352,00 0,00 31/10/2012
24 278700 ADRIANA RODRIGUES PINTO COELHO AMARAL ANALISTA DO MP ATIVO BELO HORIZONTE - COMARCA; EXTINTA-MEIO AMB PATRIM HIST CULTURAL-15PJGAB 7.595,56 759,56 0,00 0,00 0,00 0,00 8.355,12 919,06 1.197,88 0,00 2.116,94 6.238,18 3.567,68 294,77 31/10/2012
25 468000 ADRIANA SANTOS DE SANTANA MOREIRA ANALISTA DO MP ATIVO ARAÇUAÍ - COMARCA; ARACUAI-PJ-01PJ 4.063,61 812,72 0,00 0,00 0,00 0,00 4.876,33 605,35 545,12 0,00 1.150,47 3.725,86 587,00 626,85 31/10/2012
26 194700 ADRIANA TSUKIDE OFICIAL DO MP ATIVO UBERABA - COMARCA; COORD REG BACIAS PARANAIBA BAIXO RIO GRANDE 7.124,13 1.424,83 0,00 0,00 0,00 0,00 8.548,96 940,39 1.335,83 0,00 2.276,22 6.272,74 352,00 0,00 31/10/2012
27 206400 ADRIANE MENDES DE SOUZA ANALISTA DO MP ATIVO BELO HORIZONTE - COMARCA; BH-23PJ CIVEL-FISC AC POL PUB II 9.505,17 4.752,58 0,00 0,00 0,00 0,00 14.257,75 1.568,35 2.642,55 0,00 4.210,90 10.046,85 352,00 0,00 31/10/2012
28 465500 ADRIANO CASSIANO MATOS ANALISTA DO MP ATIVO ARAXÁ - COMARCA; ARAXA-02 PJ/PROCON 4.063,61 0,00 0,00 0,00 0,00 0,00 4.063,61 447,00 261,59 0,00 708,59 3.355,02 352,00 0,00 31/10/2012
29 500500 ADRIANO DE ALMEIDA SILVA OFICIAL DO MP ATIVO UBERABA - COMARCA; UBERABA-PJ-12PJ 2.637,71 0,00 0,00 0,00 0,00 0,00 2.637,71 302,95 65,04 0,00 367,99 2.269,72 435,16 146,22 31/10/2012
30 187200 ADRIANO DE FREITAS MARON OFICIAL DO MP ATIVO PONTE NOVA - COMARCA; PONTE NOVA-PJ-03PJ 5.250,75 3.675,54 0,00 0,00 0,00 0,00 8.926,29 1.455,24 2.481,37 0,00 3.936,61 4.989,68 492,80 4.303,14 31/10/2012
31 477900 ADRIANO FERREIRA DE ALMEIDA OFICIAL DO MP ATIVO MONTES CLAROS - COMARCA; MONTES CLAROS-PJ-01PJ 2.637,71 0,00 0,00 0,00 0,00 0,00 2.637,71 290,15 28,60 0,00 318,75 2.318,96 352,00 0,00 31/10/2012
32 416500 ADRIANO PELUSIO MELGACO JUNIOR OFICIAL DO MP ATIVO BELO HORIZONTE - COMARCA; BH-10PJ EXECUÇÃO PENAL-SECRETARIA 3.300,91 198,05 0,00 0,00 0,00 0,00 3.498,96 384,89 135,63 0,00 520,52 2.978,44 352,00 0,00 31/10/2012
33 269101 ADRIANO PEREIRA SILVA ANALISTA DO MP ATIVO UBERABA - COMARCA; UBERABA-PJ-02PJ 4.924,85 0,00 0,00 0,00 0,00 0,00 4.924,85 541,73 448,83 0,00 990,56 3.934,29 587,00 0,00 31/10/2012
34 414200 ADRIANO RODRIGUES FERNANDES ANALISTA DO MP ATIVO CARANDAÍ - COMARCA; CARANDAI-PJ-UNPJ 4.619,20 277,15 0,00 0,00 0,00 0,00 4.896,35 538,60 317,27 0,00 855,87 4.040,48 587,00 0,00 31/10/2012
35 514300 ADRIENE DAMASCENO BRAGA ANALISTA DO MP ATIVO ALFENAS - COMARCA; ALFENAS-PJ-03PJ 4.332,50 0,00 0,00 0,00 0,00 0,00 4.332,50 476,58 315,43 0,00 792,01 3.540,49 352,00 0,00 31/10/2012
36 254600 ADRIENE DOMINGUES COSTA ANALISTA DO MP ATIVO BELO HORIZONTE - COMARCA; PROC. JUSTICA DIR. DIFUSOS E COLETIVOS-SEC 7.124,13 1.424,83 0,00 0,00 0,00 0,00 8.548,96 1.018,75 1.510,19 0,00 2.528,94 6.020,02 0,00 712,41 31/10/2012
37 252001 ADRIENE GOMES BARRETO ANALISTA DO MP ATIVO BELO HORIZONTE - COMARCA; BH-19PJ SAUDE-ASS TECNICA 6.069,59 1.820,88 0,00 0,00 0,00 0,00 7.890,47 867,95 1.174,66 0,00 2.042,61 5.847,86 1.870,60 139,21 31/10/2012
38 118100 AGENOR ALCIR RODRIGUES DA SILVA OFICIAL DO MP ATIVO SÃO JOÃO NEPOMUCENO - COMARCA; SAO JOAO NEPOMUCENO-PJ-01PJ 8.361,90 5.853,33 0,00 0,00 0,00 0,00 14.215,23 1.563,68 2.722,65 0,00 4.286,33 9.928,90 352,00 0,00 31/10/2012
39 302500 AGENOR JOSE DA SILVA JUNIOR ANALISTA DO MP ATIVO JUIZ DE FORA - COMARCA; JUIZ DE FORA-PJ-07PJ 7.595,56 759,56 0,00 0,00 0,00 0,00 8.355,12 919,06 1.197,88 0,00 2.116,94 6.238,18 352,00 0,00 31/10/2012
40 357500 AILSON WAGNER DE ALENCAR SILVA OFICIAL DO MP ATIVO BELO HORIZONTE - COMARCA; DIRETORIA DO COLEGIO E DA CAMARA DE PJ 4.473,58 894,72 0,00 0,00 0,00 0,00 5.368,30 691,76 692,12 0,00 1.383,88 3.984,42 822,00 920,40 31/10/2012
41 366400 AILTON ALEXSSANDRO ALVES OFICIAL DO MP ATIVO PARÁ DE MINAS - COMARCA; PARA DE MINAS-PJ-05PJ 3.691,17 738,23 0,00 0,00 0,00 0,00 4.429,40 487,23 334,84 0,00 822,07 3.607,33 352,00 0,00 31/10/2012
42 318900 AILTON DE CASTRO RIBEIRO JUNIOR OFICIAL DO MP ATIVO POUSO ALEGRE - COMARCA; POUSO ALEGRE-PJ-03PJ 3.811,39 381,14 0,00 0,00 0,00 0,00 4.192,53 461,18 178,85 0,00 640,03 3.552,50 352,00 0,00 31/10/2012
43 464400 ALAN MONTEIRO GASPAR ANALISTA DO MP ATIVO SETE LAGOAS - COMARCA; SETE LAGOAS-PJ-03PJ 4.473,58 0,00 0,00 0,00 0,00 0,00 4.473,58 492,09 343,69 0,00 835,78 3.637,80 352,00 0,00 31/10/2012
44 492000 ALANA DE CASTRO FREITAS OFICIAL DO MP ATIVO BOM SUCESSO - COMARCA; BOM SUCESSO-PJ-SECRETARIA 2.637,71 0,00 0,00 0,00 0,00 0,00 2.637,71 290,15 53,29 0,00 343,44 2.294,27 352,00 0,00 31/10/2012
45 306700 ALANA MARCIA DE OLIVEIRA OFICIAL DO MP ATIVO BELO HORIZONTE - COMARCA; DIRETORIA DE ADMINISTRACAO FINANCEIRA 4.769,54 476,95 0,00 0,00 0,00 0,00 5.246,49 577,11 391,79 0,00 968,90 4.277,59 352,00 0,00 31/10/2012
46 324500 ALANMAR COUTINHO COSTA OFICIAL DO MP ATIVO LEOPOLDINA - COMARCA; LEOPOLDINA-PJ-02PJ 3.811,39 381,14 0,00 0,00 0,00 0,00 4.192,53 461,18 114,71 0,00 575,89 3.616,64 587,00 0,00 31/10/2012
47 508200 ALBERTO DA SILVA VIEIRA ASSESSOR ATIVO BELO HORIZONTE - COMARCA; SEC ESPECIAL DE PLANEJAMENTO ESTRATEGICO 0,00 0,00 7.842,84 0,00 0,00 0,00 7.842,84 430,78 1.281,79 0,00 1.712,57 6.130,27 352,00 0,00 31/10/2012
48 407300 ALBERTO LUIZ SOARES DE OLIVEIRA ANALISTA DO MP ATIVO BELO HORIZONTE - COMARCA; SUPERINTENDÊNCIA DE ENGENHARIA E ARQUITETURA 5.085,23 305,11 0,00 0,00 0,00 0,00 5.390,34 592,94 562,76 0,00 1.155,70 4.234,64 352,00 0,00 31/10/2012
49 118200 ALBERTO PEREIRA DA COSTA OFICIAL DO MP ATIVO DORES DO INDAIÁ - COMARCA; DORES DO INDAIA-PJ-UNPJ 7.595,56 5.316,90 0,00 0,00 0,00 0,00 12.912,46 1.420,37 2.358,54 0,00 3.778,91 9.133,55 352,00 0,00 31/10/2012
50 282400 ALCILENE MARISE DE ARAUJO ANALISTA DO MP ATIVO BELO HORIZONTE - COMARCA; BH-23PJ INF-FISC MED SOC FEC 7.595,56 759,56 0,00 0,00 0,00 0,00 8.355,12 919,06 1.197,88 0,00 2.116,94 6.238,18 352,00 0,00 31/10/2012
51 112600 ALCIONE DA MOTA JARDIM OFICIAL DO MP ATIVO BELO HORIZONTE - COMARCA; BELO HORIZONTE- SECRETARIA DAS PROMOTORIAS 6.069,59 2.427,84 0,00 0,00 0,00 0,00 8.497,43 934,72 1.277,96 0,00 2.212,68 6.284,75 587,00 0,00 31/10/2012
52 396400 ALCIONE DE FREITAS E SILVA ANALISTA DO MP ATIVO BELO HORIZONTE - COMARCA; DIRET DE PESSOAL DO MINISTERIO PUBLICO - DPMP 6.069,59 1.213,92 0,00 0,00 0,00 0,00 7.283,51 801,19 1.026,11 0,00 1.827,30 5.456,21 352,00 0,00 31/10/2012
53 161600 ALCIONE NERY SOUZA ASSESSOR ATIVO BELO HORIZONTE - COMARCA; BH-15PJ M AMB PAT HIST CULT 0,00 1.679,47 5.598,22 0,00 0,00 0,00 7.277,69 430,78 1.126,37 0,00 1.557,15 5.720,54 352,00 0,00 31/10/2012
54 376000 ALDA GOMES LANA OFICIAL DO MP ATIVO LAGOA SANTA - COMARCA; LAGOA SANTA-PJ-02PJ 4.332,50 259,95 0,00 0,00 0,00 0,00 4.592,45 505,17 330,46 0,00 835,63 3.756,82 352,00 0,00 31/10/2012
55 148000 ALDA MARTINS SIMOES OFICIAL DO MP ATIVO BELO HORIZONTE - COMARCA; BH-23PJ CIVEL- FISC ENT AB POL 7.595,56 2.278,67 0,00 0,00 0,00 0,00 9.874,23 1.086,17 1.660,19 0,00 2.746,36 7.127,87 352,00 0,00 31/10/2012
56 318400 ALDO CREPALDI JUNIOR OFICIAL DO MP ATIVO BELO HORIZONTE - COMARCA; EXTINTA - DIVISAO DE MATERIAL DE CONSUMO 4.195,87 419,59 0,00 0,00 0,00 0,00 4.615,46 507,70 335,07 0,00 842,77 3.772,69 3.802,68 241,18 31/10/2012
57 118400 ALECIO JOSE GUIMARAES DE OLIVEIRA ANALISTA DO MP ATIVO BOM SUCESSO - COMARCA; BOM SUCESSO-PJ-UNPJ 11.931,59 9.545,28 0,00 0,00 0,00 0,00 21.476,87 2.362,46 4.364,17 0,00 6.726,63 14.750,24 352,00 0,00 31/10/2012
58 197900 ALESSA DE SOUSA E SILVA OFICIAL DO MP ATIVO OLIVEIRA - COMARCA; OLIVEIRA-PJ-02PJ 7.356,10 1.471,22 0,00 0,00 0,00 0,00 8.827,32 971,01 1.358,70 0,00 2.329,71 6.497,61 424,00 0,00 31/10/2012
59 428500 ALESSANDRA ALVES DINIZ OFICIAL DO MP ATIVO BELO HORIZONTE - COMARCA; BH-17PJ PATRIMONIO PUBLICO 2.998,37 899,51 0,00 0,00 0,00 0,00 3.897,88 579,45 532,74 0,00 1.112,19 2.785,69 352,00 1.369,81 31/10/2012
60 286801 ALESSANDRA BOTELHO JUNQUEIRA DE MENEZES ANALISTA DO MP ATIVO PASSOS - COMARCA; PASSOS-PJ-05PJ 5.598,22 1.119,64 0,00 0,00 0,00 0,00 6.717,86 738,96 842,41 0,00 1.581,37 5.136,49 352,00 0,00 31/10/2012
61 307000 ALESSANDRA CRISTINA SANTOS MENDES ANALISTA DO MP ATIVO OURO PRETO - COMARCA; OURO PRETO-PJ-02PJ 5.878,19 587,82 0,00 0,00 0,00 0,00 6.466,01 711,26 826,03 0,00 1.537,29 4.928,72 587,00 0,00 31/10/2012
62 264400 ALESSANDRA DE SOUZA SANTOS COORDENADOR/ANALISTA ATIVO BELO HORIZONTE - COMARCA; DIRETORIA DE PRODUCAO EDITORIAL 8.361,90 4.349,66 0,00 0,00 0,00 0,00 12.711,56 1.195,75 2.410,32 0,00 3.606,07 9.105,49 352,00 0,00 31/10/2012
63 441500 ALESSANDRA DRUMMOND DE FIGUEIREDO ROSSI ANALISTA DO MP ATIVO BELO HORIZONTE - COMARCA; DIVIS DE PROJETOS DE ENGENHARIA E ARQUITETURA 4.473,58 268,41 0,00 0,00 0,00 0,00 4.741,99 551,14 469,77 0,00 1.020,91 3.721,08 352,00 268,41 31/10/2012
64 524000 ALESSANDRA LUCIOLI DE BARROS GUERRA ANALISTA DO MP ATIVO BELO HORIZONTE - COMARCA; BH-12PJ JUIZO CRIMINAL-GAB 094PJ 3.935,44 0,00 0,00 0,00 0,00 0,00 3.935,44 432,90 235,92 0,00 668,82 3.266,62 352,00 0,00 31/10/2012
65 479900 ALESSANDRA MARA ANDRADE DE FARIA OFICIAL DO MP ATIVO UBERABA - COMARCA; UBERABA-PJ-05PJ 2.903,86 0,00 0,00 0,00 967,95 0,00 3.871,81 319,42 247,14 0,00 566,56 3.305,25 822,00 0,00 31/10/2012
66 226700 ALESSANDRA MARA VASCONCELOS REZENDE OFICIAL DO MP ATIVO CONSELHEIRO LAFAIETE - COMARCA; CONSELHEIRO LAFAIETE-PJ-07PJ 4.195,87 839,17 0,00 0,00 0,00 0,00 5.035,04 553,85 475,80 0,00 1.029,65 4.005,39 352,00 0,00 31/10/2012
67 112100 ALESSANDRA MARCIA FERREIRA OFICIAL DO MP ATIVO BELO HORIZONTE - COMARCA; BELO HORIZONTE- SECRETARIA DAS PROMOTORIAS 6.471,28 2.588,51 0,00 0,00 0,00 0,00 9.059,79 996,58 1.415,60 0,00 2.412,18 6.647,61 352,00 0,00 31/10/2012
68 196500 ALESSANDRA MARIA RIBEIRO LUCIANO OFICIAL DO MP ATIVO RIO PARANAÍBA - COMARCA; RIO PARANAIBA-PJ-UNPJ 7.124,13 2.137,24 0,00 0,00 0,00 0,00 9.261,37 1.018,75 1.510,19 0,00 2.528,94 6.732,43 587,00 0,00 31/10/2012
69 91400 ALESSANDRA MENDES VASCONCELOS DE SOUZA OFICIAL DO MP ATIVO BELO HORIZONTE - COMARCA; BH-23PJ INF-FISC MED SOC AB 9.505,17 4.752,58 0,00 0,00 0,00 0,00 14.257,75 1.568,35 2.642,55 0,00 4.210,90 10.046,85 352,00 0,00 31/10/2012
70 384900 ALESSANDRA RODRIGUES ANALISTA DO MP ATIVO VISCONDE DO RIO BRANCO - COMARCA; VISCONDE DO RIO BRANCO-PJ-03PJ 6.069,59 364,18 0,00 0,00 0,00 0,00 6.433,77 707,71 727,63 0,00 1.435,34 4.998,43 352,00 0,00 31/10/2012
71 390000 ALESSANDRA SPADANO MASSARA VASCONCELOS OFICIAL DO MP ATIVO BETIM - COMARCA; BETIM-PJ-SECRETARIA 3.935,44 236,13 0,00 0,00 0,00 0,00 4.171,57 458,87 283,21 0,00 742,08 3.429,49 352,00 0,00 31/10/2012
72 426500 ALESSANDRO CAMPOS DE PAIVA ASSESSOR/ANALISTA ATIVO BELO HORIZONTE - COMARCA; DIR CRIACAO E MIDIAS 0,00 427,45 7.124,13 0,00 0,00 0,00 7.551,58 774,09 1.444,00 0,00 2.218,09 5.333,49 352,00 1.224,44 31/10/2012
73 420600 ALESSANDRO SILVA OFICIAL DO MP ATIVO BELO HORIZONTE - COMARCA; COORD CONTROLE CONST-SECRETARIA 2.998,37 599,67 0,00 0,00 0,00 0,00 3.598,04 531,48 267,28 0,00 798,76 2.799,28 352,00 1.233,60 31/10/2012
74 375300 ALETHEIA PATRICIA ASSIS MORAIS MOREIRA OFICIAL DO MP ATIVO ITABIRA - COMARCA; ITABIRA-PJ-02PJ 4.332,50 259,95 0,00 0,00 0,00 0,00 4.592,45 505,17 367,49 0,00 872,66 3.719,79 352,00 0,00 31/10/2012
75 382300 ALEX CARVALHO LIMA ANALISTA DO MP ATIVO UBERLÂNDIA - COMARCA; UBERLANDIA-PJ-14PJ 5.085,23 305,11 0,00 0,00 0,00 0,00 5.390,34 592,94 391,71 0,00 984,65 4.405,69 352,00 0,00 31/10/2012
76 195201 ALEX DE CASTRO PEREIRA ANALISTA DO MP ATIVO UBERABA - COMARCA; UBERABA-PJ-09PJ 7.595,56 1.519,11 0,00 0,00 0,00 0,00 9.114,67 1.002,61 1.474,29 0,00 2.476,90 6.637,77 352,00 0,00 31/10/2012
77 358900 ALEX DE PAULA LANZA ASSESSOR ATIVO BELO HORIZONTE - COMARCA; ASSESSORIA DE COMUNICACAO INTEGRADA 0,00 0,00 5.598,22 0,00 0,00 0,00 5.598,22 430,78 664,52 0,00 1.095,30 4.502,92 352,00 0,00 31/10/2012
78 178400 ALEX RODRIGO SALDANHA GUIMARAES OFICIAL DO MP ATIVO BELO HORIZONTE - COMARCA; DIRETORIA DE SISTEMAS DE INFORMACAO 4.195,87 839,17 0,00 0,00 0,00 0,00 5.035,04 553,85 475,80 0,00 1.029,65 4.005,39 352,00 0,00 31/10/2012
79 289200 ALEX SANDRO PEREIRA DE MATOS OFICIAL DO MP ATIVO BELO HORIZONTE - COMARCA; EXTINTA - SECRETARIA ADMINISTRATIVA 4.195,87 419,59 0,00 0,00 0,00 0,00 4.615,46 507,70 373,10 0,00 880,80 3.734,66 352,00 0,00 31/10/2012
80 413500 ALEX VILELA OLIVEIRA ANALISTA DO MP ATIVO GOVERNADOR VALADARES - COMARCA; COORD REG PJ DEF EDU DIR CRIANCA ADOL RIODOCE 5.598,22 335,89 0,00 0,00 0,00 0,00 5.934,11 652,75 695,84 0,00 1.348,59 4.585,52 352,00 0,00 31/10/2012
81 264300 ALEXANDRA FATIMA SARAIVA SOARES ANALISTA DO MP ATIVO BELO HORIZONTE - COMARCA; CENTRAL DE APOIO TECN-SETOR DE MEIO AMBIENTE 8.361,90 836,19 0,00 0,00 0,00 0,00 9.198,09 1.011,79 1.494,70 0,00 2.506,49 6.691,60 352,00 0,00 31/10/2012
82 488000 ALEXANDRA LARA PAIS DE CARVALHO ANALISTA DO MP ATIVO SABINÓPOLIS - COMARCA; SABINOPOLIS-PJ-UNPJ 4.473,58 0,00 0,00 0,00 0,00 0,00 4.473,58 492,09 269,63 0,00 761,72 3.711,86 587,00 0,00 31/10/2012
83 256300 ALEXANDRA SANTOS GOMES OFICIAL DO MP ATIVO BELO HORIZONTE - COMARCA; EXTINTA - DIVISÃO DE COMPRAS 4.619,20 461,92 0,00 0,00 0,00 0,00 5.081,12 693,06 785,52 0,00 1.478,58 3.602,54 352,00 1.219,40 31/10/2012
84 403300 ALEXANDRE AUGUSTO RODRIGUES ANALISTA DO MP ATIVO ÁGUAS FORMOSAS - COMARCA; AGUAS FORMOSAS-PJ-UNPJ 5.598,22 335,89 0,00 0,00 1.978,04 0,00 7.912,15 816,25 1.603,58 0,00 2.419,83 5.492,32 352,00 1.486,30 31/10/2012
85 311700 ALEXANDRE BARCELOS RESENDE OFICIAL DO MP ATIVO BELO HORIZONTE - COMARCA; GAECO - SECRETARIA 3.691,17 369,12 0,00 0,00 0,00 0,00 4.060,29 612,77 606,88 0,00 1.219,65 2.840,64 352,00 1.510,35 31/10/2012
86 285600 ALEXANDRE CAMPOS DE OLIVEIRA OFICIAL DO MP ATIVO UBERABA - COMARCA; COORD REG BACIAS PARANAIBA BAIXO RIO GRANDE 5.085,23 508,52 0,00 0,00 0,00 0,00 5.593,75 615,31 522,03 0,00 1.137,34 4.456,41 587,00 0,00 31/10/2012
87 509200 ALEXANDRE CAPUANO DE REZENDE ANALISTA DO MP ATIVO BELO HORIZONTE - COMARCA; PROC. JUSTICA DE HABEAS CORPUS 4.769,54 0,00 0,00 0,00 0,00 0,00 4.769,54 524,65 410,81 0,00 935,46 3.834,08 352,00 0,00 31/10/2012
88 229400 ALEXANDRE CARLOS BOTREL DIRETOR/OFICIAL ATIVO BELO HORIZONTE - COMARCA; SUPERINTENDENCIA DOS ORGAOS COLEGIADOS 0,00 2.386,32 11.931,59 0,00 0,00 0,00 14.317,91 609,73 3.013,22 0,00 3.622,95 10.694,96 352,00 0,00 31/10/2012
89 411900 ALEXANDRE CARVALHO SANTOS RIBEIRO ANALISTA DO MP ATIVO PERDÕES - COMARCA; PERDOES-PJ-UNPJ 5.598,22 335,89 0,00 0,00 0,00 0,00 5.934,11 652,75 695,84 0,00 1.348,59 4.585,52 352,00 0,00 31/10/2012
90 201200 ALEXANDRE DE ALENCAR CORDEIRO OFICIAL DO MP ATIVO ÁGUAS FORMOSAS - COMARCA; AGUAS FORMOSAS-PJ-UNPJ 4.195,87 1.258,76 0,00 0,00 0,00 0,00 5.454,63 600,01 487,98 0,00 1.087,99 4.366,64 352,00 0,00 31/10/2012
91 288200 ALEXANDRE DE VASCONCELOS COSTA KER ANALISTA DO MP ATIVO BELO HORIZONTE - COMARCA; BH-03PJ EMPRESARIAL-SECRETARIA 7.595,56 759,56 0,00 0,00 0,00 0,00 8.355,12 919,06 1.243,13 0,00 2.162,19 6.192,93 352,00 0,00 31/10/2012
92 445000 ALEXANDRE DIOGENES OLIVEIRA ANALISTA DO MP ATIVO SALINAS - COMARCA; SALINAS-PJ-02PJ 5.421,69 0,00 0,00 0,00 0,00 0,00 5.421,69 596,39 570,43 0,00 1.166,82 4.254,87 352,00 0,00 31/10/2012
93 463400 ALEXANDRE LEAL WINKELSTROTER ANALISTA DO MP ATIVO TEÓFILO OTONI - COMARCA; TEOFILO OTONI-PJ-04PJ 4.063,61 0,00 0,00 0,00 0,00 0,00 4.063,61 447,00 261,59 0,00 708,59 3.355,02 352,00 0,00 31/10/2012
94 356900 ALEXANDRE MOISES MENDONCA E ARAUJO OFICIAL DO MP ATIVO UBERABA - COMARCA; UBERABA-PJ-13PJ 3.691,17 369,12 0,00 0,00 0,00 0,00 4.060,29 446,63 223,90 0,00 670,53 3.389,76 352,00 0,00 31/10/2012
95 469900 ALEXANDRE PEREIRA GUEDES ANALISTA DO MP ATIVO CATAGUASES - COMARCA; CATAGUASES-PJ-03PJ 4.924,85 0,00 0,00 0,00 0,00 0,00 4.924,85 541,73 448,83 0,00 990,56 3.934,29 352,00 0,00 31/10/2012
96 208700 ALEXANDRE RESENDE FRAGA ANALISTA DO MP ATIVO BELO HORIZONTE - COMARCA; BH-19PJ SAUDE 9.814,62 1.962,92 0,00 0,00 0,00 0,00 11.777,54 1.295,53 2.080,77 0,00 3.376,30 8.401,24 822,00 0,00 31/10/2012
97 216401 ALEXANDRE RIBEIRO DE LIMA MAIORINO ANALISTA DO MP ATIVO UBERABA - COMARCA; UBERABA-PJ-03PJ 7.595,56 1.519,11 0,00 0,00 0,00 0,00 9.114,67 1.002,61 1.429,03 0,00 2.431,64 6.683,03 587,00 0,00 31/10/2012
98 475100 ALEXANDRE TEOTONIO COSTA ANALISTA DO MP ATIVO ARAGUARI - COMARCA; ARAGUARI-PJ-01PJ 4.473,58 0,00 0,00 0,00 0,00 0,00 4.473,58 492,09 343,69 0,00 835,78 3.637,80 822,00 0,00 31/10/2012
99 339000 ALEXANDRE VITOR CARDOSO OFICIAL DO MP ATIVO BELO HORIZONTE - COMARCA; BH-17PJ PATRIMONIO PUBLICO 3.811,39 381,14 0,00 0,00 0,00 0,00 4.192,53 461,18 178,85 0,00 640,03 3.552,50 587,00 0,00 31/10/2012
100 513300 ALFSON MIRANDA BRAGA ANALISTA DO MP ATIVO BELO HORIZONTE - COMARCA; BH-12PJ JUIZO CRIMINAL-GAB 092PJ 4.332,50 0,00 0,00 0,00 0,00 0,00 4.332,50 476,58 315,43 0,00 792,01 3.540,49 352,00 0,00 31/10/2012
101 471000 ALICE TITONELI MOREIRA ANALISTA DO MP ATIVO MIRADOURO - COMARCA; MIRADOURO-PJ-UNPJ 4.924,85 0,00 0,00 0,00 1.641,62 0,00 6.566,47 629,95 1.051,31 0,00 1.681,26 4.885,21 587,00 801,99 31/10/2012
102 373000 ALINE BOTELHO RESENDE OFICIAL DO MP ATIVO PASSA QUATRO - COMARCA; PASSA QUATRO-PJ-SECRETARIA 3.574,80 214,49 0,00 0,00 0,00 0,00 3.789,29 416,82 206,66 0,00 623,48 3.165,81 352,00 0,00 31/10/2012
103 407700 ALINE CRISTINA RODRIGUES PEREIRA ANALISTA DO MP ATIVO BELO HORIZONTE - COMARCA; DIVIS DE PROJETOS DE ENGENHARIA E ARQUITETURA 4.619,20 277,15 0,00 0,00 0,00 0,00 4.896,35 538,60 441,85 0,00 980,45 3.915,90 587,00 0,00 31/10/2012
104 193100 ALINE CRISTINA SENA OLIVEIRA OFICIAL DO MP ATIVO UBERLÂNDIA - COMARCA; UBERLANDIA-PJ-03PJ 6.069,59 1.213,92 0,00 0,00 0,00 0,00 7.283,51 911,06 1.225,33 0,00 2.136,39 5.147,12 352,00 998,88 31/10/2012
105 505500 ALINE DA CUNHA MARREIROS OLIVEIRA ANALISTA DO MP ATIVO CARANGOLA - COMARCA; CARANGOLA-PJ-SECRETARIA 4.924,85 0,00 0,00 0,00 0,00 0,00 4.924,85 563,94 512,48 0,00 1.076,42 3.848,43 587,00 253,67 31/10/2012
106 433500 ALINE DE MELO QUEIROZ OFICIAL DO MP ATIVO BELO HORIZONTE - COMARCA; PROCON-MG-SECRETARIA DE FISCALIZACOES 3.574,80 214,49 0,00 0,00 0,00 0,00 3.789,29 416,82 206,66 0,00 623,48 3.165,81 352,00 0,00 31/10/2012
107 474800 ALINE DINIZ FERREIRA ANALISTA DO MP ATIVO OURO PRETO - COMARCA; OURO PRETO-PJ-02PJ 4.924,85 0,00 0,00 0,00 0,00 0,00 4.924,85 541,73 448,83 0,00 990,56 3.934,29 352,00 0,00 31/10/2012
108 330000 ALINE DIORIO MAYRINK OFICIAL DO MP ATIVO SETE LAGOAS - COMARCA; SETE LAGOAS-PJ-SECRETARIA 4.332,50 433,25 0,00 0,00 0,00 0,00 4.765,75 524,23 409,89 0,00 934,12 3.831,63 352,00 0,00 31/10/2012
109 499000 ALINE FERREIRA LOPES NEIVA ANALISTA DO MP ATIVO TEÓFILO OTONI - COMARCA; COORD. DE DEF. DO PAT. PUBLICO-JEQUIT./MUCURI 4.924,85 0,00 0,00 0,00 0,00 0,00 4.924,85 541,73 448,83 0,00 990,56 3.934,29 352,00 0,00 31/10/2012
110 405300 ALINE LAIA CARDOZO ANALISTA DO MP ATIVO BELO HORIZONTE - COMARCA; EXTINTA - DIRETORIA DE CONTRATOS E CONVÊNIOS 5.598,22 335,89 0,00 0,00 0,00 0,00 5.934,11 770,39 957,58 0,00 1.727,97 4.206,14 352,00 1.069,41 31/10/2012
111 278200 ALINE MARCIA FARIA BARBOSA OFICIAL DO MP ATIVO BARBACENA - COMARCA; BARBACENA-PJ-SECRETARIA 4.195,87 419,59 0,00 0,00 0,00 0,00 4.615,46 507,70 261,02 0,00 768,72 3.846,74 822,00 0,00 31/10/2012
112 496600 ALINE MENDES DE GODOY ANALISTA DO MP ATIVO BELO HORIZONTE - COMARCA; ASSESS TECNICO-JUR JUNTO AS PROC. DE JUST 4.924,85 0,00 0,00 0,00 0,00 0,00 4.924,85 541,73 448,83 0,00 990,56 3.934,29 352,00 0,00 31/10/2012
113 389000 ALINE NERI NOBRE ANALISTA DO MP ATIVO MONTES CLAROS - COMARCA; COORD REG PJ DEF EDUC DIR CRIANCA ADOL NORTE 6.069,59 1.213,92 0,00 0,00 0,00 0,00 7.283,51 938,53 1.331,70 0,00 2.270,23 5.013,28 352,00 1.248,60 31/10/2012
114 294600 ALINE PATRICIA SILVA VIEIRA OFICIAL DO MP ATIVO UBERLÂNDIA - COMARCA; UBERLANDIA-PJ-03PJ 5.085,23 508,52 0,00 0,00 0,00 0,00 5.593,75 615,31 567,29 0,00 1.182,60 4.411,15 587,00 0,00 31/10/2012
115 434200 ALINE RENA PEREIRA DE ALMEIDA ANALISTA DO MP ATIVO BELO HORIZONTE - COMARCA; BH-07PJ 01 TRIBUNAL JURI-SECRETARIA 5.085,23 305,11 0,00 0,00 0,00 0,00 5.390,34 592,94 426,99 0,00 1.019,93 4.370,41 822,00 0,00 31/10/2012
116 420000 ALINE RODRIGUES CAMOROPIN ANALISTA DO MP ATIVO SABARÁ - COMARCA; SABARA-PJ-02PJ 5.598,22 335,89 0,00 0,00 0,00 0,00 5.934,11 652,75 695,84 0,00 1.348,59 4.585,52 352,00 0,00 31/10/2012
117 408300 ALINE SILVA ARAUJO DE PAULA ANALISTA DO MP ATIVO SÃO SEBASTIÃO DO PARAÍSO - COMARCA; SAO SEBASTIAO DO PARAISO-PJ-02PJ 5.598,22 335,89 0,00 0,00 0,00 0,00 5.934,11 652,75 695,84 0,00 1.348,59 4.585,52 352,00 0,00 31/10/2012
118 425400 ALINE TRINDADE DE FREITAS CAMPOS OFICIAL DO MP ATIVO BETIM - COMARCA; BETIM-PJ-11PJ 3.574,80 214,49 0,00 0,00 0,00 0,00 3.789,29 416,82 206,66 0,00 623,48 3.165,81 352,00 0,00 31/10/2012
119 517200 ALISSOM PEREIRA DA SILVA ANALISTA DO MP ATIVO BORDA DA MATA - COMARCA; BORDA DA MATA-PJ-UNPJ 4.332,50 0,00 0,00 0,00 1.444,17 0,00 5.776,67 476,58 700,99 0,00 1.177,57 4.599,10 352,00 0,00 31/10/2012
120 442400 ALISSON LABRE ANALISTA DO MP ATIVO VARGINHA - COMARCA; VARGINHA-PJ-02PJ 5.421,69 0,00 0,00 0,00 0,00 0,00 5.421,69 596,39 570,43 0,00 1.166,82 4.254,87 352,00 0,00 31/10/2012
121 349000 ALLEC RODRIGUES VIEIRA ASSESSOR/OFICIAL ATIVO BELO HORIZONTE - COMARCA; PROCURADOR-GERAL DE JUSTICA- GABINETE 0,00 784,28 7.842,84 0,00 0,00 0,00 8.627,12 948,98 1.354,96 0,00 2.303,94 6.323,18 352,00 0,00 31/10/2012
122 297300 ALLYSON SALIBA MONTEIRO LAIZO ANALISTA DO MP ATIVO CONSELHEIRO LAFAIETE - COMARCA; CONSELHEIRO LAFAIETE-PJ-03PJ 7.356,10 735,61 0,00 0,00 0,00 0,00 8.091,71 890,09 1.223,92 0,00 2.114,01 5.977,70 352,00 0,00 31/10/2012
123 303700 ALMIR LOPES LOURES ANALISTA DO MP ATIVO BELO HORIZONTE - COMARCA; CENTRAL DE APOIO TECN-SETOR DE MEIO AMBIENTE 8.361,90 836,19 0,00 0,00 0,00 0,00 9.198,09 1.011,79 1.404,19 0,00 2.415,98 6.782,11 352,00 0,00 31/10/2012
124 515900 ALTAIR NEVES JUNIOR OFICIAL DO MP ATIVO BELO HORIZONTE - COMARCA; BH-03PJ EMPRESARIAL-SECRETARIA 2.812,27 0,00 0,00 0,00 937,42 0,00 3.749,69 309,35 221,93 0,00 531,28 3.218,41 352,00 0,00 31/10/2012
125 233300 ALVARINDO BATISTA ANALISTA DO MP ATIVO BELO HORIZONTE - COMARCA; ASSESSORIA DE COMUNICACAO INTEGRADA 9.505,17 1.901,03 0,00 0,00 0,00 0,00 11.406,20 1.254,68 1.989,88 0,00 3.244,56 8.161,64 3.567,68 294,77 31/10/2012
126 274100 ALYSSON CARVALHO VIDAL DE LACERDA OFICIAL DO MP ATIVO MANHUAÇU - COMARCA; MANHUACU-PJ-01PJ 5.250,75 525,08 0,00 0,00 0,00 0,00 5.775,83 635,34 657,10 0,00 1.292,44 4.483,39 352,00 0,00 31/10/2012
127 521700 AMANDA CRISTINA AGUIAR MACHADO OFICIAL DO MP ATIVO BARBACENA - COMARCA; BARBACENA-PJ-03PJ 2.554,55 0,00 0,00 0,00 0,00 0,00 2.554,55 281,00 47,74 0,00 328,74 2.225,81 352,00 0,00 31/10/2012
128 520800 AMANDA DE SOUZA MACHADO ANALISTA DO MP ATIVO BAEPENDI - COMARCA; BAEPENDI-PJ-UNPJ 4.332,50 0,00 0,00 0,00 0,00 0,00 4.332,50 476,58 315,43 0,00 792,01 3.540,49 822,00 0,00 31/10/2012
129 501800 AMANDA LIMA TEIXEIRA COSTA OFICIAL DO MP ATIVO CATAGUASES - COMARCA; CATAGUASES-PJ-04PJ 2.903,86 0,00 0,00 0,00 0,00 0,00 2.903,86 319,42 80,87 0,00 400,29 2.503,57 587,00 0,00 31/10/2012
130 434400 AMARILIS ASSIS SIMAO CURCIO ANALISTA DO MP ATIVO BELO HORIZONTE - COMARCA; ASSESS TECNICO-JUR JUNTO AS PROC. DE JUST 5.085,23 305,11 0,00 0,00 0,00 0,00 5.390,34 592,94 562,76 0,00 1.155,70 4.234,64 822,00 0,00 31/10/2012
131 273700 AMBROLINA CARNEIRO DE VASCONCELOS OFICIAL DO MP ATIVO FRUTAL - COMARCA; FRUTAL-PJ-03PJ 5.085,23 2.034,09 0,00 0,00 0,00 0,00 7.119,32 903,94 1.209,49 0,00 2.113,43 5.005,89 352,00 1.098,36 31/10/2012
132 58000 AMELIA GUARIZE DE CASTRO OFICIAL DO MP ATIVO JUIZ DE FORA - COMARCA; JUIZ DE FORA-PJ-SECRETARIA 4.619,20 4.157,28 0,00 0,00 0,00 965,41 9.741,89 965,41 1.657,00 0,00 2.622,41 7.119,48 352,00 0,00 31/10/2012
133 324301 AMERICA SUELI FERREIRA DA SILVA ANALISTA DO MP ATIVO MONTE CARMELO - COMARCA; MONTE CARMELO-PJ-02PJ 4.924,85 0,00 0,00 0,00 0,00 0,00 4.924,85 541,73 448,83 0,00 990,56 3.934,29 352,00 0,00 31/10/2012
134 273300 AMUJACY DE BRITO ASSIZ OFICIAL DO MP ATIVO BELO HORIZONTE - COMARCA; BH-12PJ JUIZO CRIMINAL-SECRETARIA 4.332,50 433,25 0,00 0,00 0,00 0,00 4.765,75 524,23 365,17 0,00 889,40 3.876,35 587,00 0,00 31/10/2012
135 482200 ANA ALICE LOPES ACHTSCHIN ANALISTA DO MP ATIVO BELO HORIZONTE - COMARCA; PROC JUST RECURSOS ESP E EXTRAORD CRIMINAIS 4.473,58 0,00 0,00 0,00 0,00 0,00 4.473,58 492,09 343,69 0,00 835,78 3.637,80 352,00 0,00 31/10/2012
136 490400 ANA AMELIA PAULINO GARCIA OFICIAL DO MP ATIVO GRAO MOGOL - COMARCA; GRAO MOGOL-PJ-UNPJ 3.196,81 0,00 0,00 0,00 0,00 0,00 3.196,81 351,65 119,97 0,00 471,62 2.725,19 352,00 0,00 31/10/2012
137 279100 ANA CAROLINA ARAUJO PEREIRA ANALISTA DO MP ATIVO BELO HORIZONTE - COMARCA; DIVIS DE PROJETOS DE ENGENHARIA E ARQUITETURA 7.356,10 735,61 0,00 0,00 0,00 0,00 8.091,71 890,09 1.223,92 0,00 2.114,01 5.977,70 352,00 0,00 31/10/2012
138 359400 ANA CAROLINA DE ABREU FARIA ASSESSOR ATIVO BELO HORIZONTE - COMARCA; SUPERINTENDÊNCIA DE ENGENHARIA E ARQUITETURA 0,00 0,00 3.519,31 0,00 0,00 0,00 3.519,31 425,84 157,22 0,00 583,06 2.936,25 352,00 0,00 31/10/2012
139 408500 ANA CAROLINA DE CASTRO CARVALHO ANALISTA DO MP ATIVO BARBACENA - COMARCA; BARBACENA-PJ-SECRETARIA 5.598,22 335,89 0,00 0,00 0,00 0,00 5.934,11 652,75 695,84 0,00 1.348,59 4.585,52 352,00 0,00 31/10/2012
140 420200 ANA CAROLINA FERNANDES SILVA ANALISTA DO MP ATIVO BELO HORIZONTE - COMARCA; PROC. JUSTICA DE HABEAS CORPUS 5.085,23 305,11 0,00 0,00 0,00 0,00 5.390,34 592,94 562,76 0,00 1.155,70 4.234,64 352,00 0,00 31/10/2012
141 522100 ANA CAROLINA FERNANDINO VIDAL PEREIRA SANTOS OFICIAL DO MP ATIVO BELO HORIZONTE - COMARCA; EXTINTA - SECRETARIA ADMINISTRATIVA 2.554,55 0,00 0,00 0,00 0,00 0,00 2.554,55 281,00 47,74 0,00 328,74 2.225,81 587,00 0,00 31/10/2012
142 502400 ANA CAROLINA GONCALVES FERNANDES ANALISTA DO MP ATIVO IPATINGA - COMARCA; IPATINGA-PJ-SECRETARIA 4.924,85 0,00 0,00 0,00 0,00 0,00 4.924,85 575,90 539,09 0,00 1.114,99 3.809,86 352,00 362,39 31/10/2012
143 431900 ANA CAROLINA MOTTA GUATIMOSIM ANALISTA DO MP ATIVO BELO HORIZONTE - COMARCA; PROC. JUSTICA DE HABEAS CORPUS 5.598,22 335,89 0,00 0,00 0,00 0,00 5.934,11 652,75 695,84 0,00 1.348,59 4.585,52 352,00 0,00 31/10/2012
144 322500 ANA CAROLINA TOSTES DIB OFICIAL DO MP ATIVO BELO HORIZONTE - COMARCA; GAECO - SECRETARIA 3.811,39 381,14 0,00 0,00 0,00 0,00 4.192,53 461,18 287,40 0,00 748,58 3.443,95 352,00 0,00 31/10/2012
145 490600 ANA CAROLINA XAVIER GODOY ANALISTA DO MP ATIVO BELO HORIZONTE - COMARCA; BH-18PJ VIOLENCIA DOMESTICA 4.924,85 0,00 0,00 0,00 0,00 0,00 4.924,85 541,73 448,83 0,00 990,56 3.934,29 352,00 0,00 31/10/2012
146 324800 ANA CECILIA MENDES DA SILVA OFICIAL DO MP ATIVO OURO FINO - COMARCA; OURO FINO-PJ-01PJ 4.619,20 923,84 0,00 0,00 0,00 0,00 5.543,04 609,73 600,13 0,00 1.209,86 4.333,18 587,00 0,00 31/10/2012
147 219400 ANA CELIA DE ALMEIDA SOARES COORDENADOR/OFICIAL ATIVO BELO HORIZONTE - COMARCA; DIVISAO DE DOCUMENTACAO JURIDICA 0,00 1.619,64 8.098,20 0,00 0,00 0,00 9.717,84 738,96 1.712,66 0,00 2.451,62 7.266,22 352,00 0,00 31/10/2012
148 441300 ANA CLAUDIA ALKIMIM MIRANDA BOMTEMPO ANALISTA DO MP ATIVO MONTES CLAROS - COMARCA; MONTES CLAROS-PJ-11PJ 5.598,22 335,89 0,00 0,00 0,00 0,00 5.934,11 680,88 713,18 0,00 1.394,06 4.540,05 587,00 255,73 31/10/2012
149 461200 ANA CRISTINA ALVES ANALISTA DO MP ATIVO SANTA LUZIA - COMARCA; SANTA LUZIA-PJ-03PJ 4.473,58 0,00 0,00 0,00 0,00 0,00 4.473,58 492,09 343,69 0,00 835,78 3.637,80 587,00 0,00 31/10/2012
150 379300 ANA CRISTINA ALVES FLAVIO ANALISTA DO MP ATIVO SÃO GOTARDO - COMARCA; SAO GOTARDO-PJ-01PJ 6.069,59 364,18 0,00 0,00 0,00 0,00 6.433,77 707,71 772,88 0,00 1.480,59 4.953,18 3.567,68 294,77 31/10/2012
151 514100 ANA CRISTINA ARAUJO ASSUNCAO ANALISTA DO MP ATIVO BELO HORIZONTE - COMARCA; BH-14PJ DEFESA CONSUMIDOR-SECRETARIA 4.332,50 0,00 0,00 0,00 1.444,17 0,00 5.776,67 476,58 700,99 0,00 1.177,57 4.599,10 352,00 0,00 31/10/2012
152 113400 ANA CRISTINA BRAGA ALBUQUERQUE ASSESSOR/ANALISTA ATIVO BELO HORIZONTE - COMARCA; ASSESS ESP ADM E FINANCEIRA DO PGJ ADJ ADM 20.616,95 11.969,71 0,00 0,00 0,00 0,00 32.586,66 2.652,94 5.146,26 8.469,04 16.268,24 16.318,42 352,00 0,00 31/10/2012
153 233800 ANA CRISTINA BRAGA SOARES RIOS OFICIAL DO MP ATIVO CONTAGEM - COMARCA; CONTAGEM-PJ-SECRETARIA 4.769,54 953,91 0,00 0,00 0,00 0,00 5.723,45 629,58 644,28 0,00 1.273,86 4.449,59 352,00 0,00 31/10/2012
154 186400 ANA CRISTINA DE AZEVEDO LOPES OFICIAL DO MP ATIVO UBÁ - COMARCA; UBA-PJ-01PJ 7.124,13 1.424,83 0,00 0,00 0,00 0,00 8.548,96 940,39 1.245,32 0,00 2.185,71 6.363,25 352,00 0,00 31/10/2012
155 465100 ANA CRISTINA DE OLIVEIRA GUIMARAES ANALISTA DO MP ATIVO BRASÓPOLIS - COMARCA; BRASOPOLIS-PJ-UNPJ 4.473,58 0,00 0,00 0,00 0,00 0,00 4.473,58 492,09 343,69 0,00 835,78 3.637,80 352,00 0,00 31/10/2012
156 500600 ANA CRISTINA LATADO SUDARIO ANALISTA DO MP ATIVO UBERLÂNDIA - COMARCA; UBERLANDIA-PJ-07PJ 4.473,58 0,00 0,00 0,00 0,00 0,00 4.473,58 523,13 407,44 0,00 930,57 3.543,01 352,00 282,16 31/10/2012
157 331400 ANA CRISTINA RIBEIRO ALVES OFICIAL DO MP ATIVO BAMBUÍ - COMARCA; BAMBUI-PJ-SECRETARIA 4.473,58 447,36 0,00 0,00 0,00 0,00 4.920,94 541,30 447,87 0,00 989,17 3.931,77 352,00 0,00 31/10/2012
158 249300 ANA ELOINA MARTINS DO PINHO OFICIAL DO MP ATIVO BETIM - COMARCA; BETIM-PJ-06PJ 5.598,22 1.679,47 0,00 0,00 0,00 0,00 7.277,69 964,38 1.343,96 0,00 2.308,34 4.969,35 352,00 1.489,39 31/10/2012
159 257400 ANA FLAVIA CAMBRAIA ANALISTA DO MP ATIVO BELO HORIZONTE - COMARCA; BH-19PJ SAUDE-ASS TECNICA 8.361,90 836,19 0,00 0,00 0,00 0,00 9.198,09 1.011,79 1.449,45 0,00 2.461,24 6.736,85 352,00 0,00 31/10/2012
160 248201 ANA FLAVIA DE MORAIS SOUZA ANALISTA DO MP ATIVO DIVINÓPOLIS - COMARCA; DIVINOPOLIS-PJ-01PJ 4.924,85 984,97 0,00 0,00 0,00 0,00 5.909,82 650,08 689,90 0,00 1.339,98 4.569,84 352,00 0,00 31/10/2012
161 238600 ANA FLAVIA FRANCO CAMPOS OFICIAL DO MP ATIVO BELO HORIZONTE - COMARCA; DIRETORIA DE PESSOAL ADMINISTRATIVO - DPAD 5.598,22 1.119,64 0,00 0,00 0,00 0,00 6.717,86 738,96 842,41 0,00 1.581,37 5.136,49 587,00 0,00 31/10/2012
162 402900 ANA FLAVIA PORTES DE CARVALHO ANALISTA DO MP ATIVO BELO HORIZONTE - COMARCA; DIRET DE PLANOS PROJETOS E PROGRAMAS INST 6.069,59 364,18 0,00 0,00 0,00 0,00 6.433,77 707,71 772,88 0,00 1.480,59 4.953,18 587,00 0,00 31/10/2012
163 382700 ANA KARENINA SALDANHA GONTIJO ANALISTA DO MP ATIVO BELO HORIZONTE - COMARCA; ASSESS TECNICO-JUR JUNTO AS PROC. DE JUST 5.598,22 335,89 0,00 0,00 0,00 0,00 5.934,11 652,75 695,84 0,00 1.348,59 4.585,52 352,00 0,00 31/10/2012
164 220000 ANA LUCIA AMORIM OFICIAL DO MP ATIVO MARTINHO CAMPOS - COMARCA; MARTINHO CAMPOS-PJ-SECRETARIA 5.085,23 2.034,10 0,00 0,00 0,00 0,00 7.119,33 890,78 1.225,46 0,00 2.116,24 5.003,09 352,00 978,67 31/10/2012
165 462200 ANA LUCIA ANDRADE TOMICH OTTONI ANALISTA DO MP ATIVO TEÓFILO OTONI - COMARCA; TEOFILO OTONI-PJ-06PJ 4.924,85 0,00 0,00 0,00 0,00 0,00 4.924,85 641,01 579,22 0,00 1.220,23 3.704,62 587,00 902,54 31/10/2012
166 504100 ANA LUCIA CATAO DE CARVALHO OFICIAL DO MP ATIVO BELO HORIZONTE - COMARCA; BH-09PJ AUDITORIA MILITAR 2.903,86 0,00 0,00 0,00 0,00 0,00 2.903,86 337,22 107,05 0,00 444,27 2.459,59 587,00 192,34 31/10/2012
167 274700 ANA LUCIA DE ALENCAR BRAGATO OFICIAL DO MP ATIVO UBERABA - COMARCA; UBERABA-PJ-04PJ 5.085,23 508,52 0,00 0,00 0,00 0,00 5.593,75 615,31 567,29 0,00 1.182,60 4.411,15 352,00 0,00 31/10/2012
168 258600 ANA LUCIA DE FREITAS AZEVEDO ANALISTA DO MP ATIVO BELO HORIZONTE - COMARCA; BH-19PJ SAUDE-ASS TECNICA 8.361,90 836,19 0,00 0,00 0,00 0,00 9.198,09 1.011,79 1.494,70 0,00 2.506,49 6.691,60 352,00 0,00 31/10/2012
169 509400 ANA LUCIA DORNELAS MALLOSTO ANALISTA DO MP ATIVO JUIZ DE FORA - COMARCA; JUIZ DE FORA-PJ-08PJ 3.935,44 0,00 0,00 0,00 0,00 0,00 3.935,44 432,90 235,92 0,00 668,82 3.266,62 352,00 0,00 31/10/2012
170 524600 ANA LUCIA DOS SANTOS FERNANDES COELHO ASSESSOR ATIVO BELO HORIZONTE - COMARCA; COORD ESTADUAL DE DEFESA DA EDUCACAO 0,00 0,00 3.519,31 0,00 0,00 0,00 3.519,31 116,30 213,53 0,00 329,83 3.189,48 352,00 0,00 31/10/2012
171 302600 ANA LUCIA LOPES SANTOS OFICIAL DO MP ATIVO BELO HORIZONTE - COMARCA; PROCON-MG-SECRETARIA DE FISCALIZACOES 4.619,20 461,92 0,00 0,00 0,00 0,00 5.081,12 558,92 441,82 0,00 1.000,74 4.080,38 587,00 0,00 31/10/2012
172 493400 ANA LUISA NOGUEIRA MOREIRA ANALISTA DO MP ATIVO BELO HORIZONTE - COMARCA; TRIBUNAL DO JURI-07 PJ-02 TRIBUNAL 4.924,85 0,00 0,00 0,00 0,00 0,00 4.924,85 541,73 448,83 0,00 990,56 3.934,29 352,00 0,00 31/10/2012
173 389300 ANA LUISA REUTER LIMA ANALISTA DO MP ATIVO BELO HORIZONTE - COMARCA; DIRETORIA DE SISTEMAS DE INFORMACAO 5.085,23 305,11 0,00 0,00 0,00 0,00 5.390,34 592,94 562,76 0,00 1.155,70 4.234,64 352,00 0,00 31/10/2012
174 480600 ANA LUIZA FERNANDES FRAGA E GRECO OFICIAL DO MP ATIVO SANTO ANTÔNIO DO MONTE - COMARCA; SANTO ANTONIO DO MONTE-PJ-UNPJ 2.637,71 0,00 0,00 0,00 0,00 0,00 2.637,71 290,15 53,29 0,00 343,44 2.294,27 352,00 0,00 31/10/2012
175 517800 ANA LUIZA MAGALHAES CIRINO PIOTO BRAGA OFICIAL DO MP ATIVO BELO HORIZONTE - COMARCA; SUPERINTENDÊNCIA DE ENGENHARIA E ARQUITETURA 2.554,55 0,00 0,00 0,00 0,00 0,00 2.554,55 281,00 47,74 0,00 328,74 2.225,81 352,00 0,00 31/10/2012
176 481400 ANA MARCIA CANDIDA FERREIRA OFICIAL DO MP ATIVO BRUMADINHO - COMARCA; BRUMADINHO-PJ-01PJ 2.637,71 0,00 0,00 0,00 0,00 0,00 2.637,71 290,15 53,29 0,00 343,44 2.294,27 352,00 0,00 31/10/2012
177 409600 ANA OLIVIA FARIA ROSENBURG ANALISTA DO MP ATIVO BELO HORIZONTE - COMARCA; DIRETORIA DO COLEGIO E DA CAMARA DE PJ 5.598,22 1.119,64 0,00 0,00 0,00 0,00 6.717,86 800,54 1.024,68 0,00 1.825,22 4.892,64 587,00 559,82 31/10/2012
178 461500 ANA PAULA ALVES CARVALHO ANALISTA DO MP ATIVO UBERLÂNDIA - COMARCA; UBERLANDIA-PJ-08PJ 4.924,85 0,00 0,00 0,00 0,00 0,00 4.924,85 607,92 596,09 0,00 1.204,01 3.720,84 352,00 601,69 31/10/2012
179 523200 ANA PAULA ALVES DA SILVA OFICIAL DO MP ATIVO GOVERNADOR VALADARES - COMARCA; GOVERNADOR VALADARES-PJ-15PJ 2.812,27 0,00 0,00 0,00 0,00 0,00 2.812,27 309,35 68,64 0,00 377,99 2.434,28 352,00 0,00 31/10/2012
180 381200 ANA PAULA BARROS PEREIRA ASSESSOR/ANALISTA ATIVO BELO HORIZONTE - COMARCA; PROC JUST RECURSOS ESP E EXTRAORD CRIMINAIS 0,00 427,45 7.124,13 0,00 0,00 0,00 7.551,58 830,46 1.091,78 0,00 1.922,24 5.629,34 352,00 0,00 31/10/2012
181 227200 ANA PAULA DA SILVA CAMPOLINA ANALISTA DO MP ATIVO BELO HORIZONTE - COMARCA; EXTINTA - DIVISÃO DE MATERIAL PERMANENTE 9.505,17 2.851,55 0,00 0,00 0,00 0,00 12.356,72 1.359,24 2.267,78 0,00 3.627,02 8.729,70 352,00 0,00 31/10/2012
182 84200 ANA PAULA DE SOUZA ROCHA OFICIAL DO MP ATIVO BELO HORIZONTE - COMARCA; ASSESS ESP ADM E FINANCEIRA DO PGJ ADJ ADM 19.377,21 7.750,88 0,00 0,00 0,00 0,00 27.128,09 2.652,94 5.055,75 3.010,47 10.719,16 16.408,93 352,00 0,00 31/10/2012
183 278500 ANA PAULA DIAS CAPANEMA COORDENADOR/OFICIAL ATIVO BELO HORIZONTE - COMARCA; EXTINTA - DIRETORIA DE MATERIAL E PATRIMONIO 0,00 920,55 9.205,45 0,00 0,00 0,00 10.126,00 615,31 1.858,91 0,00 2.474,22 7.651,78 352,00 0,00 31/10/2012
184 327300 ANA PAULA GARCIA MAXIMO OFICIAL DO MP ATIVO UNAÍ - COMARCA; UNAI-PJ-01PJ 4.619,20 923,84 0,00 0,00 0,00 0,00 5.543,04 609,73 464,37 0,00 1.074,10 4.468,94 587,00 0,00 31/10/2012
185 270000 ANA PAULA GOULART CRUZ DE MAGALHAES ANALISTA DO MP ATIVO BELO HORIZONTE - COMARCA; PROC JUST ESP ACOES COMP ORIG CRIMINAL-ASSESS 6.471,28 647,13 0,00 0,00 0,00 0,00 7.118,41 783,03 985,70 0,00 1.768,73 5.349,68 352,00 0,00 31/10/2012
186 262100 ANA PAULA KOMATSUZAKI ABIJAUDI ANALISTA DO MP ATIVO BELO HORIZONTE - COMARCA; BH-17PJ PATRIMONIO PUBLICO-SECRETARIA 8.361,90 2.508,57 0,00 0,00 0,00 0,00 10.870,47 1.195,75 1.813,51 0,00 3.009,26 7.861,21 587,00 0,00 31/10/2012
187 278900 ANA PAULA MOREIRA GURGEL ANALISTA DO MP ATIVO BELO HORIZONTE - COMARCA; EXTINTA - DIRETORIA DE CONTRATOS E CONVÊNIOS 8.361,90 1.672,38 0,00 0,00 0,00 0,00 10.034,28 1.103,77 1.699,36 0,00 2.803,13 7.231,15 352,00 0,00 31/10/2012
188 425700 ANA PAULA ROCHA ASSESSOR/OFICIAL ATIVO BELO HORIZONTE - COMARCA; ASSESSORIA DE COMUNICACAO INTEGRADA 0,00 335,89 5.598,22 0,00 0,00 0,00 5.934,11 416,82 760,72 0,00 1.177,54 4.756,57 352,00 0,00 31/10/2012
189 395601 ANA PAULA SALGE OLIVEIRA ANALISTA DO MP ATIVO UBERABA - COMARCA; COORD REG PJ DEF EDUC DIR CRIANCA ADOL TRIANG 4.769,54 476,95 0,00 0,00 0,00 0,00 5.246,49 577,11 527,55 0,00 1.104,66 4.141,83 352,00 0,00 31/10/2012
190 473200 ANA PAULA SCOTTON BRASIL ANALISTA DO MP ATIVO JUIZ DE FORA - COMARCA; JUIZ DE FORA-PJ-09PJ 4.473,58 0,00 0,00 0,00 0,00 0,00 4.473,58 492,09 343,69 0,00 835,78 3.637,80 352,00 0,00 31/10/2012
191 470900 ANA PAULA VALADARES ANALISTA DO MP ATIVO PITANGUI - COMARCA; PITANGUI-PJ-01PJ 4.924,85 0,00 0,00 0,00 0,00 0,00 4.924,85 602,09 537,88 0,00 1.139,97 3.784,88 587,00 548,73 31/10/2012
192 447000 ANA PAULA VALENTIM DE ARAUJO ANALISTA DO MP ATIVO BELO HORIZONTE - COMARCA; BH-08PJ JUIZADO ESPECIAL 5.421,69 0,00 0,00 0,00 0,00 0,00 5.421,69 596,39 570,43 0,00 1.166,82 4.254,87 352,00 0,00 31/10/2012
193 505400 ANA PAULA VIEIRA SOUTO OFICIAL DO MP ATIVO ALMENARA - COMARCA; COORD. PAT. PUBLICO-MUCURI/JEQUIT - ALMENARA 2.637,71 0,00 0,00 0,00 0,00 0,00 2.637,71 303,56 36,75 0,00 340,31 2.297,40 587,00 121,97 31/10/2012
194 280200 ANA RACHEL BRANDAO LADEIRA ROLAND DIRETOR/ANALISTA ATIVO BELO HORIZONTE - COMARCA; SUPRIN DE FORMACAO E APERFEICOAMENTO-SFA/CEAF 0,00 1.193,16 11.931,59 0,00 0,00 0,00 13.124,75 919,06 2.600,03 0,00 3.519,09 9.605,66 587,00 0,00 31/10/2012
195 384700 ANA RODRIGUES PEREIRA MARRA ANALISTA DO MP ATIVO COROMANDEL - COMARCA; COROMANDEL-PJ-01PJ 5.085,23 305,11 0,00 0,00 0,00 0,00 5.390,34 592,94 517,50 0,00 1.110,44 4.279,90 587,00 0,00 31/10/2012
196 232700 ANA SILVIA SEMBLANO NAKAMURA ASSESSOR/OFICIAL ATIVO BELO HORIZONTE - COMARCA; CENT DE APOIO TEC-SETOR DEF,IDOSO E INFANC 0,00 1.424,83 7.124,13 0,00 0,00 0,00 8.548,96 715,66 1.397,63 0,00 2.113,29 6.435,67 555,90 18,69 31/10/2012
197 326700 ANA TERCIA DE FATIMA COSTA OFICIAL DO MP ATIVO NOVA SERRANA - COMARCA; NOVA SERRANA-PJ-01PJ 4.619,20 461,92 0,00 0,00 0,00 558,92 5.640,04 558,92 550,27 0,00 1.109,19 4.530,85 352,00 0,00 31/10/2012
198 310400 ANADEJE DO CARMO DINIZ ARAUJO OFICIAL DO MP ATIVO BELO HORIZONTE - COMARCA; CENT DE ATENDIMENTO E ORIENTACAO DE PESSOAL 4.619,20 461,92 0,00 0,00 0,00 0,00 5.081,12 558,92 487,08 0,00 1.046,00 4.035,12 587,00 0,00 31/10/2012
199 395000 ANAIDE PEREIRA LOPES ANALISTA DO MP ATIVO BELO HORIZONTE - COMARCA; DIRETORIA DE GESTAO DOCUMENTAL 5.085,23 305,11 0,00 0,00 0,00 0,00 5.390,34 640,38 668,31 0,00 1.308,69 4.081,65 352,00 431,28 31/10/2012
200 337000 ANAILDES MARIA MENDES OFICIAL DO MP ATIVO JANAÚBA - COMARCA; JANAUBA-PJ-02PJ 3.811,39 381,14 0,00 0,00 0,00 0,00 4.192,53 461,18 287,40 0,00 748,58 3.443,95 352,00 0,00 31/10/2012
201 192900 ANATALIA CERQUEIRA LIMA PERES OFICIAL DO MP ATIVO UBERABA - COMARCA; COORD REG PJ DEF EDUC DIR CRIANCA ADOL TRIANG 4.619,20 923,84 0,00 0,00 0,00 0,00 5.543,04 609,73 600,13 0,00 1.209,86 4.333,18 352,00 0,00 31/10/2012
202 377400 ANDEIRSON DA MATTA BARBOSA ANALISTA DO MP ATIVO POUSO ALEGRE - COMARCA; POUSO ALEGRE-PJ-01PJ 5.598,22 335,89 0,00 0,00 0,00 0,00 5.934,11 652,75 695,84 0,00 1.348,59 4.585,52 352,00 0,00 31/10/2012
203 317400 ANDERSON DA SILVA BICALHO OFICIAL DO MP ATIVO CONTAGEM - COMARCA; CONTAGEM-PJ-03PJ 4.619,20 461,92 0,00 0,00 0,00 0,00 5.081,12 558,92 487,08 0,00 1.046,00 4.035,12 587,00 0,00 31/10/2012
204 506900 ANDERSON DE SOUZA DAMIANI ANALISTA DO MP ATIVO BELO HORIZONTE - COMARCA; DIRETORIA DE PAGAMENTO DE PESSOAL-DPAG 3.935,44 787,09 0,00 0,00 0,00 0,00 4.722,53 519,48 399,31 0,00 918,79 3.803,74 352,00 0,00 31/10/2012
205 410000 ANDERSON DE SOUZA NETO ASSESSOR ATIVO BELO HORIZONTE - COMARCA; DIRETORIA DE ADMINISTRACAO FINANCEIRA 0,00 0,00 3.519,31 0,00 0,00 0,00 3.519,31 425,84 157,22 0,00 583,06 2.936,25 352,00 0,00 31/10/2012
206 181900 ANDERSON FLAVIO DE OLIVEIRA OFICIAL DO MP ATIVO ITAGUARA - COMARCA; ITAGUARA-PJ-SECRETARIA 5.598,22 1.119,64 0,00 0,00 0,00 0,00 6.717,86 738,96 887,67 0,00 1.626,63 5.091,23 352,00 0,00 31/10/2012
207 119500 ANDERSON FUNGHI DE AZEVEDO ROCHA COORDENADOR/OFICIAL ATIVO BELO HORIZONTE - COMARCA; DIR ESTRUTURA E PROCESSOS ORGANIZACIONAIS 0,00 6.443,83 9.205,45 0,00 0,00 0,00 15.649,28 1.514,36 2.994,81 0,00 4.509,17 11.140,11 352,00 0,00 31/10/2012
208 333200 ANDERSON JOSE DE FREITAS OFICIAL DO MP ATIVO IPATINGA - COMARCA; IPATINGA-PJ-02PJ 3.811,39 381,14 0,00 0,00 0,00 0,00 4.192,53 461,18 287,40 0,00 748,58 3.443,95 352,00 0,00 31/10/2012
209 462100 ANDERSON LUIZ GUIMARAES CARDOSO ANALISTA DO MP ATIVO BARBACENA - COMARCA; BARBACENA-PJ-SECRETARIA 4.924,85 0,00 0,00 0,00 0,00 0,00 4.924,85 541,73 448,83 0,00 990,56 3.934,29 352,00 0,00 31/10/2012
210 429700 ANDERSON MELO DE SOUZA OFICIAL DO MP ATIVO BELO HORIZONTE - COMARCA; DIRET DE ESTAGIOS E CONVENIOS ACADEMICOS 2.998,37 179,90 0,00 0,00 0,00 0,00 3.178,27 349,61 117,50 0,00 467,11 2.711,16 352,00 0,00 31/10/2012
211 519900 ANDERSON MOREIRA DOEHLER ANALISTA DO MP ATIVO NOVO CRUZEIRO - COMARCA; NOVO CRUZEIRO-PJ-UNPJ 4.332,50 0,00 0,00 0,00 0,00 0,00 4.332,50 476,58 315,43 0,00 792,01 3.540,49 869,12 0,00 31/10/2012
212 103000 ANDERSON TADEU DE DEUS ASSESSOR ATIVO BELO HORIZONTE - COMARCA; EXTINTA - PROTOCOLO DA PGJ 0,00 1.407,72 3.519,31 0,00 0,00 0,00 4.927,03 430,78 479,94 0,00 910,72 4.016,31 587,00 0,00 31/10/2012
213 309200 ANDITYAS SOARES DE MOURA COSTA MATOS ANALISTA DO MP ATIVO BELO HORIZONTE - COMARCA; GABINETE DE PROCURADOR DE JUSTIÇA - SALA 909 6.899,47 689,95 0,00 0,00 0,00 0,00 7.589,42 834,84 1.100,98 0,00 1.935,82 5.653,60 352,00 0,00 31/10/2012
214 338701 ANDRE BARBUTO VITORINO ANALISTA DO MP ATIVO AIMORÉS - COMARCA; AIMORES-PJ-UNPJ 5.598,22 335,89 0,00 0,00 0,00 0,00 5.934,11 652,75 695,84 0,00 1.348,59 4.585,52 352,00 0,00 31/10/2012
215 519200 ANDRE BORJA LANA ANALISTA DO MP ATIVO BELO HORIZONTE - COMARCA; ASSESSORIA DE COMUNICACAO INTEGRADA 4.332,50 0,00 0,00 0,00 0,00 0,00 4.332,50 476,58 315,43 0,00 792,01 3.540,49 352,00 0,00 31/10/2012
216 521900 ANDRE LUIS GOMES SILVA ANALISTA DO MP ATIVO FORMIGA - COMARCA; FORMIGA-PJ-01PJ 3.935,44 0,00 0,00 0,00 0,00 0,00 3.935,44 432,90 235,92 0,00 668,82 3.266,62 352,00 0,00 31/10/2012
217 304300 ANDRE LUIZ AVELAR ANALISTA DO MP ATIVO BELO HORIZONTE - COMARCA; DIRETORIA DE REDES E BANCOS DE DADOS 5.421,69 542,17 0,00 0,00 0,00 0,00 5.963,86 672,89 740,66 0,00 1.413,55 4.550,31 352,00 153,36 31/10/2012
218 397400 ANDRE PATARO MYRRHA DE PAULA E SILVA ASSESSOR/ANALISTA ATIVO BELO HORIZONTE - COMARCA; ASSESSORIA JURIDICO-ADMINISTRATIVA 0,00 427,45 7.124,13 0,00 0,00 0,00 7.551,58 652,75 1.095,39 0,00 1.748,14 5.803,44 352,00 0,00 31/10/2012
219 297200 ANDRE WILLE ROSARIO ANALISTA DO MP ATIVO BELO HORIZONTE - COMARCA; ASSESSORIA ESPECIAL DO PGJ 7.595,56 759,56 0,00 0,00 0,00 0,00 8.355,12 919,06 1.152,62 0,00 2.071,68 6.283,44 587,00 0,00 31/10/2012
220 423600 ANDREA COSTA GUALBERTO ANALISTA DO MP ATIVO GOVERNADOR VALADARES - COMARCA; COORD REG PJ DEF EDU DIR CRIANCA ADOL RIODOCE 5.085,23 2.034,10 0,00 0,00 0,00 0,00 7.119,33 783,13 985,93 0,00 1.769,06 5.350,27 587,00 0,00 31/10/2012
221 198600 ANDREA CRISTINA ANDRADE COSTA E SOUZA OFICIAL DO MP ATIVO MONTES CLAROS - COMARCA; MONTES CLAROS-PJ-SECRETARIA 7.124,13 1.424,83 0,00 0,00 0,00 0,00 8.548,96 940,39 1.245,32 0,00 2.185,71 6.363,25 352,00 0,00 31/10/2012
222 467300 ANDREA DE CASSIA PENNA ALVERNAZ ANALISTA DO MP ATIVO PONTE NOVA - COMARCA; PONTE NOVA-PJ-SECRETARIA 4.924,85 0,00 0,00 0,00 0,00 0,00 4.924,85 541,73 448,83 0,00 990,56 3.934,29 587,00 0,00 31/10/2012
223 308000 ANDREA DE CASSIA SANTOS OLIVEIRA ANALISTA DO MP ATIVO BELO HORIZONTE - COMARCA; ASSESS TECNICO-JUR JUNTO AS PROC. DE JUST 7.595,56 759,56 0,00 0,00 0,00 0,00 8.355,12 919,06 1.288,39 0,00 2.207,45 6.147,67 587,00 0,00 31/10/2012
224 349500 ANDREA DE OLIVEIRA OFICIAL DO MP ATIVO IGUATAMA - COMARCA; IGUATAMA-PJ-UNPJ 4.063,61 406,36 0,00 0,00 0,00 0,00 4.469,97 491,70 305,93 0,00 797,63 3.672,34 743,42 0,00 31/10/2012
225 254700 ANDREA EMISE REIS DE AZEVEDO COORDENADOR/OFICIAL ATIVO BELO HORIZONTE - COMARCA; PROC JUST ESP ACOES COMP ORIG CRIMINAL-SEC 0,00 809,82 8.098,20 0,00 0,00 0,00 8.908,02 615,31 1.523,97 0,00 2.139,28 6.768,74 352,00 0,00 31/10/2012
226 287900 ANDREA FERNANDES PENA OFICIAL DO MP ATIVO MONTES CLAROS - COMARCA; MONTES CLAROS-PJ-09PJ 5.085,23 508,52 0,00 0,00 0,00 0,00 5.593,75 615,31 522,03 0,00 1.137,34 4.456,41 352,00 0,00 31/10/2012
227 300800 ANDREA FERREIRA ANALISTA DO MP ATIVO LAVRAS - COMARCA; LAVRAS-PJ-04PJ 7.356,10 735,61 0,00 0,00 0,00 0,00 8.091,71 890,09 1.223,92 0,00 2.114,01 5.977,70 352,00 0,00 31/10/2012
228 316700 ANDREA FRANCISCA DIAS DE SOUZA ASSESSOR ATIVO BELO HORIZONTE - COMARCA; BH-22PJ PES COM DEF E IDOSOS-SECRETARIA 0,00 0,00 2.107,81 0,00 0,00 0,00 2.107,81 270,58 15,01 0,00 285,59 1.822,22 352,00 0,00 31/10/2012
229 395100 ANDREA LANNA MENDES NOVAIS ANALISTA DO MP ATIVO BELO HORIZONTE - COMARCA; PROMOT ESTADUAL DE DEF PATRI CULT E TUR DE MG 6.069,59 364,18 0,00 0,00 0,00 0,00 6.433,77 707,71 772,88 0,00 1.480,59 4.953,18 822,00 0,00 31/10/2012
230 67300 ANDREA LEAO MAGALHAES ROQUE ASSESSOR ATIVO BELO HORIZONTE - COMARCA; COORD CONTROLE CONST-SECRETARIA 0,00 3.562,07 7.124,13 0,00 0,00 0,00 10.686,20 430,78 2.063,71 0,00 2.494,49 8.191,71 352,00 0,00 31/10/2012
231 335700 ANDREA LOPES PEREIRA ANALISTA DO MP ATIVO GOVERNADOR VALADARES - COMARCA; COORD REG DO MA DA BACIA DO RIO DOCE 7.356,10 735,61 0,00 0,00 0,00 0,00 8.091,71 890,09 1.223,92 0,00 2.114,01 5.977,70 352,00 0,00 31/10/2012
232 389200 ANDREA TUPINI DOS SANTOS TRISTAO DA ROCHA OFICIAL DO MP ATIVO DIVINO - COMARCA; DIVINO-PJ-UNPJ 3.300,91 198,05 0,00 0,00 0,00 0,00 3.498,96 398,08 176,33 0,00 574,41 2.924,55 352,00 119,96 31/10/2012
233 419000 ANDREIA BARBOSA DE ALMEIDA ANALISTA DO MP ATIVO BELO HORIZONTE - COMARCA; PROC. JUSTICA DE HABEAS CORPUS 5.598,22 335,89 0,00 0,00 0,00 0,00 5.934,11 652,75 695,84 0,00 1.348,59 4.585,52 352,00 0,00 31/10/2012
234 281501 ANDREIA CARLA COSTA FILGUEIRAS ANALISTA DO MP ATIVO VISCONDE DO RIO BRANCO - COMARCA; VISCONDE DO RIO BRANCO-PJ-02PJ 5.598,22 335,89 0,00 0,00 0,00 0,00 5.934,11 848,60 1.041,10 0,00 1.889,70 4.044,41 352,00 1.780,45 31/10/2012
235 477100 ANDREIA DE ALMEIDA RIBEIRO MELO OFICIAL DO MP ATIVO CONTAGEM - COMARCA; CONTAGEM-PJ-07PJ 2.903,86 0,00 0,00 0,00 0,00 0,00 2.903,86 319,42 80,87 0,00 400,29 2.503,57 352,00 0,00 31/10/2012
236 100200 ANDREIA FERREIRA MATTOZINHOS COORDENADOR/ANALISTA ATIVO BELO HORIZONTE - COMARCA; DIRET DE ESTAGIOS E CONVENIOS ACADEMICOS 15.061,73 12.752,52 0,00 0,00 0,00 0,00 27.814,25 2.652,94 5.146,26 3.696,63 11.495,83 16.318,42 352,00 0,00 31/10/2012
237 424000 ANDREIA LUCIA COUTO ANALISTA DO MP ATIVO BELO HORIZONTE - COMARCA; BH-18PJ DIREITOS HUMANOS 5.598,22 335,89 0,00 0,00 0,00 0,00 5.934,11 652,75 695,84 0,00 1.348,59 4.585,52 587,00 0,00 31/10/2012
238 370100 ANDREIA MARIA SILVA PINTO OFICIAL DO MP ATIVO CORONEL FABRICIANO - COMARCA; CORONEL FABRICIANO-PJ-01PJ 4.332,50 433,25 0,00 0,00 0,00 0,00 4.765,75 524,23 409,89 0,00 934,12 3.831,63 352,00 0,00 31/10/2012
239 382100 ANDREIA NATALI PEREIRA OFICIAL DO MP ATIVO PRADOS - COMARCA; PRADOS-PJ-UNPJ 4.332,50 259,95 0,00 0,00 0,00 0,00 4.592,45 505,17 367,49 0,00 872,66 3.719,79 352,00 0,00 31/10/2012
240 198700 ANDREIA NUNES DURAES OFICIAL DO MP ATIVO MONTES CLAROS - COMARCA; MONTES CLAROS-PJ-06PJ 7.356,10 1.471,22 0,00 0,00 0,00 0,00 8.827,32 971,01 1.403,96 0,00 2.374,97 6.452,35 352,00 0,00 31/10/2012
241 275200 ANDREIA RIBEIRO FREITAS OFICIAL DO MP ATIVO VIÇOSA - COMARCA; VICOSA-PJ-03PJ 5.085,23 1.017,05 0,00 0,00 0,00 0,00 6.102,28 671,25 646,50 0,00 1.317,75 4.784,53 587,00 0,00 31/10/2012
242 352200 ANDREIA XAVIER PEREIRA OFICIAL DO MP ATIVO CLÁUDIO - COMARCA; CLAUDIO-PJ-UNPJ 4.063,61 406,36 0,00 0,00 0,00 0,00 4.469,97 491,70 342,96 0,00 834,66 3.635,31 352,00 0,00 31/10/2012
243 383700 ANDRESSA EDUARDO SOUZA ANALISTA DO MP ATIVO OURO BRANCO - COMARCA; OURO BRANCO-PJ-SECRETARIA 6.069,59 364,18 0,00 0,00 0,00 0,00 6.433,77 707,71 818,14 0,00 1.525,85 4.907,92 352,00 0,00 31/10/2012
244 426200 ANDRESSA MENDES CASAL ASSESSOR/OFICIAL ATIVO BELO HORIZONTE - COMARCA; BH-12PJ JUIZO CRIMINAL-SECRETARIA 0,00 335,89 5.598,22 0,00 0,00 0,00 5.934,11 384,89 769,51 0,00 1.154,40 4.779,71 352,00 0,00 31/10/2012
245 390100 ANDRESSA RIBEIRO PUCCI OFICIAL DO MP ATIVO UBERABA - COMARCA; UBERABA-PJ-14PJ 3.574,80 214,49 0,00 0,00 0,00 0,00 3.789,29 416,82 206,66 0,00 623,48 3.165,81 352,00 0,00 31/10/2012
246 462500 ANDREZA APARECIDA COSTA E SILVA ANALISTA DO MP ATIVO CONSELHEIRO LAFAIETE - COMARCA; CONSELHEIRO LAFAIETE-PJ-02PJ 4.924,85 0,00 0,00 0,00 0,00 0,00 4.924,85 541,73 448,83 0,00 990,56 3.934,29 352,00 0,00 31/10/2012
247 491600 ANE PATRICIA RIBEIRO ANALISTA DO MP ATIVO SETE LAGOAS - COMARCA; SETE LAGOAS-PJ-10PJ 4.473,58 0,00 0,00 0,00 0,00 0,00 4.473,58 492,09 343,69 0,00 835,78 3.637,80 587,00 0,00 31/10/2012
248 465800 ANELISE GAMA ASSESSOR ATIVO BELO HORIZONTE - COMARCA; BH-18PJ VIOLENCIA DOMESTICA 0,00 0,00 3.519,31 0,00 0,00 0,00 3.519,31 430,78 156,48 0,00 587,26 2.932,05 352,00 0,00 31/10/2012
249 197200 ANGELA COELHO SALDANHA OLIVEIRA OFICIAL DO MP ATIVO PARÁ DE MINAS - COMARCA; PARA DE MINAS-PJ-03PJ 7.356,10 1.471,22 0,00 0,00 0,00 0,00 8.827,32 971,01 1.403,96 0,00 2.374,97 6.452,35 3.567,68 294,77 31/10/2012
250 307400 ANGELA CRISTINA GONCALVES MUNIZ ANALISTA DO MP ATIVO UBERLÂNDIA - COMARCA; UBERLANDIA-COORD CONJ-FAMÍLIA E JUIZ ESP CRIM 7.595,56 1.519,11 0,00 0,00 0,00 0,00 9.114,67 1.002,61 1.474,29 0,00 2.476,90 6.637,77 587,00 0,00 31/10/2012
251 191800 ANGELA MARIA DE OLIVEIRA OFICIAL DO MP ATIVO GUARANÉSIA - COMARCA; GUARANESIA-PJ-SECRETARIA 7.356,10 2.206,83 0,00 0,00 0,00 0,00 9.562,93 1.051,92 1.538,74 0,00 2.590,66 6.972,27 352,00 0,00 31/10/2012
252 69900 ANGELA MARIA DE PAULA CUNHA OFICIAL DO MP ATIVO JUIZ DE FORA - COMARCA; JUIZ DE FORA-PJ-11PJ 7.595,56 3.797,78 0,00 0,00 0,00 0,00 11.393,34 1.253,27 1.896,23 0,00 3.149,50 8.243,84 352,00 0,00 31/10/2012
253 497400 ANGELA MARIA HENRIQUES ANALISTA DO MP ATIVO BELO HORIZONTE - COMARCA; COORD REG BACIAS RIO VELHAS E PARAOPEBA 4.473,58 0,00 0,00 0,00 0,00 0,00 4.473,58 523,13 407,44 0,00 930,57 3.543,01 352,00 282,16 31/10/2012
254 83700 ANGELA SILVA ALMEIDA CAMPOS OFICIAL DO MP ATIVO BELO HORIZONTE - COMARCA; BH-08PJ JUIZADO ESPECIAL-SECRETARIA 9.505,17 6.653,62 0,00 0,00 0,00 1.777,47 17.936,26 1.777,47 3.687,14 0,00 5.464,61 12.471,65 352,00 0,00 31/10/2012
255 260700 ANGELICA CRISTINA AZEVEDO MOREIRA MOUCO OFICIAL DO MP ATIVO UBÁ - COMARCA; UBA-PJ-02PJ 5.250,75 525,08 0,00 0,00 0,00 0,00 5.775,83 635,34 566,60 0,00 1.201,94 4.573,89 587,00 0,00 31/10/2012
256 334600 ANGELICA PANISSA DE FREITAS OFICIAL DO MP ATIVO GUAXUPÉ - COMARCA; GUAXUPE-PJ-02PJ 3.811,39 762,28 0,00 0,00 0,00 0,00 4.573,67 503,10 363,73 0,00 866,83 3.706,84 382,08 0,00 31/10/2012
257 521100 ANGELICA SALES MOREIRA OFICIAL DO MP ATIVO BELO HORIZONTE - COMARCA; BH-02PJ FAMILIA-SECRETARIA 2.554,55 0,00 0,00 0,00 0,00 0,00 2.554,55 281,00 47,74 0,00 328,74 2.225,81 352,00 0,00 31/10/2012
258 466500 ANGELLO MARQUES AGRELLI ANALISTA DO MP ATIVO MAR DE ESPANHA - COMARCA; MAR DE ESPANHA-PJ-UNPJ 4.924,85 0,00 0,00 0,00 0,00 0,00 4.924,85 1.577,52 2.549,69 0,00 4.127,21 797,64 1.040,99 9.766,46 31/10/2012
259 363300 ANGELO VERDOLIN HENRIQUES ANALISTA DO MP ATIVO SETE LAGOAS - COMARCA; SETE LAGOAS-PJ-04PJ 7.124,13 1.424,83 0,00 0,00 0,00 0,00 8.548,96 940,39 1.335,83 0,00 2.276,22 6.272,74 587,00 0,00 31/10/2012
260 250900 ANISIO APARECIDO SANTOS OFICIAL DO MP ATIVO CONTAGEM - COMARCA; CONTAGEM-PJ-19PJ 4.195,87 839,17 0,00 0,00 0,00 0,00 5.035,04 553,85 385,29 0,00 939,14 4.095,90 352,00 0,00 31/10/2012
261 253400 ANNA FLAVIA LEHMAN BATTAGLIA COORDENADOR/ANALISTA ATIVO BELO HORIZONTE - COMARCA; ASSESSORIA JURIDICO-ADMINISTRATIVA 0,00 1.193,16 11.931,59 0,00 0,00 0,00 13.124,75 1.011,79 2.438,77 0,00 3.450,56 9.674,19 822,00 0,00 31/10/2012
262 447600 ANNGELUCE ALCANTARA DE CAMPOS OFICIAL DO MP ATIVO DIVINÓPOLIS - COMARCA; DIVINOPOLIS-PJ-10PJ 2.903,86 0,00 0,00 0,00 0,00 0,00 2.903,86 319,42 80,87 0,00 400,29 2.503,57 352,00 0,00 31/10/2012
263 119600 ANSELMO BORGES PARREIRAS OFICIAL DO MP ATIVO BONFIM - COMARCA; BONFIM-PJ-UNPJ 4.769,54 3.338,67 0,00 0,00 0,00 0,00 8.108,21 891,90 1.137,45 0,00 2.029,35 6.078,86 352,00 0,00 31/10/2012
264 194800 ANTONIA MARIA AFONSO DE SOUZA OFICIAL DO MP ATIVO ITAPAGIPE - COMARCA; ITAPAGIPE-PJ-SECRETARIA 6.471,28 3.235,64 0,00 0,00 0,00 0,00 9.706,92 1.067,76 1.573,99 0,00 2.641,75 7.065,17 352,00 0,00 31/10/2012
265 332400 ANTONIA MARIA MAMEDE OFICIAL DO MP ATIVO ARAGUARI - COMARCA; ARAGUARI-PJ-05PJ 4.769,54 476,95 0,00 0,00 0,00 0,00 5.246,49 577,11 482,30 0,00 1.059,41 4.187,08 352,00 0,00 31/10/2012
266 401600 ANTONIO CARLOS GUEDES AROUCA ANALISTA DO MP ATIVO BELO HORIZONTE - COMARCA; EXTINTA - CAO-IDOSOS PESSOAS DEFIC-SEC ADM 6.069,59 364,18 0,00 0,00 0,00 0,00 6.433,77 707,71 818,14 0,00 1.525,85 4.907,92 352,00 0,00 31/10/2012
267 7100 ANTONIO DO NASCIMENTO OLIVEIRA ASSESSOR ATIVO BELO HORIZONTE - COMARCA; GAECO - SECRETARIA 0,00 1.897,03 2.107,81 0,00 0,00 0,00 4.004,84 430,78 130,57 0,00 561,35 3.443,49 352,00 0,00 31/10/2012
268 59400 ANTONIO GOBIRA DE ALCANTARA AGENTE DO MP ATIVO BELO HORIZONTE - COMARCA; EXTINTA - DIVISAO DE TRANSPORTES 4.619,20 3.233,44 0,00 0,00 0,00 0,00 7.852,64 1.108,13 1.663,79 0,00 2.771,92 5.080,72 352,00 2.221,23 31/10/2012
269 333900 ANTONIO GONCALVES DE SOUZA FILHO OFICIAL DO MP ATIVO BELO HORIZONTE - COMARCA; ARQUIVO DO MINISTERIO PUBLICO DO ESTADO DE MG 4.195,87 419,59 0,00 0,00 0,00 0,00 4.615,46 507,70 373,10 0,00 880,80 3.734,66 352,00 0,00 31/10/2012
270 119700 ANTONIO LISBOA MACIEL OFICIAL DO MP ATIVO JABOTICATUBAS - COMARCA; JABOTICATUBAS-PJ-SECRETARIA 3.811,39 2.667,98 0,00 0,00 0,00 0,00 6.479,37 712,73 648,28 0,00 1.361,01 5.118,36 352,00 0,00 31/10/2012
271 176100 ANTONIO MARCELO CAMPOS CAMPANELLA OFICIAL DO MP ATIVO BELO HORIZONTE - COMARCA; SUPERINTENDENCIA GESTÃO DE PESSOAS 7.356,10 2.206,83 0,00 0,00 0,00 0,00 9.562,93 1.051,92 1.584,00 0,00 2.635,92 6.927,01 587,00 0,00 31/10/2012
272 119800 ANTONIO MARCIANO DE PAULA AGENTE DO MP ATIVO BELO HORIZONTE - COMARCA; DIRETORIA DE MANUTENCAO PREDIAL 3.691,17 2.952,94 0,00 0,00 0,00 730,85 7.374,96 730,85 934,84 0,00 1.665,69 5.709,27 352,00 0,00 31/10/2012
273 321001 ANTONIO OLINTO VIEIRA MACHADO ANALISTA DO MP ATIVO BELO HORIZONTE - COMARCA; CENTRAL DE APOIO TECN-SETOR DE MEIO AMBIENTE 6.069,59 364,18 0,00 0,00 0,00 0,00 6.433,77 707,71 818,14 0,00 1.525,85 4.907,92 352,00 0,00 31/10/2012
274 356200 ANTONIO PAULA DA SILVA OFICIAL DO MP ATIVO JUIZ DE FORA - COMARCA; JUIZ DE FORA-PJ-20PJ 3.691,17 369,12 0,00 0,00 0,00 0,00 4.060,29 446,63 260,92 0,00 707,55 3.352,74 352,00 0,00 31/10/2012
275 83800 ANTONIO ROBSON DA SILVA AGENTE DO MP ATIVO BELO HORIZONTE - COMARCA; BH-23PJ CIVEL-SEC EXP CIVEIS 9.505,17 6.653,62 0,00 0,00 0,00 0,00 16.158,79 1.777,47 3.107,83 0,00 4.885,30 11.273,49 352,00 0,00 31/10/2012
276 119900 ANTONIO RODRIGUES DE PINHO OFICIAL DO MP ATIVO GUANHÃES - COMARCA; GUANHAES-PJ-01PJ 7.124,13 3.562,07 0,00 0,00 0,00 0,00 10.686,20 1.175,48 1.813,66 0,00 2.989,14 7.697,06 352,00 0,00 31/10/2012
277 373300 ANTONIO SERGIO ANANIAS OFICIAL DO MP ATIVO AIURUOCA - COMARCA; AIURUOCA-PJ-UNPJ 3.574,80 214,49 0,00 0,00 0,00 0,00 3.789,29 416,82 149,70 0,00 566,52 3.222,77 822,00 0,00 31/10/2012
278 374700 ANTONIO SILVA NETO OFICIAL DO MP ATIVO BELO HORIZONTE - COMARCA; GAECO - SECRETARIA 3.935,44 236,13 0,00 0,00 0,00 0,00 4.171,57 458,87 283,21 0,00 742,08 3.429,49 352,00 0,00 31/10/2012
279 413200 ANY PEREIRA SILVA ANALISTA DO MP ATIVO TRÊS PONTAS - COMARCA; TRES PONTAS-PJ-01PJ 5.085,23 305,11 0,00 0,00 0,00 0,00 5.390,34 689,50 641,83 0,00 1.331,33 4.059,01 352,00 877,80 31/10/2012
280 151401 APARECIDA DE FATIMA MENDES DE ALMEIDA ASSESSOR ATIVO JUIZ DE FORA - COMARCA; JUIZ DE FORA-PJ-SECRETARIA 0,00 0,00 3.519,31 0,00 0,00 0,00 3.519,31 425,84 157,22 0,00 583,06 2.936,25 352,00 0,00 31/10/2012
281 329300 APARECIDA MARIA MELO DE ASSIS OFICIAL DO MP ATIVO BELO HORIZONTE - COMARCA; BH-18PJ DIREITOS HUMANOS-SECRETARIA 4.619,20 461,92 0,00 0,00 0,00 0,00 5.081,12 558,92 487,08 0,00 1.046,00 4.035,12 352,00 0,00 31/10/2012
282 475300 APARECIDA MARLENE FREIRE ROSA ANALISTA DO MP ATIVO BELO HORIZONTE - COMARCA; BH-02PJ FAMILIA 4.924,85 3.939,89 0,00 0,00 2.954,91 0,00 11.819,65 975,12 2.225,72 0,00 3.200,84 8.618,81 352,00 0,00 31/10/2012
283 240300 APARECIDA PEREIRA DO NASCIMENTO OFICIAL DO MP ATIVO ITURAMA - COMARCA; ITURAMA-PJ-01PJ 5.598,22 2.799,11 0,00 0,00 0,00 0,00 8.397,33 923,71 1.298,72 0,00 2.222,43 6.174,90 352,00 0,00 31/10/2012
284 354500 APARECIDA VIEIRA DE CARVALHO OFICIAL DO MP ATIVO BELO HORIZONTE - COMARCA; PROCON-MG-SEC DE EDUCACAO PARA O CONSUMO 3.691,17 369,12 0,00 0,00 0,00 0,00 4.060,29 446,63 223,90 0,00 670,53 3.389,76 352,00 0,00 31/10/2012
285 286200 ARACELI MEDRADO DOS SANTOS LIMA OFICIAL DO MP ATIVO PARACATU - COMARCA; PARACATU-PJ-03PJ 4.195,87 419,59 0,00 0,00 0,00 0,00 4.615,46 507,70 373,10 0,00 880,80 3.734,66 352,00 0,00 31/10/2012
286 189000 ARAHY MARQUES SILVA OFICIAL DO MP ATIVO SÃO JOÃO DEL REI - COMARCA; SAO JOAO DEL REI-PJ-01PJ 4.195,87 839,17 0,00 0,00 0,00 0,00 5.035,04 553,85 475,80 0,00 1.029,65 4.005,39 352,00 0,00 31/10/2012
287 112200 ARAQUEM AUGUSTO DE MATOS AGENTE DO MP ATIVO BELO HORIZONTE - COMARCA; BH-23PJ INFRACIONAL-SEC EXP 3.811,39 2.667,98 0,00 0,00 0,00 0,00 6.479,37 712,73 738,79 0,00 1.451,52 5.027,85 587,00 0,00 31/10/2012
288 280600 ARDUINO FRATTEZI ANALISTA DO MP ATIVO BELO HORIZONTE - COMARCA; CENTRAL DE APOIO TECNICO-SETOR CONTABIL 7.595,56 759,56 0,00 0,00 0,00 0,00 8.355,12 919,06 1.197,88 0,00 2.116,94 6.238,18 352,00 0,00 31/10/2012
289 417700 ARIANA CRISTINA DE FREITAS ANALISTA DO MP ATIVO MATEUS LEME - COMARCA; MATEUS LEME-PJ-01PJ 4.619,20 277,15 0,00 0,00 0,00 0,00 4.896,35 538,60 441,85 0,00 980,45 3.915,90 352,00 0,00 31/10/2012
290 520200 ARIANE DE FATIMA CARVALHO ALMEIDA OFICIAL DO MP ATIVO BELO HORIZONTE - COMARCA; BH-19PJ SAUDE 2.554,55 0,00 0,00 0,00 851,52 0,00 3.406,07 324,36 229,93 0,00 554,29 2.851,78 352,00 394,20 31/10/2012
291 182000 ARILSON ALEXANDRE MARTINS MAGALHAES OFICIAL DO MP ATIVO JOÃO MONLEVADE - COMARCA; JOAO MONLEVADE-PJ-02PJ 6.069,59 1.820,88 0,00 0,00 0,00 0,00 7.890,47 867,95 1.084,16 0,00 1.952,11 5.938,36 615,06 0,00 31/10/2012
292 511000 ARISLANE CAROLINA DA SILVA ANALISTA DO MP ATIVO CAMPINA VERDE - COMARCA; CAMPINA VERDE-PJ-UNPJ 4.332,50 0,00 0,00 0,00 0,00 0,00 4.332,50 476,58 315,43 0,00 792,01 3.540,49 352,00 0,00 31/10/2012
293 170000 ARLEY BRITES DA SILVA ASSESSOR ATIVO BELO HORIZONTE - COMARCA; EXTINTA - DIVISÃO DE MATERIAL PERMANENTE 0,00 703,86 3.519,31 0,00 0,00 0,00 4.223,17 430,78 190,06 0,00 620,84 3.602,33 1.057,00 0,00 31/10/2012
294 120400 ARLINDO CASSIO DA CRUZ OFICIAL DO MP ATIVO SÃO GONÇALO DO SAPUCAÍ - COMARCA; SAO GONCALO DO SAPUCAI-PJ-01PJ 9.814,62 6.870,24 0,00 0,00 0,00 0,00 16.684,86 1.835,33 3.191,33 0,00 5.026,66 11.658,20 676,60 0,00 31/10/2012
295 243700 ARLINDO MARCIO LACERDA OFICIAL DO MP ATIVO CONTAGEM - COMARCA; CONTAGEM-PJ-03PJ 5.421,69 1.626,51 0,00 0,00 0,00 0,00 7.048,20 775,30 968,52 0,00 1.743,82 5.304,38 352,00 0,00 31/10/2012
296 392100 ARNALDO DE ANDRADE OFICIAL DO MP ATIVO DIVINÓPOLIS - COMARCA; DIVINOPOLIS-PJ-02PJ 4.332,50 259,95 0,00 0,00 0,00 0,00 4.592,45 712,99 829,87 0,00 1.542,86 3.049,59 352,00 1.889,28 31/10/2012
297 352801 ARTHUR JONAS MENDONCA E ARAUJO ANALISTA DO MP ATIVO UBERABA - COMARCA; UBERABA-PJ-12PJ 4.473,58 0,00 0,00 0,00 0,00 0,00 4.473,58 492,09 343,69 0,00 835,78 3.637,80 352,00 0,00 31/10/2012
298 302100 AUGUSTO ROUSSEAU DE CASTRO ANALISTA DO MP ATIVO CATAGUASES - COMARCA; CATAGUASES-PJ-01PJ 8.361,90 836,19 0,00 0,00 0,00 0,00 9.198,09 1.011,79 1.494,70 0,00 2.506,49 6.691,60 352,00 0,00 31/10/2012
299 183200 AURELIANO MAGELA DE REZENDE COORDENADOR/OFICIAL ATIVO BELO HORIZONTE - COMARCA; COORD DE GABINETE DO PGJ 0,00 1.841,09 9.205,45 0,00 0,00 0,00 11.046,54 775,92 2.067,89 0,00 2.843,81 8.202,73 352,00 0,00 31/10/2012
300 519400 BARBARA CRISTINA ALVES PINTO ZADOROSNY ANALISTA DO MP ATIVO BELO HORIZONTE - COMARCA; PROC. JUSTICA DIR. DIFUSOS E COLETIVOS-SEC 3.935,44 0,00 0,00 0,00 1.311,81 0,00 5.247,25 432,90 567,42 0,00 1.000,32 4.246,93 352,00 0,00 31/10/2012
301 436800 BARBARA ROCHA LADEIA COLEN OFICIAL DO MP ATIVO BELO HORIZONTE - COMARCA; ASSESS TECNICO-JUR JUNTO AS PROC. DE JUST 3.574,80 214,49 0,00 0,00 0,00 0,00 3.789,29 416,82 206,66 0,00 623,48 3.165,81 352,00 0,00 31/10/2012
302 316500 BEATRIZ ABILVIA DA SILVA ANALISTA DO MP ATIVO GOVERNADOR VALADARES - COMARCA; GOVERNADOR VALADARES-PJ-13PJ 7.595,56 759,56 0,00 0,00 0,00 0,00 8.355,12 919,06 1.288,39 0,00 2.207,45 6.147,67 352,00 0,00 31/10/2012
303 482800 BEATRIZ ANGELICA NACIF SADER ASSESSOR ATIVO BELO HORIZONTE - COMARCA; OUVIDORIA DO MPMG 0,00 0,00 5.598,22 0,00 0,00 0,00 5.598,22 430,78 664,52 0,00 1.095,30 4.502,92 352,00 0,00 31/10/2012
304 311800 BEATRIZ APARECIDA SOARES GANEM OFICIAL DO MP ATIVO ITAMBACURI - COMARCA; ITAMBACURI-PJ-02PJ 4.924,85 984,97 0,00 0,00 0,00 0,00 5.909,82 761,53 802,12 0,00 1.563,65 4.346,17 587,00 1.013,20 31/10/2012
305 266800 BEATRIZ AUGUSTA VILACA GOMES DA SILVA OFICIAL DO MP ATIVO BELO HORIZONTE - COMARCA; BH-05PJ-JUÍZO SUCESSÕES-SEC 4.332,50 433,25 0,00 0,00 0,00 0,00 4.765,75 524,23 409,89 0,00 934,12 3.831,63 352,00 0,00 31/10/2012
306 235200 BEATRIZ BOTELHO BATISTA OFICIAL DO MP ATIVO BELO HORIZONTE - COMARCA; EXTINTA-CGMP-DIV APOIO ADMINISTRATIVO 5.598,22 1.119,64 0,00 0,00 0,00 0,00 6.717,86 738,96 887,67 0,00 1.626,63 5.091,23 352,00 0,00 31/10/2012
307 113500 BEATRIZ DE LOURDES SOUZA ASSESSOR ATIVO BELO HORIZONTE - COMARCA; BH-02PJ FAMILIA-PROM DEC PAT 0,00 2.799,11 5.598,22 0,00 0,00 0,00 8.397,33 430,78 936,81 0,00 1.367,59 7.029,74 2.317,97 180,21 31/10/2012
308 182300 BEATRIZ PAULA SOUSA RAMOS OFICIAL DO MP ATIVO MARIANA - COMARCA; MARIANA-PJ-01PJ 6.471,28 1.941,38 0,00 0,00 0,00 0,00 8.412,66 1.036,44 1.459,05 0,00 2.495,49 5.917,17 352,00 1.009,54 31/10/2012
309 507000 BELCHIOR FRANKLIN AMARAL LEITE ANALISTA DO MP ATIVO BELO HORIZONTE - COMARCA; CENTRAL DE APOIO TECNICO 4.769,54 0,00 0,00 0,00 0,00 0,00 4.769,54 524,65 410,81 0,00 935,46 3.834,08 3.213,72 262,32 31/10/2012
310 478400 BENEDITO EVANGELISTA DANTAS ANALISTA DO MP ATIVO PARACATU - COMARCA; PARACATU-PJ-01PJ 3.935,44 0,00 0,00 0,00 0,00 0,00 3.935,44 432,90 119,85 0,00 552,75 3.382,69 352,00 0,00 31/10/2012
311 345100 BENITO ELIAS RODRIGUES ANALISTA DO MP ATIVO BARBACENA - COMARCA; BARBACENA-PJ-SECRETARIA 7.356,10 735,61 0,00 0,00 0,00 0,00 8.091,71 1.027,42 1.484,23 0,00 2.511,65 5.580,06 352,00 1.248,48 31/10/2012
312 207300 BENITO VIEIRA DOS SANTOS ANALISTA DO MP ATIVO BELO HORIZONTE - COMARCA; PROC JUST ESP ACOES COMP ORIG CRIMINAL-ASSESS 10.464,02 3.139,21 0,00 0,00 0,00 0,00 13.603,23 1.496,36 1.541,37 0,00 3.037,73 10.565,50 352,00 0,00 31/10/2012
313 120600 BERNADETE FIGUEIREDO SALVIANO OFICIAL DO MP ATIVO BELO HORIZONTE - COMARCA; AUDITORIA INTERNA 4.619,20 3.233,44 0,00 0,00 0,00 863,79 8.716,43 863,79 1.402,95 0,00 2.266,74 6.449,69 352,00 0,00 31/10/2012
314 480200 BERNADETE NUNES DOS SANTOS ANALISTA DO MP ATIVO GUANHÃES - COMARCA; GUANHAES-PJ-02PJ 4.924,85 0,00 0,00 0,00 0,00 0,00 4.924,85 541,73 448,83 0,00 990,56 3.934,29 352,00 0,00 31/10/2012
315 378400 BETANIA FARNESI DE SOUZA E SILVA OFICIAL DO MP ATIVO SETE LAGOAS - COMARCA; SETE LAGOAS-PJ-03PJ 3.935,44 787,09 0,00 0,00 0,00 0,00 4.722,53 519,48 356,51 0,00 875,99 3.846,54 587,00 0,00 31/10/2012
316 387400 BETANIA MENDONCA DE ASSIS ANALISTA DO MP ATIVO BELO HORIZONTE - COMARCA; BH-08PJ JUIZADO ESPECIAL-SECRETARIA 6.069,59 364,18 0,00 0,00 0,00 0,00 6.433,77 707,71 818,14 0,00 1.525,85 4.907,92 2.925,51 235,91 31/10/2012
317 450300 BIANCA OLIVEIRA DE ALBUQUERQUE ANALISTA DO MP ATIVO BELO HORIZONTE - COMARCA; BH-10PJ EXECUÇÃO PENAL-SECRETARIA 4.924,85 0,00 0,00 0,00 0,00 0,00 4.924,85 541,73 448,83 0,00 990,56 3.934,29 352,00 0,00 31/10/2012
318 120800 BRAS MARQUES DE SOUZA DIRETOR/ANALISTA ATIVO BELO HORIZONTE - COMARCA; EXTINTA - SUPERINTENDENCIA ADMINISTRATIVA-SAD 16.277,88 14.496,73 0,00 0,00 0,00 0,00 30.774,61 2.652,94 5.010,50 6.656,99 14.320,43 16.454,18 587,00 0,00 31/10/2012
319 460900 BRENO CRISTIANO DE SOUZA REZENDE ANALISTA DO MP ATIVO ITAÚNA - COMARCA; ITAUNA-PJ-02PJ 4.063,61 0,00 0,00 0,00 0,00 0,00 4.063,61 447,00 261,59 0,00 708,59 3.355,02 352,00 0,00 31/10/2012
320 239000 BRENO VENANCIO ROMANINI OFICIAL DO MP ATIVO BELO HORIZONTE - COMARCA; BH-20PJ ORD ECON TRIBUTARIA-SECRETARIA 4.619,20 923,84 0,00 0,00 0,00 0,00 5.543,04 609,73 600,13 0,00 1.209,86 4.333,18 352,00 0,00 31/10/2012
321 202200 BRIGITTE AMARALINA CALDAS MEDEIROS OFICIAL DO MP ATIVO NANUQUE - COMARCA; NANUQUE-PJ-02PJ 5.878,19 1.763,46 0,00 0,00 0,00 0,00 7.641,65 840,58 1.068,51 0,00 1.909,09 5.732,56 587,00 0,00 31/10/2012
322 513600 BRUNA KARLA MARTINS CARVALHO ANALISTA DO MP ATIVO GOVERNADOR VALADARES - COMARCA; GOVERNADOR VALADARES-PJ-01PJ 3.935,44 0,00 0,00 0,00 0,00 0,00 3.935,44 432,90 235,92 0,00 668,82 3.266,62 352,00 0,00 31/10/2012
323 415100 BRUNA MARIA SOARES OLIVEIRA COSTA RAMOS ANALISTA DO MP ATIVO UBÁ - COMARCA; COORD REG BACIA DO RIO PARAIBA DO SUL 5.598,22 335,89 0,00 0,00 0,00 0,00 5.934,11 652,75 695,84 0,00 1.348,59 4.585,52 352,00 0,00 31/10/2012
324 470000 BRUNA MORAES MARQUES ANALISTA DO MP ATIVO TOMBOS - COMARCA; TOMBOS-PJ-UNPJ 4.924,85 0,00 0,00 0,00 0,00 0,00 4.924,85 541,73 448,83 0,00 990,56 3.934,29 352,00 0,00 31/10/2012
325 463800 BRUNO ALVES TEIXEIRA ANALISTA DO MP ATIVO UBERLÂNDIA - COMARCA; UBERLANDIA-PJ-04PJ 4.924,85 0,00 0,00 0,00 0,00 0,00 4.924,85 541,73 448,83 0,00 990,56 3.934,29 352,00 0,00 31/10/2012
326 318200 BRUNO BARROS DE SOUZA OFICIAL DO MP ATIVO UBÁ - COMARCA; UBA-PJ-04PJ 4.619,20 461,92 0,00 0,00 0,00 0,00 5.081,12 558,92 301,92 0,00 860,84 4.220,28 587,00 0,00 31/10/2012
327 459600 BRUNO CASTELAR LUGAO MENDES OFICIAL DO MP ATIVO GOVERNADOR VALADARES - COMARCA; GOVERNADOR VALADARES-PJ-SECRETARIA 3.196,81 0,00 0,00 0,00 0,00 0,00 3.196,81 351,65 119,97 0,00 471,62 2.725,19 352,00 0,00 31/10/2012
328 427400 BRUNO CESAR RIBEIRO DE PAIVA ANALISTA DO MP ATIVO BELO HORIZONTE - COMARCA; ASSESS JUR DO CONS SUPERIOR DO MINISTERIO PUB 5.598,22 335,89 0,00 0,00 0,00 0,00 5.934,11 652,75 695,84 0,00 1.348,59 4.585,52 352,00 0,00 31/10/2012
329 490200 BRUNO CESARINO SOARES ANALISTA DO MP ATIVO BELO HORIZONTE - COMARCA; CENTRAL DE APOIO TECNICO-SETOR DE ENGENHARIA 4.924,85 0,00 0,00 0,00 0,00 0,00 4.924,85 541,73 448,83 0,00 990,56 3.934,29 352,00 0,00 31/10/2012
330 380900 BRUNO CIRILO ANTUNES OFICIAL DO MP ATIVO VARGINHA - COMARCA; VARGINHA-PJ-05PJ 3.300,91 198,05 0,00 0,00 0,00 0,00 3.498,96 384,89 160,31 0,00 545,20 2.953,76 352,00 0,00 31/10/2012
331 329000 BRUNO DE MELO REIS ANALISTA DO MP ATIVO PATROCÍNIO - COMARCA; PATROCINIO-PJ-02PJ 7.356,10 1.471,22 0,00 0,00 0,00 0,00 8.827,32 971,01 1.403,96 0,00 2.374,97 6.452,35 352,00 0,00 31/10/2012
332 378300 BRUNO HERDY LOPES DE OLIVEIRA ANALISTA DO MP ATIVO MANTENA - COMARCA; MANTENA-PJ-SECRETARIA 6.069,59 364,18 0,00 0,00 0,00 0,00 6.433,77 707,71 818,14 0,00 1.525,85 4.907,92 352,00 0,00 31/10/2012
333 350100 BRUNO LAUD SERRANO DOS REIS OFICIAL DO MP ATIVO UBÁ - COMARCA; UBA-PJ-04PJ 4.063,61 406,36 0,00 0,00 0,00 0,00 4.469,97 491,70 268,91 0,00 760,61 3.709,36 507,00 0,00 31/10/2012
334 373800 BRUNO MARTINO DE ALBUQUERQUE ANALISTA DO MP ATIVO PONTE NOVA - COMARCA; PONTE NOVA-PJ-SECRETARIA 6.069,59 364,18 0,00 0,00 0,00 0,00 6.433,77 804,76 943,56 0,00 1.748,32 4.685,45 587,00 882,24 31/10/2012
335 470400 BRUNO NOVAIS CABRAL ANALISTA DO MP ATIVO RESPLENDOR - COMARCA; RESPLENDOR-PJ-UNPJ 4.924,85 0,00 0,00 0,00 0,00 0,00 4.924,85 541,73 448,83 0,00 990,56 3.934,29 352,00 0,00 31/10/2012
336 369200 BRUNO ROBERTO DIAS DE OLIVEIRA OFICIAL DO MP ATIVO BELO HORIZONTE - COMARCA; BH-23PJ CIVEL-SETOR JURIDICO 4.473,58 447,36 0,00 0,00 0,00 0,00 4.920,94 541,30 447,87 0,00 989,17 3.931,77 352,00 0,00 31/10/2012
337 438200 BRUNO SALES PEREIRA ANALISTA DO MP ATIVO BELO HORIZONTE - COMARCA; CENTRAL DE APOIO TECNICO-SETOR CONTABIL 5.598,22 335,89 0,00 0,00 0,00 0,00 5.934,11 768,66 953,74 0,00 1.722,40 4.211,71 352,00 1.053,70 31/10/2012
338 405800 CAIO FERNANDO RODRIGUES DE OLIVEIRA ANALISTA DO MP ATIVO BELO HORIZONTE - COMARCA; ASSESS TECNICO-JUR JUNTO AS PROC. DE JUST 6.069,59 364,18 0,00 0,00 0,00 0,00 6.433,77 793,82 1.009,72 0,00 1.803,54 4.630,23 352,00 782,79 31/10/2012
339 491400 CAIO MIRANDA JUNQUEIRA ANALISTA DO MP ATIVO BUENO BRANDAO - COMARCA; BUENO BRANDAO-PJ-UNPJ 4.473,58 0,00 0,00 0,00 0,00 0,00 4.473,58 492,09 343,69 0,00 835,78 3.637,80 3.802,68 241,18 31/10/2012
340 415800 CAMILA ALVES DA SILVA ANALISTA DO MP ATIVO CAETÉ - COMARCA; CAETE-PJ-01PJ 5.598,22 335,89 0,00 0,00 0,00 0,00 5.934,11 652,75 695,84 0,00 1.348,59 4.585,52 352,00 0,00 31/10/2012
341 445200 CAMILA CONDE ROCHA ANALISTA DO MP ATIVO CONTAGEM - COMARCA; CONTAGEM-PJ-10PJ 5.421,69 0,00 0,00 0,00 1.807,23 0,00 7.228,92 596,39 1.067,42 0,00 1.663,81 5.565,11 352,00 0,00 31/10/2012
342 419900 CAMILA CUNNINGHAM PIMENTA DE PADUA ANALISTA DO MP ATIVO BELO HORIZONTE - COMARCA; ASSESSORIA PSICOSSOCIAL 5.598,22 335,89 0,00 0,00 0,00 0,00 5.934,11 652,75 695,84 0,00 1.348,59 4.585,52 352,00 0,00 31/10/2012
343 507700 CAMILA ELIZABETH RODRIGUES ANALISTA DO MP ATIVO BELO HORIZONTE - COMARCA; BH-02PJ FAMILIA 4.769,54 0,00 0,00 0,00 0,00 0,00 4.769,54 590,35 557,00 0,00 1.147,35 3.622,19 352,00 597,29 31/10/2012
344 372700 CAMILA FONSECA LIMONGE ANALISTA DO MP ATIVO BETIM - COMARCA; BETIM-PJ-01PJ 6.069,59 364,18 0,00 0,00 0,00 0,00 6.433,77 707,71 818,14 0,00 1.525,85 4.907,92 352,00 0,00 31/10/2012
345 409800 CAMILA GONCALVES COSTA RIBEIRO ANALISTA DO MP ATIVO INHAPIM - COMARCA; INHAPIM-PJ-02PJ 5.598,22 335,89 0,00 0,00 0,00 0,00 5.934,11 652,75 695,84 0,00 1.348,59 4.585,52 352,00 0,00 31/10/2012
346 335000 CAMILA GONTIJO DE PAIVA ANALISTA DO MP ATIVO BELO HORIZONTE - COMARCA; COORD DE CONTROLE CONSTITUCIONALIDADE 6.471,28 647,13 0,00 0,00 0,00 0,00 7.118,41 783,03 940,45 0,00 1.723,48 5.394,93 3.567,68 294,77 31/10/2012
347 430000 CANDIDA MARINA COSTA ANALISTA DO MP ATIVO BELO HORIZONTE - COMARCA; DIVISAO DE DOCUMENTACAO JURIDICA 5.598,22 335,89 0,00 0,00 0,00 0,00 5.934,11 652,75 695,84 0,00 1.348,59 4.585,52 352,00 0,00 31/10/2012
348 380400 CARINA DIAS FACANHA DE SOUZA ANALISTA DO MP ATIVO SANTA RITA DO SAPUCAÍ - COMARCA; SANTA RITA DO SAPUCAI-PJ-SECRETARIA 5.598,22 335,89 0,00 0,00 0,00 0,00 5.934,11 652,75 695,84 0,00 1.348,59 4.585,52 3.567,68 294,77 31/10/2012
349 255000 CARLA ADRIANA DE MENEZES ASSESSOR/OFICIAL ATIVO BELO HORIZONTE - COMARCA; CENT DE APOIO TEC-SETOR DEF,IDOSO E INFANC 0,00 1.119,64 5.598,22 0,00 0,00 0,00 6.717,86 732,83 1.043,30 0,00 1.776,13 4.941,73 352,00 559,82 31/10/2012
350 425100 CARLA ADRIANA DINIZ AMARAL OFICIAL DO MP ATIVO CONTAGEM - COMARCA; CONTAGEM-PJ-08PJ 3.574,80 214,49 0,00 0,00 0,00 0,00 3.789,29 416,82 206,66 0,00 623,48 3.165,81 352,00 0,00 31/10/2012
351 508100 CARLA ALESSANDRA FONSECA ANALISTA DO MP ATIVO BELO HORIZONTE - COMARCA; CAO-ORDEM ECONOMICA E TRIBUTARIA-SECRETARIA 4.769,54 0,00 0,00 0,00 0,00 0,00 4.769,54 596,76 571,26 0,00 1.168,02 3.601,52 352,00 655,56 31/10/2012
352 351500 CARLA APARECIDA MENDES RAMIRIO OFICIAL DO MP ATIVO PASSOS - COMARCA; PASSOS-PJ-07PJ 4.332,50 433,25 0,00 0,00 0,00 0,00 4.765,75 524,23 365,17 0,00 889,40 3.876,35 587,00 0,00 31/10/2012
353 206200 CARLA BORGES DA COSTA COORDENADOR/ANALISTA ATIVO BELO HORIZONTE - COMARCA; DIVIS DE PROJETOS DE ENGENHARIA E ARQUITETURA 10.464,02 5.805,25 0,00 0,00 0,00 0,00 16.269,27 1.631,76 3.325,12 0,00 4.956,88 11.312,39 352,00 204,84 31/10/2012
354 442800 CARLA GONCALVES COSTA SOALHEIRO ANALISTA DO MP ATIVO GOVERNADOR VALADARES - COMARCA; GOVERNADOR VALADARES-PJ-11PJ 5.421,69 0,00 0,00 0,00 0,00 0,00 5.421,69 596,39 570,43 0,00 1.166,82 4.254,87 587,00 0,00 31/10/2012
355 321500 CARLA GONCALVES MASSOTE OFICIAL DO MP ATIVO CAMPO BELO - COMARCA; CAMPO BELO-PJ-01PJ 4.619,20 461,92 0,00 0,00 0,00 0,00 5.081,12 558,92 487,08 0,00 1.046,00 4.035,12 352,00 0,00 31/10/2012
356 429200 CARLA HAUTEQUESTT BECHARA ANALISTA DO MP ATIVO BELO HORIZONTE - COMARCA; DIVISAO DE DOCUMENTACAO JURIDICA 5.598,22 335,89 0,00 0,00 0,00 0,00 5.934,11 652,75 695,84 0,00 1.348,59 4.585,52 352,00 0,00 31/10/2012
357 247500 CARLA MATILDE GUIMARAES DE OLIVEIRA OFICIAL DO MP ATIVO ITAJUBA - COMARCA; ITAJUBA-PJ-03PJ 4.924,85 984,97 0,00 0,00 0,00 0,00 5.909,82 650,08 689,90 0,00 1.339,98 4.569,84 352,00 0,00 31/10/2012
358 226100 CARLA MERLI DA CONCEICAO ANALISTA DO MP ATIVO BELO HORIZONTE - COMARCA; CENTRAL DE APOIO TECNICO-SETOR CONTABIL 9.505,17 1.901,03 0,00 0,00 0,00 0,00 11.406,20 1.254,68 1.989,88 0,00 3.244,56 8.161,64 352,00 0,00 31/10/2012
359 330400 CARLA SILVEIRA CASTEJON PINHEIRO OFICIAL DO MP ATIVO PATOS DE MINAS - COMARCA; PATOS DE MINAS-PJ-06PJ 4.769,54 476,95 0,00 0,00 1.748,83 0,00 6.995,32 577,11 1.008,48 0,00 1.585,59 5.409,73 587,00 0,00 31/10/2012
360 181401 CARLO MICHEL GAUDENSI COELHO ANALISTA DO MP ATIVO IBIRITÉ - COMARCA; IBIRITE-PJ-01PJ 5.598,22 1.119,64 0,00 0,00 0,00 0,00 6.717,86 738,96 887,67 0,00 1.626,63 5.091,23 352,00 0,00 31/10/2012
361 462800 CARLOS ANDREI SOARES FAGUNDES ANALISTA DO MP ATIVO MONTES CLAROS - COMARCA; MONTES CLAROS-PJ-09PJ 4.924,85 0,00 0,00 0,00 0,00 0,00 4.924,85 541,73 448,83 0,00 990,56 3.934,29 352,00 0,00 31/10/2012
362 370300 CARLOS AUGUSTO BUENO DIAS ASSESSOR ATIVO BELO HORIZONTE - COMARCA; DIRETORIA DE FISCALIZACAO DE OBRAS 0,00 0,00 7.124,13 0,00 0,00 0,00 7.124,13 430,78 496,40 0,00 927,18 6.196,95 352,00 0,00 31/10/2012
363 505100 CARLOS CEZAR CARVALHO ANALISTA DO MP ATIVO RIBEIRÃO DAS NEVES - COMARCA; RIBEIRAO DAS NEVES-PJ-SEC CIVEL 4.063,61 812,72 0,00 0,00 0,00 0,00 4.876,33 564,04 498,46 0,00 1.062,50 3.813,83 352,00 251,31 31/10/2012
364 195900 CARLOS DE SOUZA FERREIRA OFICIAL DO MP ATIVO COROMANDEL - COMARCA; COROMANDEL-PJ-01PJ 5.421,69 2.710,85 0,00 0,00 0,00 0,00 8.132,54 894,58 1.143,40 0,00 2.037,98 6.094,56 352,00 0,00 31/10/2012
365 196800 CARLOS EDUARDO DE OLIVEIRA MARINHO OFICIAL DO MP ATIVO PASSOS - COMARCA; PASSOS-PJ-SECRETARIA 7.124,13 2.849,65 0,00 0,00 0,00 0,00 9.973,78 1.097,12 1.639,30 0,00 2.736,42 7.237,36 587,00 0,00 31/10/2012
366 491800 CARLOS EDUARDO ROMAN OFICIAL DO MP ATIVO BARBACENA - COMARCA; BARBACENA-PJ-01PJ 3.196,81 319,68 0,00 0,00 0,00 0,00 3.516,49 400,08 178,75 0,00 578,83 2.937,66 352,00 120,56 31/10/2012
367 299300 CARLOS HENRIQUE BICALHO ANALISTA DO MP ATIVO BELO HORIZONTE - COMARCA; BH-17PJ PATRIMONIO PUBLICO-SECRETARIA 7.595,56 1.519,11 0,00 0,00 0,00 0,00 9.114,67 1.002,61 1.474,29 0,00 2.476,90 6.637,77 352,00 0,00 31/10/2012
368 205100 CARLOS HENRIQUE ESTEVES OFICIAL DO MP ATIVO ITAMBACURI - COMARCA; ITAMBACURI-PJ-01PJ 7.356,10 1.471,22 0,00 0,00 0,00 0,00 8.827,32 1.154,10 1.811,35 0,00 2.965,45 5.861,87 352,00 1.664,52 31/10/2012
369 351600 CARLOS HENRIQUE FELICIO DA FONSECA OFICIAL DO MP ATIVO LIMA DUARTE - COMARCA; LIMA DUARTE-PJ-UNPJ 4.063,61 812,72 0,00 0,00 0,00 0,00 4.876,33 536,40 436,95 0,00 973,35 3.902,98 352,00 0,00 31/10/2012
370 85400 CARLOS JOSE VIEIRA OFICIAL DO MP ATIVO BELO HORIZONTE - COMARCA; DIR EXECUTIVA DO CONS SUPERIOR DO MP 16.277,88 8.138,94 0,00 0,00 0,00 0,00 24.416,82 2.652,94 5.146,26 299,20 8.098,40 16.318,42 352,00 0,00 31/10/2012
371 229100 CARLOS MERCES DE OLIVEIRA ANALISTA DO MP ATIVO BELO HORIZONTE - COMARCA; CENTRAL DE APOIO TECN-SETOR DE MEIO AMBIENTE 8.915,18 1.783,04 0,00 0,00 0,00 0,00 10.698,22 1.176,80 1.347,90 0,00 2.524,70 8.173,52 352,00 0,00 31/10/2012
372 265100 CARLOS REIFF MIRANDA ANALISTA DO MP ATIVO BELO HORIZONTE - COMARCA; BH-19PJ SAUDE-ASS TECNICA 7.595,56 759,56 0,00 0,00 0,00 0,00 8.355,12 919,06 1.288,39 0,00 2.207,45 6.147,67 352,00 0,00 31/10/2012
373 305400 CARLOS ROCHA DE SOUZA OFICIAL DO MP ATIVO MONTALVÂNIA - COMARCA; MONTALVANIA-PJ-SECRETARIA 4.195,87 419,59 0,00 0,00 0,00 0,00 4.615,46 507,70 373,10 0,00 880,80 3.734,66 677,50 0,00 31/10/2012
374 349200 CARLOS WAGNER MELO FRANCO OFICIAL DO MP ATIVO PITANGUI - COMARCA; PITANGUI-PJ-01PJ 3.408,38 204,50 0,00 0,00 0,00 0,00 3.612,88 397,42 150,84 0,00 548,26 3.064,62 587,00 0,00 31/10/2012
375 365100 CARLOS WAGNER SANDER MORAIS ASSESSOR/OFICIAL ATIVO BELO HORIZONTE - COMARCA; DIRETORIA DE ADMINISTRACAO FINANCEIRA 0,00 712,41 7.124,13 0,00 0,00 0,00 7.836,54 515,07 1.256,87 0,00 1.771,94 6.064,60 352,00 0,00 31/10/2012
376 399900 CARMELITA EVANGELISTA DE SOUZA OFICIAL DO MP ATIVO JOÃO PINHEIRO - COMARCA; JOAO PINHEIRO-PJ-01PJ 3.300,91 198,05 0,00 0,00 0,00 0,00 3.498,96 384,89 160,31 0,00 545,20 2.953,76 352,00 0,00 31/10/2012
377 390400 CARMEM APARECIDA ANTUNES RESENDE OFICIAL DO MP ATIVO IGARAPÉ - COMARCA; IGARAPE-PJ-SECRETARIA 3.935,44 3.148,35 0,00 0,00 0,00 0,00 7.083,79 779,22 977,23 0,00 1.756,45 5.327,34 352,00 0,00 31/10/2012
378 202000 CARMEN LUCIA MARIZ DE MACEDO OFICIAL DO MP ATIVO BELO HORIZONTE - COMARCA; COORD COMB REPRES TRAFICO ILICITO ENTORPECEN 7.124,13 2.849,65 0,00 0,00 0,00 0,00 9.973,78 1.567,31 2.730,74 0,00 4.298,05 5.675,73 3.567,68 4.569,27 31/10/2012
379 228500 CAROLINA CHIARELLA DOS SANTOS RIBEIRO OFICIAL DO MP ATIVO BELO HORIZONTE - COMARCA; BH-13ª PJ JUÍXO DE TÓXICOS 3.811,39 762,28 0,00 0,00 0,00 0,00 4.573,67 503,10 326,70 0,00 829,80 3.743,87 822,00 0,00 31/10/2012
380 446500 CAROLINA COSTA VAL RODRIGUES ANALISTA DO MP ATIVO CONTAGEM - COMARCA; CONTAGEM-PJ-05PJ 5.421,69 542,17 0,00 0,00 0,00 0,00 5.963,86 656,02 703,13 0,00 1.359,15 4.604,71 352,00 0,00 31/10/2012
381 404300 CAROLINA DOS SANTOS VIEIRA ANALISTA DO MP ATIVO BELO HORIZONTE - COMARCA; BH-08PJ JUIZADO ESPECIAL-SECRETARIA 6.069,59 364,18 0,00 0,00 0,00 0,00 6.433,77 817,64 1.062,71 0,00 1.880,35 4.553,42 822,00 999,30 31/10/2012
382 426600 CAROLINA GUEDES PEREIRA ANALISTA DO MP ATIVO BELO HORIZONTE - COMARCA; ASSESS JUR DO CONS SUPERIOR DO MINISTERIO PUB 5.598,22 335,89 0,00 0,00 0,00 0,00 5.934,11 652,75 695,84 0,00 1.348,59 4.585,52 352,00 0,00 31/10/2012
383 382200 CAROLINA MENDES CHAVES LIN ANALISTA DO MP ATIVO BELO HORIZONTE - COMARCA; SUPERINTENDENCIA GESTÃO DE PESSOAS 5.085,23 305,11 0,00 0,00 0,00 0,00 5.390,34 592,94 562,76 0,00 1.155,70 4.234,64 0,00 0,00 31/10/2012
384 461900 CAROLINA MURTA TEIXEIRA DIAS ANALISTA DO MP ATIVO BELO HORIZONTE - COMARCA; SUPRIN DE FORMACAO E APERFEICOAMENTO-SFA/CEAF 4.924,85 0,00 0,00 0,00 0,00 0,00 4.924,85 665,83 724,95 0,00 1.390,78 3.534,07 352,00 1.128,18 31/10/2012
385 509600 CAROLINA PINTO DE OLIVEIRA SOUZA ANALISTA DO MP ATIVO MURIAÉ - COMARCA; MURIAE-PJ-03PJ 4.332,50 0,00 0,00 0,00 0,00 0,00 4.332,50 476,58 315,43 0,00 792,01 3.540,49 587,00 0,00 31/10/2012
386 502600 CAROLINA RODRIGUES RUBEN ANALISTA DO MP ATIVO BELO HORIZONTE - COMARCA; BH-18PJ VIOLENCIA DOMESTICA-SECRETARIA 4.473,58 0,00 0,00 0,00 0,00 0,00 4.473,58 511,23 393,90 0,00 905,13 3.568,45 408,43 225,26 31/10/2012
387 517600 CAROLINE ALVES DE OLIVEIRA MULLER ANALISTA DO MP ATIVO ERVÁLIA - COMARCA; ERVALIA-PJ-SECRETARIA 4.769,54 0,00 0,00 0,00 0,00 0,00 4.769,54 524,65 410,81 0,00 935,46 3.834,08 587,00 0,00 31/10/2012
388 373200 CAROLINE ANTUNES RIBEIRO OFICIAL DO MP ATIVO JACUI - COMARCA; JACUI-PJ-UNPJ 4.332,50 259,95 0,00 0,00 0,00 0,00 4.592,45 505,17 367,49 0,00 872,66 3.719,79 587,00 0,00 31/10/2012
389 497800 CAROLINE BATISTA MARTINS OFICIAL DO MP ATIVO RIBEIRÃO DAS NEVES - COMARCA; RIBEIRAO DAS NEVES-PJ-04PJ 3.196,81 0,00 0,00 0,00 0,00 0,00 3.196,81 351,65 119,97 0,00 471,62 2.725,19 2.270,09 95,90 31/10/2012
390 499400 CAROLINE MARQUES DE LOURDES MARZULLO OFICIAL DO MP ATIVO JUIZ DE FORA - COMARCA; JUIZ DE FORA-PJ-20PJ 2.903,86 0,00 0,00 0,00 0,00 0,00 2.903,86 338,23 108,27 0,00 446,50 2.457,36 352,00 201,50 31/10/2012
391 268800 CASSIA BEATRIZ TEIXEIRA OFICIAL DO MP ATIVO BELO HORIZONTE - COMARCA; PROC JUST ESP ACOES COMP ORIG CRIMINAL-SEC 5.085,23 508,52 0,00 0,00 0,00 0,00 5.593,75 615,31 612,54 0,00 1.227,85 4.365,90 3.567,68 294,77 31/10/2012
392 500000 CASSIA DE OLIVEIRA COSTA VIANA ANALISTA DO MP ATIVO SETE LAGOAS - COMARCA; SETE LAGOAS-PJ-01PJ 4.924,85 0,00 0,00 0,00 0,00 0,00 4.924,85 541,73 448,83 0,00 990,56 3.934,29 352,00 0,00 31/10/2012
393 368800 CASSIA LUISA BATISTA MENDONCA WEBER OFICIAL DO MP ATIVO BELO HORIZONTE - COMARCA; PROCON-MG-SEC DE EDUCACAO PARA O CONSUMO 3.691,17 369,12 0,00 0,00 0,00 0,00 4.060,29 446,63 260,92 0,00 707,55 3.352,74 587,00 0,00 31/10/2012
394 121000 CASSIO HENRIQUE AFONSO DA SILVA COORDENADOR/OFICIAL ATIVO BELO HORIZONTE - COMARCA; DIVISAO DE ATENDIMENTO E CONSULTA JURIDICA 8.361,90 6.124,52 0,00 0,00 0,00 0,00 14.486,42 1.379,71 2.757,31 0,00 4.137,02 10.349,40 822,00 0,00 31/10/2012
395 121100 CASSIO MOREIRA DE MIRANDA AGENTE DO MP ATIVO BELO HORIZONTE - COMARCA; PROCON-MG-SECRETARIA DE FISCALIZACOES 2.998,37 2.098,86 0,00 0,00 0,00 0,00 5.097,23 560,70 61,01 0,00 621,71 4.475,52 352,00 0,00 31/10/2012
396 512000 CATARINA NATALINO CALIXTO OFICIAL DO MP ATIVO BELO HORIZONTE - COMARCA; EXTINTA - DIVISÃO DE COMPRAS 2.554,55 0,00 0,00 0,00 0,00 0,00 2.554,55 281,00 47,74 0,00 328,74 2.225,81 352,00 0,00 31/10/2012
397 71800 CATIA EFIGENIA CARNEIRO DE FREITAS OFICIAL DO MP ATIVO BELO HORIZONTE - COMARCA; ASSESSORIA JURIDICO-ADMINISTRATIVA 18.757,35 13.130,16 0,00 0,00 0,00 0,00 31.887,51 2.652,94 5.101,00 7.769,89 15.523,83 16.363,68 352,00 0,00 31/10/2012
398 261300 CECILIO ANTONIO CAMPOS DOS REIS ANALISTA DO MP ATIVO BELO HORIZONTE - COMARCA; CENTRAL DE APOIO TECNICO-SETOR CONTABIL 8.361,90 1.672,38 0,00 0,00 0,00 0,00 10.034,28 1.232,03 2.020,02 0,00 3.252,05 6.782,23 352,00 1.294,28 31/10/2012
399 386400 CEFAS AMORELI DE FIGUEIREDO OFICIAL DO MP ATIVO CABO VERDE - COMARCA; CABO VERDE-PJ-SECRETARIA 3.300,91 198,05 0,00 0,00 0,00 0,00 3.498,96 384,89 160,31 0,00 545,20 2.953,76 352,00 0,00 31/10/2012
400 149000 CELIA MAGALHAES CLAROS SOSSI OFICIAL DO MP ATIVO GOVERNADOR VALADARES - COMARCA; GOVERNADOR VALADARES-PJ-01PJ 7.595,56 3.038,23 0,00 0,00 0,00 0,00 10.633,79 1.169,72 1.846,09 0,00 3.015,81 7.617,98 352,00 0,00 31/10/2012
401 113100 CELIA MARIA ALVES PINTO OFICIAL DO MP ATIVO BELO HORIZONTE - COMARCA; PROCON-MG-SEC DE EDUCACAO PARA O CONSUMO 5.598,22 3.918,76 0,00 0,00 0,00 0,00 9.516,98 1.286,69 2.106,36 0,00 3.393,05 6.123,93 352,00 2.180,23 31/10/2012
402 421000 CELINA BENEDITA DE SOUZA ALMEIDA OFICIAL DO MP ATIVO CAMBUÍ - COMARCA; CAMBUI-PJ-01PJ 3.574,80 1.429,92 0,00 0,00 0,00 0,00 5.004,72 550,52 423,12 0,00 973,64 4.031,08 352,00 0,00 31/10/2012
403 252900 CELIO DE MELO CASTOR ANALISTA DO MP ATIVO BELO HORIZONTE - COMARCA; BH-20PJ ORD ECON TRIBUTARIA-SECRETARIA 8.361,90 1.672,38 0,00 0,00 0,00 0,00 10.034,28 1.195,75 1.858,76 0,00 3.054,51 6.979,77 352,00 836,19 31/10/2012
404 395700 CELIO FERREIRA LIMA OFICIAL DO MP ATIVO CONTAGEM - COMARCA; CONTAGEM-PJ-07PJ 3.574,80 214,49 0,00 0,00 0,00 0,00 3.789,29 458,34 245,21 0,00 703,55 3.085,74 2.102,72 453,21 31/10/2012
405 281300 CELMA REGINA PEREIRA SANTOS ANALISTA DO MP ATIVO BELO HORIZONTE - COMARCA; DIVISAO DE ACERVOS BIBLIOGRAFICOS 8.361,90 836,19 0,00 0,00 0,00 0,00 9.198,09 1.011,79 1.494,70 0,00 2.506,49 6.691,60 352,00 0,00 31/10/2012
406 367000 CESAR NARVAES DE AVELAR OFICIAL DO MP ATIVO BELO HORIZONTE - COMARCA; DIVISAO DE MEMORIA INSTITUCIONAL 4.473,58 447,36 0,00 0,00 0,00 0,00 4.920,94 541,30 447,87 0,00 989,17 3.931,77 352,00 0,00 31/10/2012
407 226500 CESAR SILVEIRA BARROUIN OFICIAL DO MP ATIVO BELO HORIZONTE - COMARCA; DIRETORIA DE ADMINISTRACAO FINANCEIRA 5.421,69 1.084,34 0,00 0,00 0,00 0,00 6.506,03 715,66 835,82 0,00 1.551,48 4.954,55 352,00 0,00 31/10/2012
408 121400 CEZAR MORENO CONCEICAO TAVARES OFICIAL DO MP ATIVO BELO HORIZONTE - COMARCA; BH-15PJ M AMB 16PJ HAB URB-SECRETARIA 7.356,10 3.678,05 0,00 0,00 0,00 0,00 11.034,15 1.213,76 1.944,08 0,00 3.157,84 7.876,31 352,00 0,00 31/10/2012
409 243800 CHARLES MARTINS MUNIZ OFICIAL DO MP ATIVO BELO HORIZONTE - COMARCA; GAECO - SECRETARIA 4.924,85 984,97 0,00 0,00 0,00 0,00 5.909,82 650,08 689,90 0,00 1.339,98 4.569,84 352,00 0,00 31/10/2012
410 193500 CHARLIN CESAR KOURLY OFICIAL DO MP ATIVO ITUIUTABA - COMARCA; ITUIUTABA-PJ-SECRETARIA 7.124,13 1.424,83 0,00 0,00 0,00 0,00 8.548,96 940,39 1.335,83 0,00 2.276,22 6.272,74 352,00 0,00 31/10/2012
411 385500 CHILLEN PEIXOTO DE MOURA OFICIAL DO MP ATIVO RIBEIRÃO DAS NEVES - COMARCA; RIBEIRAO DAS NEVES-PJ-SEC CIVEL 3.300,91 198,05 0,00 0,00 0,00 0,00 3.498,96 384,89 160,31 0,00 545,20 2.953,76 352,00 0,00 31/10/2012
412 370600 CHRISTIAN KARINE FELIX PRATES ASSESSOR ATIVO BELO HORIZONTE - COMARCA; PROCURADOR-GERAL DE JUSTICA- GABINETE 0,00 0,00 5.598,22 0,00 0,00 0,00 5.598,22 430,78 475,00 0,00 905,78 4.692,44 1.449,52 879,83 31/10/2012
413 435800 CHRISTIANA BAHIA ANDRADE PINA ANALISTA DO MP ATIVO BELO HORIZONTE - COMARCA; CAO-ORDEM ECONOMICA E TRIBUTARIA 5.598,22 335,89 0,00 0,00 0,00 0,00 5.934,11 652,75 695,84 0,00 1.348,59 4.585,52 587,00 0,00 31/10/2012
414 516800 CHRISTIANE FERREIRA DO NASCIMENTO ANALISTA DO MP ATIVO ESTRELA DO SUL - COMARCA; ESTRELA DO SUL-PJ-UNPJ 3.935,44 0,00 0,00 0,00 0,00 0,00 3.935,44 432,90 235,92 0,00 668,82 3.266,62 352,00 0,00 31/10/2012
415 176000 CHRISTIANE JUNQUEIRA PULITI ANDRADE DE BARROS ASSESSOR ATIVO BELO HORIZONTE - COMARCA; CENTRO DE ESTUDOS E APERFEICOAMENTO FUNCIONAL 0,00 4.602,73 9.205,45 0,00 0,00 0,00 13.808,18 1.518,90 2.577,77 0,00 4.096,67 9.711,51 352,00 0,00 31/10/2012
416 319200 CHRISTIANE MARIA DE ASSIS RUSSO OFICIAL DO MP ATIVO BELO HORIZONTE - COMARCA; CAO-ORDEM ECONOMICA E TRIBUTARIA-SECRETARIA 4.619,20 461,92 0,00 0,00 0,00 0,00 5.081,12 558,92 487,08 0,00 1.046,00 4.035,12 587,00 0,00 31/10/2012
417 510300 CHRISTIANE MARY DE CARVALHO FERREIRA ANALISTA DO MP ATIVO BELO HORIZONTE - COMARCA; DIRETORIA DE SISTEMAS DE INFORMACAO 3.935,44 0,00 0,00 0,00 0,00 0,00 3.935,44 432,90 235,92 0,00 668,82 3.266,62 587,00 0,00 31/10/2012
418 424900 CHRISTIANE PEREIRA TURNER DE ARAUJO OFICIAL DO MP ATIVO BELO HORIZONTE - COMARCA; CAO-PATRIMONIO PUBLICO 3.574,80 214,49 0,00 0,00 0,00 0,00 3.789,29 492,40 344,25 0,00 836,65 2.952,64 352,00 687,10 31/10/2012
419 513700 CHRISTIANE VIEIRA SOARES PEDERSOLI ANALISTA DO MP ATIVO BELO HORIZONTE - COMARCA; EXTINTA - SECRETARIA ADMINISTRATIVA 4.769,54 0,00 0,00 0,00 0,00 0,00 4.769,54 524,65 410,81 0,00 935,46 3.834,08 352,00 0,00 31/10/2012
420 412300 CHRYSTIAN MACHADO RIBEIRO ANALISTA DO MP ATIVO VARGINHA - COMARCA; VARGINHA-PJ-04PJ 5.598,22 335,89 0,00 0,00 0,00 0,00 5.934,11 652,75 695,84 0,00 1.348,59 4.585,52 352,00 0,00 31/10/2012
421 513800 CHRYSTIANE DO NASCIMENTO DE MAGALHAES OFICIAL DO MP ATIVO UBERLÂNDIA - COMARCA; UBERLANDIA-PJ-10PJ 2.554,55 0,00 0,00 0,00 0,00 0,00 2.554,55 307,50 66,39 0,00 373,89 2.180,66 587,00 240,90 31/10/2012
422 497900 CIBELE DE FREITAS SANCHES DIAS ANALISTA DO MP ATIVO SABARÁ - COMARCA; SABARA-PJ-03PJ 4.473,58 0,00 0,00 0,00 0,00 0,00 4.473,58 492,09 343,69 0,00 835,78 3.637,80 352,00 0,00 31/10/2012
423 500900 CIBELLE SILVA PRADO ALVARENGA ANALISTA DO MP ATIVO ITANHANDU - COMARCA; ITANHANDU-PJ-UNPJ 4.473,58 0,00 0,00 0,00 0,00 0,00 4.473,58 523,13 420,37 0,00 943,50 3.530,08 352,00 329,19 31/10/2012
424 296400 CINTIA APARECIDA MOREIRA NAVES E RODRIGUES ANALISTA DO MP ATIVO CAMPO BELO - COMARCA; CAMPO BELO-PJ-04PJ 7.595,56 759,56 0,00 0,00 0,00 0,00 8.355,12 919,06 1.288,39 0,00 2.207,45 6.147,67 352,00 0,00 31/10/2012
425 407900 CINTIA NETO COMELLI ANALISTA DO MP ATIVO BELO HORIZONTE - COMARCA; CENTRAL DE APOIO TECNICO-SETOR CONTABIL 5.598,22 335,89 0,00 0,00 0,00 0,00 5.934,11 740,48 891,04 0,00 1.631,52 4.302,59 352,00 797,53 31/10/2012
426 304700 CINTIA QUEIROZ OFICIAL DO MP ATIVO BELO HORIZONTE - COMARCA; BH-17PJ PATRIMONIO PUBLICO 4.924,85 492,49 0,00 0,00 0,00 0,00 5.417,34 595,91 569,36 0,00 1.165,27 4.252,07 352,00 0,00 31/10/2012
427 286100 CIRO CANGUSSU CORDEIRO OFICIAL DO MP ATIVO IPATINGA - COMARCA; IPATINGA-PJ-09PJ 4.195,87 419,59 0,00 0,00 0,00 0,00 4.615,46 507,70 373,10 0,00 880,80 3.734,66 352,00 0,00 31/10/2012
428 412500 CLARICE GOMES MAROTTA ANALISTA DO MP ATIVO BELO HORIZONTE - COMARCA; ASSESS TECNICO-JUR JUNTO AS PROC. DE JUST 5.598,22 1.119,64 0,00 0,00 0,00 0,00 6.717,86 738,96 887,67 0,00 1.626,63 5.091,23 352,00 0,00 31/10/2012
429 308100 CLARISSA DUARTE MARTINS DIRETOR/ANALISTA ATIVO BELO HORIZONTE - COMARCA; SUPERINTENDENCIA GESTÃO DE PESSOAS 0,00 1.193,16 11.931,59 0,00 0,00 0,00 13.124,75 919,06 2.600,03 0,00 3.519,09 9.605,66 352,00 0,00 31/10/2012
430 497100 CLARISSA ROCHA GUIDI ANALISTA DO MP ATIVO BELO HORIZONTE - COMARCA; EXTINTA - JUIZO DE FAMILIA-02 PJ-02 VARA 4.924,85 0,00 0,00 0,00 0,00 0,00 4.924,85 661,73 715,83 0,00 1.377,56 3.547,29 352,00 1.090,91 31/10/2012
431 463700 CLAUDIA ADRIANA FERRAO DIAS ANALISTA DO MP ATIVO SETE LAGOAS - COMARCA; SETE LAGOAS-PJ-06PJ 4.063,61 0,00 0,00 0,00 0,00 0,00 4.063,61 554,27 476,73 0,00 1.031,00 3.032,61 352,00 975,24 31/10/2012
432 415400 CLAUDIA ALMEIDA DE VASCONCELLOS BARROS ASSESSOR/OFICIAL ATIVO BELO HORIZONTE - COMARCA; DIRET DE PESSOAL DO MINISTERIO PUBLICO - DPMP 0,00 427,45 7.124,13 0,00 0,00 0,00 7.551,58 830,67 1.091,72 0,00 1.922,39 5.629,19 352,00 0,00 31/10/2012
433 389600 CLAUDIA ALVES PERDOMO ASSESSOR ATIVO BELO HORIZONTE - COMARCA; PROCON-MG-GAB DO COORDENADOR DO PROCON-MG 0,00 0,00 7.124,13 0,00 0,00 0,00 7.124,13 430,78 1.084,14 0,00 1.514,92 5.609,21 352,00 0,00 31/10/2012
434 207000 CLAUDIA APARECIDA VILELA MACHADO ANALISTA DO MP ATIVO BELO HORIZONTE - COMARCA; CENTRAL DE APOIO TECNICO-SETOR CONTABIL 9.814,62 2.944,39 0,00 0,00 0,00 0,00 12.759,01 1.403,49 2.230,48 0,00 3.633,97 9.125,04 587,00 0,00 31/10/2012
435 365700 CLAUDIA BREGUEZ CUNHA ANALISTA DO MP ATIVO VARGINHA - COMARCA; VARGINHA-PJ-07PJ 7.124,13 712,41 0,00 0,00 0,00 0,00 7.836,54 862,02 1.161,46 0,00 2.023,48 5.813,06 352,00 0,00 31/10/2012
436 430500 CLAUDIA CECILIA SANTANA VENCESLAU ASSESSOR/OFICIAL ATIVO BELO HORIZONTE - COMARCA; DIRET DE DESENV DE RECURSOS HUMANOS-DDRH 0,00 427,45 7.124,13 0,00 0,00 0,00 7.551,58 416,82 1.205,53 0,00 1.622,35 5.929,23 352,00 0,00 31/10/2012
437 112400 CLAUDIA CRISTINA FIUZA DE AVELAR AGENTE DO MP ATIVO BELO HORIZONTE - COMARCA; SERVICO MEDICO-DEPTO PERIC MEDICA SAUDE OCUP 4.924,85 1.969,94 0,00 0,00 0,00 0,00 6.894,79 758,43 930,97 0,00 1.689,40 5.205,39 352,00 0,00 31/10/2012
438 149400 CLAUDIA DINIZ OFICIAL DO MP ATIVO BELO HORIZONTE - COMARCA; BH-09PJ AUDITORIA MILITAR-SECRETARIA 9.205,45 4.602,73 0,00 0,00 0,00 0,00 13.808,18 1.518,90 2.442,01 0,00 3.960,91 9.847,27 352,00 0,00 31/10/2012
439 480400 CLAUDIA GOULART DE SOUZA OFICIAL DO MP ATIVO PASSOS - COMARCA; PASSOS-PJ-06PJ 2.903,86 0,00 0,00 0,00 0,00 0,00 2.903,86 319,42 80,87 0,00 400,29 2.503,57 352,00 0,00 31/10/2012
440 519800 CLAUDIA HELENA CORREA DE ALMEIDA ANALISTA DO MP ATIVO BELO HORIZONTE - COMARCA; BH-12PJ JUIZO CRIMINAL-GAB 090PJ 4.332,50 0,00 0,00 0,00 0,00 0,00 4.332,50 476,58 315,43 0,00 792,01 3.540,49 352,00 0,00 31/10/2012
441 422100 CLAUDIA IACOMINI CABRAL ANALISTA DO MP ATIVO BELO HORIZONTE - COMARCA; CENT DE APOIO TEC-SETOR DEF,IDOSO E INFANC 5.598,22 2.239,29 0,00 0,00 0,00 0,00 7.837,51 862,13 1.161,70 0,00 2.023,83 5.813,68 352,00 0,00 31/10/2012
442 258200 CLAUDIA LAGE MICHALAROS ANALISTA DO MP ATIVO BELO HORIZONTE - COMARCA; CENTRAL DE APOIO TECN-SETOR DE MEIO AMBIENTE 8.634,11 4.317,05 0,00 0,00 0,00 0,00 12.951,16 1.424,63 2.413,27 0,00 3.837,90 9.113,26 352,00 0,00 31/10/2012
443 284600 CLAUDIA LENI DE ABREU OFICIAL DO MP ATIVO CONTAGEM - COMARCA; CONTAGEM-PJ-22PJ 4.195,87 1.258,76 0,00 0,00 0,00 0,00 5.454,63 646,16 681,19 0,00 1.327,35 4.127,28 519,83 434,97 31/10/2012
444 433600 CLAUDIA LUIZA SANTIAGO FELICIO ANALISTA DO MP ATIVO BELO HORIZONTE - COMARCA; CAO-SAUDE-TECNICO JURIDICO 5.598,22 335,89 0,00 0,00 0,00 0,00 5.934,11 652,75 650,59 0,00 1.303,34 4.630,77 822,00 0,00 31/10/2012
445 317000 CLAUDIA MACHADO ALVES OFICIAL DO MP ATIVO BELO HORIZONTE - COMARCA; SEC ESPECIAL DE PLANEJAMENTO ESTRATEGICO 3.811,39 381,14 0,00 0,00 0,00 0,00 4.192,53 484,90 256,53 0,00 741,43 3.451,10 352,00 215,64 31/10/2012
446 155300 CLAUDIA MACIEL MIRANDA OFICIAL DO MP ATIVO CONGONHAS - COMARCA; CONGONHAS-PJ-SECRETARIA 7.356,10 2.206,83 0,00 0,00 0,00 0,00 9.562,93 1.051,92 1.493,49 0,00 2.545,41 7.017,52 822,00 0,00 31/10/2012
447 242200 CLAUDIA MICHELLE DIAS MUNIZ BALEEIRO OFICIAL DO MP ATIVO MONTE AZUL - COMARCA; MONTE AZUL-PJ-SECRETARIA 5.250,75 1.575,23 0,00 0,00 0,00 0,00 6.825,98 750,86 823,62 0,00 1.574,48 5.251,50 587,00 0,00 31/10/2012
448 418400 CLAUDIA REGINA MARTINS BONIFACIO OFICIAL DO MP ATIVO CAPINÓPOLIS - COMARCA; CAPINOPOLIS-PJ-UNPJ 2.998,37 179,90 0,00 0,00 0,00 0,00 3.178,27 349,61 117,50 0,00 467,11 2.711,16 646,40 0,00 31/10/2012
449 240501 CLAUDIA RENATA SOARES ALVES ANALISTA DO MP ATIVO CONTAGEM - COMARCA; CONTAGEM-PJ-20PJ 5.421,69 1.084,34 0,00 0,00 0,00 0,00 6.506,03 715,66 790,57 0,00 1.506,23 4.999,80 352,00 0,00 31/10/2012
450 498300 CLAUDIA SOUTO FARIAS BRAUN OFICIAL DO MP ATIVO TEÓFILO OTONI - COMARCA; TEOFILO OTONI-PJ-02PJ 2.637,71 0,00 0,00 0,00 0,00 0,00 2.637,71 307,53 39,15 0,00 346,68 2.291,03 822,00 158,00 31/10/2012
451 206500 CLAUDIA VALERIA FONSECA ANDRADE ANALISTA DO MP ATIVO BELO HORIZONTE - COMARCA; BH-23PJ INF-FISC MED SOC FEC 9.814,62 2.944,38 0,00 0,00 0,00 0,00 12.759,00 1.403,49 2.320,98 0,00 3.724,47 9.034,53 352,00 0,00 31/10/2012
452 277500 CLAUDIO ANTONIO BORGES ALVARES ASSESSOR/OFICIAL ATIVO BELO HORIZONTE - COMARCA; COORD-GERAL DAS PJS POR BACIA HIDRO. DE MG 0,00 559,82 5.598,22 0,00 0,00 0,00 6.158,04 615,31 767,72 0,00 1.383,03 4.775,01 352,00 0,00 31/10/2012
453 444800 CLAUDIO ARESIO DO CARMO ANALISTA DO MP ATIVO SETE LAGOAS - COMARCA; SETE LAGOAS-PJ-09PJ 5.421,69 1.084,34 0,00 0,00 0,00 0,00 6.506,03 838,36 1.108,81 0,00 1.947,17 4.558,86 352,00 1.115,40 31/10/2012
454 353500 CLAUDIO HENRIQUE PEDRO DA ROCHA OFICIAL DO MP ATIVO BELO HORIZONTE - COMARCA; DIVISAO DE ATENDIMENTO E CONSULTA JURIDICA 4.063,61 406,36 0,00 0,00 0,00 0,00 4.469,97 550,28 377,34 0,00 927,62 3.542,35 352,00 532,58 31/10/2012
455 265800 CLAUDIO KUPIDLOWSKY FERNANDES OFICIAL DO MP ATIVO BELO HORIZONTE - COMARCA; EXTINTA - SECRETARIA ADMINISTRATIVA 5.085,23 1.017,05 0,00 0,00 0,00 0,00 6.102,28 671,25 312,91 0,00 984,16 5.118,12 587,00 0,00 31/10/2012
456 193600 CLAUDIO LEITE FONTES OFICIAL DO MP ATIVO ITUIUTABA - COMARCA; ITUIUTABA-PJ-02PJ 4.332,50 1.299,75 0,00 0,00 0,00 0,00 5.632,25 619,55 450,91 0,00 1.070,46 4.561,79 587,00 0,00 31/10/2012
457 329400 CLAUDIO MARCIO BERNARDES OFICIAL DO MP ATIVO ITAÚNA - COMARCA; ITAUNA-PJ-04PJ 4.619,20 1.847,68 0,00 0,00 0,00 0,00 6.466,88 760,14 934,77 0,00 1.694,91 4.771,97 352,00 443,44 31/10/2012
458 270200 CLAUDIO RABELO ALVES OFICIAL DO MP ATIVO FORMIGA - COMARCA; FORMIGA-PJ-SECRETARIA 5.085,23 1.017,05 0,00 0,00 0,00 0,00 6.102,28 671,25 555,99 0,00 1.227,24 4.875,04 352,00 0,00 31/10/2012
459 264700 CLAUDIO ROBERTO KFURI DE ARAUJO ANALISTA DO MP ATIVO BELO HORIZONTE - COMARCA; CENTRAL DE APOIO TECNICO-SETOR DE INFORMATICA 8.361,90 836,19 0,00 0,00 0,00 0,00 9.198,09 1.011,79 1.404,19 0,00 2.415,98 6.782,11 587,00 0,00 31/10/2012
460 188600 CLAUDIO SALES OFICIAL DO MP ATIVO NEPOMUCENO - COMARCA; NEPOMUCENO-PJ-SECRETARIA 6.471,28 1.294,26 0,00 0,00 0,00 0,00 7.765,54 854,21 884,59 0,00 1.738,80 6.026,74 352,00 0,00 31/10/2012
461 160700 CLAUDIO VICENTE HESS COORDENADOR ATIVO BELO HORIZONTE - COMARCA; DIRETORIA DE SUPORTE E MANUTENCAO 0,00 2.761,64 9.205,45 0,00 0,00 0,00 11.967,09 430,78 2.280,19 0,00 2.710,97 9.256,12 352,00 0,00 31/10/2012
462 312900 CLAUDIO VIEIRA FIRPE ASSESSOR/OFICIAL ATIVO BELO HORIZONTE - COMARCA; DIR RELACOES INSTITUCIONAIS 0,00 559,82 5.598,22 0,00 0,00 0,00 6.158,04 541,30 788,07 0,00 1.329,37 4.828,67 352,00 0,00 31/10/2012
463 459200 CLEIA ZILLE PEREIRA ANALISTA DO MP ATIVO BELO HORIZONTE - COMARCA; ASSESS TECNICO-JUR JUNTO AS PROC. DE JUST 4.924,85 0,00 0,00 0,00 0,00 0,00 4.924,85 541,73 448,83 0,00 990,56 3.934,29 2.531,17 156,67 31/10/2012
464 461300 CLEIDE ALVES DA SILVA OFICIAL DO MP ATIVO BOA ESPERANÇA - COMARCA; BOA ESPERANCA-PJ-01PJ 3.196,81 0,00 0,00 0,00 0,00 0,00 3.196,81 351,65 119,97 0,00 471,62 2.725,19 352,00 0,00 31/10/2012
465 481800 CLEIDE CARDOSO DA SILVA ANALISTA DO MP ATIVO GOVERNADOR VALADARES - COMARCA; GOVERNADOR VALADARES-PJ-15PJ 4.924,85 0,00 0,00 0,00 0,00 0,00 4.924,85 541,73 448,83 0,00 990,56 3.934,29 587,00 0,00 31/10/2012
466 347600 CLEIDIMAR DE OLIVEIRA SILVA OFICIAL DO MP ATIVO JOÃO PINHEIRO - COMARCA; JOAO PINHEIRO-PJ-02PJ 3.691,17 738,23 0,00 0,00 0,00 0,00 4.429,40 487,23 186,73 0,00 673,96 3.755,44 352,00 0,00 31/10/2012
467 396500 CLEIDISON BATISTA DE ANDRADE OFICIAL DO MP ATIVO RESPLENDOR - COMARCA; RESPLENDOR-PJ-UNPJ 3.300,91 198,05 0,00 0,00 0,00 0,00 3.498,96 384,89 160,31 0,00 545,20 2.953,76 352,00 0,00 31/10/2012
468 298100 CLEONICE AUGUSTA BARROS DE OLIVEIRA ANALISTA DO MP ATIVO JUIZ DE FORA - COMARCA; JUIZ DE FORA-PJ-18PJ 8.098,20 809,82 0,00 0,00 0,00 0,00 8.908,02 979,88 1.423,71 0,00 2.403,59 6.504,43 352,00 0,00 31/10/2012
469 60200 CLERES DE ALMEIDA AGENTE DO MP ATIVO BELO HORIZONTE - COMARCA; EXTINTA - DIVISAO DE TRANSPORTES 3.935,44 2.754,80 0,00 0,00 0,00 0,00 6.690,24 887,33 1.082,02 0,00 1.969,35 4.720,89 352,00 1.376,40 31/10/2012
470 114300 CLERES PEREIRA DA SILVA JUNIOR ASSESSOR ATIVO BELO HORIZONTE - COMARCA; GAECO - SECRETARIA 0,00 1.055,79 3.519,31 0,00 0,00 0,00 4.575,10 430,78 306,27 0,00 737,05 3.838,05 352,00 0,00 31/10/2012
471 264100 CLETO HENRIQUE ANDRADE SILVA ANALISTA DO MP ATIVO BELO HORIZONTE - COMARCA; DIRETORIA DE SISTEMAS DE INFORMACAO 8.361,90 836,19 0,00 0,00 0,00 0,00 9.198,09 1.358,69 2.130,78 0,00 3.489,47 5.708,62 587,00 3.153,60 31/10/2012
472 334400 CLEUBA DE OLIVEIRA BARCELOS GONCALVES OFICIAL DO MP ATIVO DIVINÓPOLIS - COMARCA; DIVINOPOLIS-PJ-07PJ 4.619,20 461,92 0,00 0,00 0,00 0,00 5.081,12 558,92 441,82 0,00 1.000,74 4.080,38 352,00 0,00 31/10/2012
473 347500 CLEUSA CORDEIRO DA MATA PIMENTA OFICIAL DO MP ATIVO CAMPO BELO - COMARCA; CAMPO BELO-PJ-04PJ 4.473,58 2.236,79 0,00 0,00 0,00 0,00 6.710,37 738,14 795,33 0,00 1.533,47 5.176,90 544,00 0,00 31/10/2012
474 510200 CLEZIO SALES SILVA OFICIAL DO MP ATIVO BRASÓPOLIS - COMARCA; BRASOPOLIS-PJ-UNPJ 2.554,55 0,00 0,00 0,00 851,52 0,00 3.406,07 281,00 161,96 0,00 442,96 2.963,11 352,00 0,00 31/10/2012
475 323000 CLOTILDE DE PADUA VIEIRA OFICIAL DO MP ATIVO BELO HORIZONTE - COMARCA; BH-15PJ M AMB 16PJ HAB URB-SECRETARIA 3.519,31 351,93 0,00 0,00 0,00 0,00 3.871,24 425,84 223,07 0,00 648,91 3.222,33 352,00 0,00 31/10/2012
476 285200 CLOVIS ANDRE LUDTKE OFICIAL DO MP ATIVO BELO HORIZONTE - COMARCA; DIRETORIA DE MANUTENCAO PREDIAL 5.085,23 508,52 0,00 0,00 0,00 0,00 5.593,75 810,43 1.046,67 0,00 1.857,10 3.736,65 352,00 1.773,78 31/10/2012
477 381100 CONCEICAO APARECIDA TEIXEIRA ANALISTA DO MP ATIVO BELO HORIZONTE - COMARCA; BH-23PJ INFRACIONAL-ASS JURIDICA 5.598,22 335,89 0,00 0,00 0,00 0,00 5.934,11 652,75 695,84 0,00 1.348,59 4.585,52 352,00 0,00 31/10/2012
478 249900 CONSTANTINO CEZAR GOMES MOTA OFICIAL DO MP ATIVO MONTES CLAROS - COMARCA; COORD REG BACIA RIOS VERDE GRANDE E PARDO 4.195,87 839,17 0,00 0,00 0,00 0,00 5.035,04 553,85 475,80 0,00 1.029,65 4.005,39 352,00 0,00 31/10/2012
479 481000 CRISHMA ANALIA LOMBELLO ANALISTA DO MP ATIVO JUIZ DE FORA - COMARCA; JUIZ DE FORA-PJ-13PJ 4.924,85 0,00 0,00 0,00 0,00 0,00 4.924,85 541,73 403,57 0,00 945,30 3.979,55 352,00 0,00 31/10/2012
480 187500 CRISLEY PATRICK TOSTES OFICIAL DO MP ATIVO JUIZ DE FORA - COMARCA; JUIZ DE FORA-PJ-21PJ 7.356,10 1.471,22 0,00 0,00 0,00 0,00 8.827,32 971,01 1.403,96 0,00 2.374,97 6.452,35 352,00 0,00 31/10/2012
481 523900 CRISTHYANE BAZOLI COSTA GUEDES OFICIAL DO MP ATIVO BELO HORIZONTE - COMARCA; TRIBUNAL DO JURI-07 PJ-01 TRIBUNAL 2.554,55 0,00 0,00 0,00 0,00 0,00 2.554,55 281,00 47,74 0,00 328,74 2.225,81 352,00 0,00 31/10/2012
482 187000 CRISTIAN DAYVSON EVANGELISTA OFICIAL DO MP ATIVO JUIZ DE FORA - COMARCA; JUIZ DE FORA-PJ-09PJ 6.069,59 1.213,92 0,00 0,00 0,00 0,00 7.283,51 801,19 980,85 0,00 1.782,04 5.501,47 352,00 0,00 31/10/2012
483 319800 CRISTIANA GONCALVES DOS SANTOS OFICIAL DO MP ATIVO BELO HORIZONTE - COMARCA; BH-14PJ DEFESA CONSUMIDOR-SECRETARIA 4.473,58 447,36 0,00 0,00 0,00 0,00 4.920,94 541,30 447,87 0,00 989,17 3.931,77 352,00 0,00 31/10/2012
484 520600 CRISTIANA JANAINA BARBOZA JUVENCIO DOS SANTOS ANALISTA DO MP ATIVO BELO HORIZONTE - COMARCA; EXTINTA - JUIZO DE FAMILIA-02 PJ-02 VARA 4.769,54 0,00 0,00 0,00 0,00 0,00 4.769,54 524,65 410,81 0,00 935,46 3.834,08 352,00 0,00 31/10/2012
485 195600 CRISTIANA SOARES HALABI OFICIAL DO MP ATIVO UBERABA - COMARCA; UBERABA-PJ-11PJ 5.878,19 1.175,64 0,00 0,00 0,00 0,00 7.053,83 775,92 969,90 0,00 1.745,82 5.308,01 352,00 0,00 31/10/2012
486 218900 CRISTIANE ALVES BELLES OFICIAL DO MP ATIVO JUIZ DE FORA - COMARCA; JUIZ DE FORA-PJ-10PJ 4.195,87 839,17 0,00 0,00 0,00 0,00 5.035,04 553,85 345,04 0,00 898,89 4.136,15 352,00 0,00 31/10/2012
487 263600 CRISTIANE CARVALHO COUTINHO OFICIAL DO MP ATIVO BELO HORIZONTE - COMARCA; BH-23PJ INFRACIONAL-SEC EXP 5.085,23 1.017,05 0,00 0,00 0,00 0,00 6.102,28 671,25 691,75 0,00 1.363,00 4.739,28 587,00 0,00 31/10/2012
488 441700 CRISTIANE CORRADO DE ANDRADE ANALISTA DO MP ATIVO BELO HORIZONTE - COMARCA; DIRETORIA DE SISTEMAS DE INFORMACAO 5.598,22 335,89 0,00 0,00 0,00 0,00 5.934,11 681,57 759,96 0,00 1.441,53 4.492,58 587,00 261,97 31/10/2012
489 375100 CRISTIANE DAS DORES ERCIO DE LIMA OFICIAL DO MP ATIVO GOVERNADOR VALADARES - COMARCA; GOVERNADOR VALADARES-PJ-15PJ 3.574,80 214,49 0,00 0,00 0,00 0,00 3.789,29 416,82 206,66 0,00 623,48 3.165,81 352,00 0,00 31/10/2012
490 178800 CRISTIANE DE LIMA HOSKEN OFICIAL DO MP ATIVO BELO HORIZONTE - COMARCA; COORD ESTADUAL DE DEFESA DA EDUCACAO 7.124,13 1.424,83 0,00 0,00 0,00 0,00 8.548,96 940,39 1.200,06 0,00 2.140,45 6.408,51 352,00 0,00 31/10/2012
491 494000 CRISTIANE DE MELO MARQUEZ ANALISTA DO MP ATIVO UBERLÂNDIA - COMARCA; UBERLANDIA-PJ-06PJ 4.924,85 0,00 0,00 0,00 0,00 0,00 4.924,85 541,73 448,83 0,00 990,56 3.934,29 3.567,68 294,77 31/10/2012
492 266100 CRISTIANE DE OLIVEIRA CASTRO OFICIAL DO MP ATIVO BELO HORIZONTE - COMARCA; PROCON-MG-SECRETARIA DE FISCALIZACOES 5.250,75 1.050,15 0,00 0,00 0,00 0,00 6.300,90 693,10 785,62 0,00 1.478,72 4.822,18 587,00 0,00 31/10/2012
493 329500 CRISTIANE DOS REIS SILVA OFICIAL DO MP ATIVO ARAXÁ - COMARCA; ARAXA-PJ-04PJ 3.811,39 381,14 0,00 0,00 1.397,51 0,00 5.590,04 461,18 563,40 0,00 1.024,58 4.565,46 587,00 0,00 31/10/2012
494 301600 CRISTIANE GODINHO PIRES ANALISTA DO MP ATIVO BETIM - COMARCA; BETIM-PJ-07PJ 7.842,84 784,28 0,00 0,00 0,00 0,00 8.627,12 948,98 1.354,96 0,00 2.303,94 6.323,18 352,00 0,00 31/10/2012
495 406100 CRISTIANE GONCALVES CHAVES ANALISTA DO MP ATIVO BELO HORIZONTE - COMARCA; ASSESS TECNICO-JUR JUNTO AS PROC. DE JUST 6.069,59 606,96 0,00 0,00 0,00 0,00 6.676,55 814,27 1.055,22 0,00 1.869,49 4.807,06 352,00 725,91 31/10/2012
496 487600 CRISTIANE LOPES DE OLIVEIRA OFICIAL DO MP ATIVO IBIRACI - COMARCA; IBIRACI-PJ-SECRETARIA 2.903,86 0,00 0,00 0,00 0,00 0,00 2.903,86 319,42 58,71 0,00 378,13 2.525,73 352,00 0,00 31/10/2012
497 502500 CRISTIANE MACIEL DE OLIVEIRA GOMES ANALISTA DO MP ATIVO JUIZ DE FORA - COMARCA; JUIZ DE FORA-PJ-04PJ 4.924,85 0,00 0,00 0,00 0,00 0,00 4.924,85 541,73 448,83 0,00 990,56 3.934,29 352,00 0,00 31/10/2012
498 285500 CRISTIANE MAGALHAES LOURENCO ANALISTA DO MP ATIVO BELO HORIZONTE - COMARCA; CENTRAL DE APOIO TECNICO-SETOR CONTABIL 7.595,56 759,56 0,00 0,00 0,00 0,00 8.355,12 919,06 1.197,88 0,00 2.116,94 6.238,18 352,00 0,00 31/10/2012
499 346600 CRISTIANE NOGUEIRA ANDRADE ANALISTA DO MP ATIVO BELO HORIZONTE - COMARCA; CENTRAL DE APOIO TECNICO-SETOR CONTABIL 7.356,10 735,61 0,00 0,00 0,00 0,00 8.091,71 890,09 1.223,92 0,00 2.114,01 5.977,70 822,00 0,00 31/10/2012
500 234000 CRISTIANE OLIVEIRA TOSTES OFICIAL DO MP ATIVO JUIZ DE FORA - COMARCA; JUIZ DE FORA-PJ-19PJ 5.780,51 1.156,10 0,00 0,00 0,00 0,00 6.936,61 763,03 941,20 0,00 1.704,23 5.232,38 352,00 0,00 31/10/2012
501 445800 CRISTIANE ORZIL COSTA OFICIAL DO MP ATIVO SANTA LUZIA - COMARCA; SANTA LUZIA-PJ-05PJ 2.903,86 0,00 0,00 0,00 0,00 0,00 2.903,86 319,42 80,87 0,00 400,29 2.503,57 352,00 0,00 31/10/2012
502 215000 CRISTIANE RODRIGUES DE CARVALHO ASSESSOR ATIVO BELO HORIZONTE - COMARCA; BH-14PJ DEFESA CONSUMIDOR-SECRETARIA 0,00 703,86 3.519,31 0,00 0,00 0,00 4.223,17 430,78 301,14 0,00 731,92 3.491,25 352,00 0,00 31/10/2012
503 257700 CRISTIANE RODRIGUES PAES NUNES ANALISTA DO MP ATIVO BELO HORIZONTE - COMARCA; BH-22PJ PES COM DEF E IDOSOS-ORIENTACAO PSIC 8.361,90 836,19 0,00 0,00 0,00 0,00 9.198,09 1.193,91 1.899,92 0,00 3.093,83 6.104,26 352,00 1.655,64 31/10/2012
504 510800 CRISTIANE SANTOS FERNANDES ORNELES ANALISTA DO MP ATIVO BELO HORIZONTE - COMARCA; COORD ESTADUAL DAS PJS DE HAB. E URBANISMO 3.935,44 0,00 0,00 0,00 0,00 0,00 3.935,44 432,90 235,92 0,00 668,82 3.266,62 352,00 0,00 31/10/2012
505 477400 CRISTIANO SOARES ELEUTERIO ANALISTA DO MP ATIVO BELO HORIZONTE - COMARCA; EXTINTA - COORD DEFESA DO DIREITO DE FAMILIA 4.473,58 0,00 0,00 0,00 0,00 0,00 4.473,58 492,09 343,69 0,00 835,78 3.637,80 352,00 0,00 31/10/2012
506 449400 CRISTIANO TEIXEIRA RODRIGUES LANA ANALISTA DO MP ATIVO BELO HORIZONTE - COMARCA; ASSESS TECNICO-JUR JUNTO AS PROC. DE JUST 5.421,69 0,00 0,00 0,00 0,00 0,00 5.421,69 596,39 570,43 0,00 1.166,82 4.254,87 352,00 0,00 31/10/2012
507 239400 CRISTINA DE FATIMA CRUZ E SILVA OFICIAL DO MP ATIVO MONTE SANTO DE MINAS - COMARCA; MONTE SANTO DE MINAS-PJ-SECRETARIA 4.924,85 984,97 0,00 0,00 0,00 0,00 5.909,82 761,53 937,88 0,00 1.699,41 4.210,41 352,00 1.013,20 31/10/2012
508 356800 CRISTINA DE PINHO BARROSO OFICIAL DO MP ATIVO SABINÓPOLIS - COMARCA; SABINOPOLIS-PJ-UNPJ 3.691,17 738,23 0,00 0,00 0,00 0,00 4.429,40 487,23 334,84 0,00 822,07 3.607,33 352,00 0,00 31/10/2012
509 449100 CRISTINA KISTEMANN CHIODI ASSESSOR ATIVO BELO HORIZONTE - COMARCA; CAO-MEIO AMBIENTE-SECRETARIA 0,00 0,00 7.124,13 0,00 0,00 0,00 7.124,13 430,78 1.084,14 0,00 1.514,92 5.609,21 352,00 0,00 31/10/2012
510 348201 CRISTINA MARIA DA SILVA ANALISTA DO MP ATIVO JOÃO PINHEIRO - COMARCA; JOAO PINHEIRO-PJ-01PJ 5.250,75 0,00 0,00 0,00 0,00 0,00 5.250,75 577,58 528,59 0,00 1.106,17 4.144,58 352,00 0,00 31/10/2012
511 434900 CRISTINA MELO DE MADUREIRA ANALISTA DO MP ATIVO BELO HORIZONTE - COMARCA; CAO-CRIMINAL-SECRETARIA 5.598,22 335,89 0,00 0,00 0,00 0,00 5.934,11 652,75 695,84 0,00 1.348,59 4.585,52 587,00 0,00 31/10/2012
512 117100 CRISTINA PEDROSA GARABINI COORDENADOR/ANALISTA ATIVO BELO HORIZONTE - COMARCA; DIRET DE INFORMACAO E CONHECIMENTO-DINC/CEAF 15.658,01 10.038,31 0,00 0,00 0,00 0,00 25.696,32 2.583,57 5.074,83 1.578,70 9.237,10 16.459,22 352,00 0,00 31/10/2012
513 307700 CRISTINA TEIXEIRA MARQUES OFICIAL DO MP ATIVO BELO HORIZONTE - COMARCA; BH-14PJ DEFESA CONSUMIDOR-SECRETARIA 4.332,50 433,25 0,00 0,00 0,00 0,00 4.765,75 524,23 365,17 0,00 889,40 3.876,35 352,00 0,00 31/10/2012
514 265300 CRISTOVAO SANCHES DE MEDEIROS ANALISTA DO MP ATIVO BELO HORIZONTE - COMARCA; BH-02PJ FAMILIA-SECRETARIA 7.595,56 759,56 0,00 0,00 0,00 0,00 8.355,12 919,06 1.197,88 0,00 2.116,94 6.238,18 352,00 0,00 31/10/2012
515 349800 CROZEIR LUIZ DA SILVA OFICIAL DO MP ATIVO UNAÍ - COMARCA; UNAI-PJ-SECRETARIA 3.691,17 369,12 0,00 0,00 0,00 0,00 4.060,29 446,63 186,87 0,00 633,50 3.426,79 1.637,12 0,00 31/10/2012
516 490500 CYNTHIA CRISTINA DE SOUZA OLIVEIRA VALENTE ANALISTA DO MP ATIVO BELO HORIZONTE - COMARCA; BH-09PJ AUDITORIA MILITAR 4.473,58 0,00 0,00 0,00 0,00 0,00 4.473,58 492,09 343,69 0,00 835,78 3.637,80 822,00 0,00 31/10/2012
517 389800 CYNTHIA GARIGLIO DOS SANTOS OFICIAL DO MP ATIVO PERDIZES - COMARCA; PERDIZES-PJ-SECRETARIA 3.300,91 198,05 0,00 0,00 0,00 0,00 3.498,96 384,89 110,94 0,00 495,83 3.003,13 587,00 0,00 31/10/2012
518 335101 CYNTHIA GONTIJO D ASSUNCAO ANALISTA DO MP ATIVO BELO HORIZONTE - COMARCA; CAO-CRIANCAS E ADOLESCENTES 4.924,85 0,00 0,00 0,00 0,00 0,00 4.924,85 541,73 448,83 0,00 990,56 3.934,29 352,00 0,00 31/10/2012
519 154000 CYNTHIA LOPES DOS SANTOS LAGES ASSESSOR ATIVO BELO HORIZONTE - COMARCA; PROCURADOR-GERAL DE JUSTICA- GABINETE 0,00 3.682,19 9.205,45 0,00 0,00 0,00 12.887,64 1.417,64 2.352,47 0,00 3.770,11 9.117,53 352,00 0,00 31/10/2012
520 269700 CYNTIA ROCHA CAVALCANTI OFICIAL DO MP ATIVO UBERLÂNDIA - COMARCA; UBERLANDIA-PJ-06PJ 5.250,75 525,08 0,00 0,00 0,00 0,00 5.775,83 635,34 657,10 0,00 1.292,44 4.483,39 352,00 0,00 31/10/2012
521 278000 DAIRTON LOPES MARTINS FILHO COORDENADOR/ANALISTA ATIVO BELO HORIZONTE - COMARCA; DIRETORIA DE SISTEMAS DE INFORMACAO 0,00 809,82 8.098,20 0,00 0,00 0,00 8.908,02 783,03 1.477,84 0,00 2.260,87 6.647,15 352,00 0,00 31/10/2012
522 392700 DALIANA CHAVES SILVA OFICIAL DO MP ATIVO ITAÚNA - COMARCA; ITAUNA-PJ-SECRETARIA 3.574,80 214,49 0,00 0,00 0,00 0,00 3.789,29 416,82 206,66 0,00 623,48 3.165,81 352,00 0,00 31/10/2012
523 476700 DALTON DAUD ANALISTA DO MP ATIVO ARAGUARI - COMARCA; ARAGUARI-PJ-05PJ 4.924,85 0,00 0,00 0,00 0,00 0,00 4.924,85 541,73 360,00 0,00 901,73 4.023,12 352,00 0,00 31/10/2012
524 121900 DALVA MARIA DE LIMA ANALISTA DO MP ATIVO BELO HORIZONTE - COMARCA; EXTINTA-TUTELA DAS FUNDACOES-21 PJ- GABINETE 15.658,01 14.092,21 0,00 0,00 0,00 2.652,94 32.403,16 2.652,94 5.875,82 5.632,60 14.161,36 18.241,80 352,00 0,00 31/10/2012
525 426900 DANIEL ALVES DA SILVA OFICIAL DO MP ATIVO BELO HORIZONTE - COMARCA; EXTINTA - PROTOCOLO DA PGJ 2.998,37 179,90 0,00 0,00 0,00 0,00 3.178,27 349,61 117,50 0,00 467,11 2.711,16 587,00 0,00 31/10/2012
526 122000 DANIEL ANTONIO VIEIRA OFICIAL DO MP ATIVO ENTRE-RIOS DE MINAS - COMARCA; ENTRE RIOS DE MINAS-PJ-SECRETARIA 6.069,59 3.034,80 0,00 0,00 0,00 0,00 9.104,39 1.001,48 1.290,75 0,00 2.292,23 6.812,16 352,00 0,00 31/10/2012
527 272401 DANIEL AUGUSTO DOS REIS ANALISTA DO MP ATIVO BELO HORIZONTE - COMARCA; BH-22PJ PES COM DEF E IDOSOS-ASS JURIDICA 6.069,59 364,18 0,00 0,00 2.144,59 0,00 8.578,36 812,14 1.640,25 0,00 2.452,39 6.125,97 3.567,68 1.244,10 31/10/2012
528 408100 DANIEL DE CASTRO SILVA ANALISTA DO MP ATIVO CATAGUASES - COMARCA; CATAGUASES-PJ-04PJ 5.598,22 335,89 0,00 0,00 0,00 0,00 5.934,11 652,75 695,84 0,00 1.348,59 4.585,52 352,00 0,00 31/10/2012
529 411000 DANIEL FERREIRA DA SILVA ANALISTA DO MP ATIVO GOVERNADOR VALADARES - COMARCA; GOVERNADOR VALADARES-PJ-15PJ 5.598,22 1.119,64 0,00 0,00 0,00 0,00 6.717,86 738,96 842,41 0,00 1.581,37 5.136,49 587,00 0,00 31/10/2012
530 309000 DANIEL GOMES DOS SANTOS ANALISTA DO MP ATIVO POÇOS DE CALDAS - COMARCA; POCOS DE CALDAS-PJ-03PJ 6.471,28 647,13 0,00 0,00 0,00 0,00 7.118,41 783,03 985,70 0,00 1.768,73 5.349,68 3.567,68 294,77 31/10/2012
531 453000 DANIEL GONCALVES PEREIRA ANALISTA DO MP ATIVO UNAÍ - COMARCA; UNAI-PJ-SECRETARIA 5.421,69 0,00 0,00 0,00 0,00 0,00 5.421,69 596,39 570,43 0,00 1.166,82 4.254,87 2.558,01 202,22 31/10/2012
532 495500 DANIEL GUIMARAES CABRAL OFICIAL DO MP ATIVO LAGOA DA PRATA - COMARCA; LAGOA DA PRATA-PJ-02PJ 2.637,71 0,00 0,00 0,00 0,00 0,00 2.637,71 290,15 53,29 0,00 343,44 2.294,27 352,00 0,00 31/10/2012
533 442900 DANIEL GUIMARAES GONCALVES ANALISTA DO MP ATIVO UBERLÂNDIA - COMARCA; UBERLANDIA-PJ-03PJ 5.421,69 0,00 0,00 0,00 0,00 0,00 5.421,69 596,39 570,43 0,00 1.166,82 4.254,87 352,00 0,00 31/10/2012
534 491200 DANIEL HENRIQUE SOUTO COSTA ANALISTA DO MP ATIVO CORAÇÃO DE JESUS - COMARCA; CORACAO DE JESUS-PJ-UNPJ 4.924,85 0,00 0,00 0,00 0,00 0,00 4.924,85 541,73 448,83 0,00 990,56 3.934,29 352,00 0,00 31/10/2012
535 430300 DANIEL MONTEIRO SILVA ANALISTA DO MP ATIVO BELO HORIZONTE - COMARCA; BH-05PJ JUÍZO DE SUCESSÕES 5.598,22 335,89 0,00 0,00 0,00 0,00 5.934,11 652,75 695,84 0,00 1.348,59 4.585,52 352,00 0,00 31/10/2012
536 464600 DANIEL PIACENTINI STIVANIN ANALISTA DO MP ATIVO ANDRADAS - COMARCA; ANDRADAS-PJ-02PJ 4.473,58 0,00 0,00 0,00 0,00 0,00 4.473,58 492,09 343,69 0,00 835,78 3.637,80 352,00 0,00 31/10/2012
537 417000 DANIEL QUEIROZ FERREIRA ANALISTA DO MP ATIVO AREADO - COMARCA; AREADO-PJ-UNPJ 5.598,22 335,89 0,00 0,00 0,00 0,00 5.934,11 652,75 695,84 0,00 1.348,59 4.585,52 352,00 0,00 31/10/2012
538 396700 DANIEL SILVA CARNEVALLI COORDENADOR/ANALISTA ATIVO BELO HORIZONTE - COMARCA; DIRETORIA DE REDES E BANCOS DE DADOS 0,00 485,89 8.098,20 0,00 0,00 0,00 8.584,09 707,71 1.409,47 0,00 2.117,18 6.466,91 352,00 0,00 31/10/2012
539 489300 DANIEL TABOZA ROCHA ANALISTA DO MP ATIVO IPATINGA - COMARCA; IPATINGA-PJ-08PJ 4.924,85 0,00 0,00 0,00 1.641,62 0,00 6.566,47 541,73 900,27 0,00 1.442,00 5.124,47 352,00 0,00 31/10/2012
540 414100 DANIEL TARDELI VALADAO ANALISTA DO MP ATIVO TRÊS CORACOES - COMARCA; TRES CORACOES-PJ-02PJ 5.598,22 335,89 0,00 0,00 0,00 0,00 5.934,11 652,75 695,84 0,00 1.348,59 4.585,52 352,00 0,00 31/10/2012
541 446600 DANIEL VIEIRA BUENO OFICIAL DO MP ATIVO RIO PIRACICABA - COMARCA; RIO PIRACICABA-PJ-UNPJ 3.196,81 0,00 0,00 0,00 0,00 0,00 3.196,81 351,65 119,97 0,00 471,62 2.725,19 352,00 0,00 31/10/2012
542 253200 DANIELA BATISTA LIMA BARBOSA ASSESSOR ATIVO BELO HORIZONTE - COMARCA; CENTRAL DE APOIO TECN-SETOR DE MEIO AMBIENTE 0,00 351,93 3.519,31 0,00 0,00 0,00 3.871,24 430,78 221,95 0,00 652,73 3.218,51 352,00 0,00 31/10/2012
543 505800 DANIELA BORGES DE MATTOS RESENDE ANALISTA DO MP ATIVO JUIZ DE FORA - COMARCA; JUIZ DE FORA-PJ-20PJ 4.473,58 0,00 0,00 0,00 1.491,19 0,00 5.964,77 508,65 785,29 0,00 1.293,94 4.670,83 352,00 150,49 31/10/2012
544 478000 DANIELA CARVALHO SOARES ANALISTA DO MP ATIVO SÃO JOÃO DEL REI - COMARCA; SAO JOAO DEL REI-PJ-06PJ 4.924,85 0,00 0,00 0,00 0,00 0,00 4.924,85 541,73 448,83 0,00 990,56 3.934,29 352,00 0,00 31/10/2012
545 518900 DANIELA CERUTTI AGUIAR ANALISTA DO MP ATIVO BELO HORIZONTE - COMARCA; ASSESS TECNICO-JUR JUNTO AS PROC. DE JUST 4.332,50 0,00 0,00 0,00 0,00 0,00 4.332,50 476,58 315,43 0,00 792,01 3.540,49 352,00 0,00 31/10/2012
546 275900 DANIELA CHAGAS SODRE ANALISTA DO MP ATIVO BELO HORIZONTE - COMARCA; CENTRAL DE APOIO TECNICO-SETOR CONTABIL 7.595,56 759,56 0,00 0,00 0,00 0,00 8.355,12 919,06 1.288,39 0,00 2.207,45 6.147,67 352,00 0,00 31/10/2012
547 234301 DANIELA CRUZ SOARES ANALISTA DO MP ATIVO BELO HORIZONTE - COMARCA; CAO-ORDEM ECONOMICA E TRIBUTARIA-SECRETARIA 8.361,90 836,19 0,00 0,00 0,00 0,00 9.198,09 1.011,79 1.494,70 0,00 2.506,49 6.691,60 352,00 0,00 31/10/2012
548 301000 DANIELA DE ALMEIDA E OLIVEIRA ANALISTA DO MP ATIVO BELO HORIZONTE - COMARCA; DIRETORIA DE REDES E BANCOS DE DADOS 7.595,56 759,56 0,00 0,00 0,00 0,00 8.355,12 919,06 1.288,39 0,00 2.207,45 6.147,67 352,00 0,00 31/10/2012
549 296000 DANIELA DE AZEVEDO SILVA ANALISTA DO MP ATIVO ITAJUBA - COMARCA; ITAJUBA-PJ-03PJ 7.124,13 1.424,83 0,00 0,00 0,00 0,00 8.548,96 940,39 1.335,83 0,00 2.276,22 6.272,74 3.567,68 294,77 31/10/2012
550 453500 DANIELA DE CASTRO SOUSA BARBOSA ANALISTA DO MP ATIVO BELO HORIZONTE - COMARCA; BH-08PJ JUIZADO ESPECIAL-SECRETARIA 5.421,69 0,00 0,00 0,00 0,00 0,00 5.421,69 703,73 809,27 0,00 1.513,00 3.908,69 352,00 975,87 31/10/2012
551 506000 DANIELA DE OLIVEIRA CAVALIERI ANALISTA DO MP ATIVO BELO HORIZONTE - COMARCA; BH-14PJ DEFESA CONSUMIDOR-SECRETARIA 4.063,61 0,00 0,00 0,00 0,00 0,00 4.063,61 467,21 307,99 0,00 775,20 3.288,41 352,00 226,43 31/10/2012
552 482900 DANIELA DINIZ MONTEIRO NASCIMENTO ASSESSOR ATIVO BELO HORIZONTE - COMARCA; COORD-GERAL DAS PJS POR BACIA HIDRO. DE MG 0,00 0,00 5.598,22 0,00 0,00 0,00 5.598,22 430,78 664,52 0,00 1.095,30 4.502,92 587,00 0,00 31/10/2012
553 393700 DANIELA GOMES CARDOSO OFICIAL DO MP ATIVO SABARÁ - COMARCA; SABARA-PJ-02PJ 2.723,61 163,42 0,00 0,00 0,00 0,00 2.887,03 317,57 57,59 0,00 375,16 2.511,87 587,00 0,00 31/10/2012
554 356400 DANIELA LEAL FERRAZ ANALISTA DO MP ATIVO MONTES CLAROS - COMARCA; COORD REG PJ DEF EDUC DIR CRIANCA ADOL NORTE 6.899,47 689,95 0,00 0,00 0,00 0,00 7.589,42 963,66 1.387,60 0,00 2.351,26 5.238,16 1.510,06 1.277,24 31/10/2012
555 501000 DANIELA LOURENCO SANTOS DA SILVA GUIMARAES ANALISTA DO MP ATIVO BELO HORIZONTE - COMARCA; BH-12PJ JUIZO CRIMINAL 4.473,58 0,00 0,00 0,00 0,00 0,00 4.473,58 523,13 420,37 0,00 943,50 3.530,08 352,00 329,19 31/10/2012
556 195801 DANIELA MARIA DE OLIVEIRA QUEIROZ ANALISTA DO MP ATIVO ARAGUARI - COMARCA; ARAGUARI-PJ-02PJ 5.598,22 1.119,64 0,00 0,00 0,00 0,00 6.717,86 738,96 887,67 0,00 1.626,63 5.091,23 587,00 0,00 31/10/2012
557 511400 DANIELA MARIA LARA DE OLIVEIRA ANALISTA DO MP ATIVO BOA ESPERANÇA - COMARCA; BOA ESPERANCA-PJ-02PJ 4.332,50 0,00 0,00 0,00 1.444,17 0,00 5.776,67 476,58 610,49 0,00 1.087,07 4.689,60 352,00 0,00 31/10/2012
558 252101 DANIELA PAULA ALVES PENA ANALISTA DO MP ATIVO BELO HORIZONTE - COMARCA; DIRETORIA DE PRODUCAO EDITORIAL 6.069,59 1.213,92 0,00 0,00 0,00 0,00 7.283,51 801,19 1.026,11 0,00 1.827,30 5.456,21 352,00 0,00 31/10/2012
559 429600 DANIELA PIMENTA NUNES MACHADO ANALISTA DO MP ATIVO BELO HORIZONTE - COMARCA; BH-05PJ JUÍZO DE SUCESSÕES 5.598,22 335,89 0,00 0,00 0,00 0,00 5.934,11 652,75 695,84 0,00 1.348,59 4.585,52 352,00 0,00 31/10/2012
560 424300 DANIELA PORTO PINTO OFICIAL DO MP ATIVO BELO HORIZONTE - COMARCA; BH-19PJ SAUDE-ASS TECNICA 2.812,27 168,74 0,00 0,00 0,00 0,00 2.981,01 327,91 91,17 0,00 419,08 2.561,93 352,00 0,00 31/10/2012
561 462000 DANIELA SOUSA GOMES DO AMARAL ANALISTA DO MP ATIVO BETIM - COMARCA; BETIM-PJ-08PJ 4.924,85 0,00 0,00 0,00 0,00 0,00 4.924,85 541,73 448,83 0,00 990,56 3.934,29 587,00 0,00 31/10/2012
562 427000 DANIELA TEIXEIRA DINIZ ANDRADE ANALISTA DO MP ATIVO BELO HORIZONTE - COMARCA; DIVIS DE PROJETOS DE ENGENHARIA E ARQUITETURA 4.619,20 277,15 0,00 0,00 0,00 0,00 4.896,35 538,60 441,85 0,00 980,45 3.915,90 587,00 0,00 31/10/2012
563 337200 DANIELA TOLEDO SENIUK ANALISTA DO MP ATIVO BELO HORIZONTE - COMARCA; CGMP-SECRETARIA DA CORREGEDORIA-GERAL DO MP 5.878,19 587,82 0,00 0,00 0,00 0,00 6.466,01 711,26 780,77 0,00 1.492,03 4.973,98 587,00 0,00 31/10/2012
564 229900 DANIELA UCHOA SALOMON ANALISTA DO MP ATIVO BELO HORIZONTE - COMARCA; CAO-PATRIMONIO PUBLICO-SECRETARIA 6.899,47 1.379,89 0,00 0,00 0,00 0,00 8.279,36 1.108,23 1.778,84 0,00 2.887,07 5.392,29 587,00 2.048,38 31/10/2012
565 195500 DANIELE CHAVES FONSECA ASSESSOR/OFICIAL ATIVO BELO HORIZONTE - COMARCA; ASSESSORIA ESPECIAL DO PGJ 0,00 1.424,83 7.124,13 0,00 0,00 0,00 8.548,96 775,92 1.381,06 0,00 2.156,98 6.391,98 352,00 0,00 31/10/2012
566 323400 DANIELE MEGALE SANTINI OFICIAL DO MP ATIVO BELO HORIZONTE - COMARCA; ASSESS TECNICO-JUR JUNTO AS PROC. DE JUST 4.769,54 476,95 0,00 0,00 0,00 0,00 5.246,49 577,11 527,55 0,00 1.104,66 4.141,83 587,00 0,00 31/10/2012
567 357900 DANIELE REJANE PINTO VERSIEUX OFICIAL DO MP ATIVO PEDRO LEOPOLDO - COMARCA; PEDRO LEOPOLDO-PJ-01PJ 4.332,50 433,25 0,00 0,00 0,00 0,00 4.765,75 524,23 409,89 0,00 934,12 3.831,63 352,00 0,00 31/10/2012
568 389500 DANIELE VASCONCELOS AMORIM OFICIAL DO MP ATIVO SÃO SEBASTIÃO DO PARAÍSO - COMARCA; SAO SEBASTIAO DO PARAISO-PJ-04PJ 3.935,44 236,13 0,00 0,00 0,00 0,00 4.171,57 458,87 283,21 0,00 742,08 3.429,49 352,00 0,00 31/10/2012
569 216201 DANIELLE BELGO DE FREITAS ANALISTA DO MP ATIVO BELO HORIZONTE - COMARCA; BH-12PJ JUIZO CRIMINAL-SECRETARIA 3.935,44 0,00 0,00 0,00 0,00 0,00 3.935,44 432,90 235,92 0,00 668,82 3.266,62 352,00 0,00 31/10/2012
570 265000 DANIELLE CASTANHEIRA SCALABRINI OFICIAL DO MP ATIVO BELO HORIZONTE - COMARCA; JUNTA RECURSAL DO PROCON ESTADUAL 4.619,20 461,92 0,00 0,00 0,00 0,00 5.081,12 717,01 703,05 0,00 1.420,06 3.661,06 352,00 1.437,15 31/10/2012
571 490100 DANIELLE DE AVILA SILVA LOPES ANALISTA DO MP ATIVO BELO HORIZONTE - COMARCA; PROC. JUSTICA DIR. DIFUSOS E COLETIVOS-SEC 4.924,85 492,49 0,00 0,00 0,00 0,00 5.417,34 595,91 569,36 0,00 1.165,27 4.252,07 352,00 0,00 31/10/2012
572 379900 DANIELLE GUIMARAES CARNEIRO PERES ANALISTA DO MP ATIVO BELO HORIZONTE - COMARCA; DIRETORIA DE ORCAMENTO-DIOR/SPC 6.069,59 364,18 0,00 0,00 0,00 0,00 6.433,77 707,71 818,14 0,00 1.525,85 4.907,92 587,00 0,00 31/10/2012
573 380800 DANILLO RIBEIRO ANTUNES ANALISTA DO MP ATIVO MONTES CLAROS - COMARCA; MONTES CLAROS-PJ-SECRETARIA 6.069,59 364,18 0,00 0,00 0,00 0,00 6.433,77 707,71 818,14 0,00 1.525,85 4.907,92 352,00 0,00 31/10/2012
574 453700 DANILO BOTELHO DE CARVALHO ANALISTA DO MP ATIVO BELO HORIZONTE - COMARCA; DIRETORIA DE ADMINISTRACAO FINANCEIRA 5.421,69 0,00 0,00 0,00 0,00 0,00 5.421,69 673,06 741,03 0,00 1.414,09 4.007,60 352,00 697,05 31/10/2012
575 391200 DANILO D'AVILA MENDES ANALISTA DO MP ATIVO JANAÚBA - COMARCA; JANAUBA-PJ-01PJ 6.069,59 364,18 0,00 0,00 0,00 0,00 6.433,77 707,71 818,14 0,00 1.525,85 4.907,92 352,00 0,00 31/10/2012
576 494900 DANILO GAVIAO AVELINO DE MELLO ANALISTA DO MP ATIVO POUSO ALEGRE - COMARCA; POUSO ALEGRE-PJ-08PJ 4.473,58 0,00 0,00 0,00 0,00 0,00 4.473,58 492,09 343,69 0,00 835,78 3.637,80 352,00 0,00 31/10/2012
577 298300 DANUZA MONICA DE SOUZA DINIZ ANALISTA DO MP ATIVO DIVINÓPOLIS - COMARCA; DIVINOPOLIS-PJ-02PJ 6.267,25 626,73 0,00 0,00 0,00 0,00 6.893,98 758,34 885,52 0,00 1.643,86 5.250,12 352,00 0,00 31/10/2012
578 398700 DARCY LUIZ MILEO GREGATTI OFICIAL DO MP ATIVO TRÊS CORACOES - COMARCA; TRES CORACOES-PJ-01PJ 3.300,91 198,05 0,00 0,00 0,00 0,00 3.498,96 384,89 160,31 0,00 545,20 2.953,76 352,00 0,00 31/10/2012
579 406200 DARIANA AUGUSTA DE TOLEDO PATROCINIO ASSESSOR/OFICIAL ATIVO BELO HORIZONTE - COMARCA; EXTINTA - DIRETORIA DE CONTRATOS E CONVÊNIOS 0,00 427,45 7.124,13 0,00 0,00 0,00 7.551,58 517,54 1.177,83 0,00 1.695,37 5.856,21 352,00 0,00 31/10/2012
580 305000 DARLI LEITE DE OLIVEIRA OFICIAL DO MP ATIVO ARAÇUAÍ - COMARCA; ARACUAI-PJ-02PJ 4.195,87 419,59 0,00 0,00 0,00 0,00 4.615,46 673,06 605,27 0,00 1.278,33 3.337,13 587,00 1.503,28 31/10/2012
581 122200 DAVID RIBEIRO DOS SANTOS ANALISTA DO MP ATIVO BORDA DA MATA - COMARCA; BORDA DA MATA-PJ-UNPJ 11.040,10 7.728,07 0,00 0,00 0,00 0,00 18.768,17 2.241,47 4.230,73 0,00 6.472,20 12.295,97 352,00 1.608,80 31/10/2012
582 389400 DAWSON CANEDO MARQUES OFICIAL DO MP ATIVO GOVERNADOR VALADARES - COMARCA; GOVERNADOR VALADARES-PJ-08PJ 4.332,50 259,95 0,00 0,00 0,00 0,00 4.592,45 505,17 330,46 0,00 835,63 3.756,82 352,00 0,00 31/10/2012
583 256100 DAYSE ROSALY PEREIRA BATISTA OFICIAL DO MP ATIVO BELO HORIZONTE - COMARCA; PROCON-MG-SECRETARIA DE FISCALIZACOES 4.195,87 839,17 0,00 0,00 0,00 0,00 5.035,04 553,85 345,04 0,00 898,89 4.136,15 352,00 0,00 31/10/2012
584 311901 DEBORA APARECIDA DA SILVA ASSESSOR ATIVO BELO HORIZONTE - COMARCA; BH-23PJ CIVEL-SETOR ATEND PUB 0,00 0,00 2.107,81 0,00 0,00 0,00 2.107,81 270,58 15,01 0,00 285,59 1.822,22 352,00 0,00 31/10/2012
585 194301 DEBORA APARECIDA DOS SANTOS ANALISTA DO MP ATIVO UBERLÂNDIA - COMARCA; UBERLANDIA-COORD CONJ-FAMÍLIA E JUIZ ESP CRIM 7.356,10 1.471,22 0,00 0,00 0,00 0,00 8.827,32 971,01 1.403,96 0,00 2.374,97 6.452,35 352,00 0,00 31/10/2012
586 518800 DEBORA CARVALHO FIORATTO OFICIAL DO MP ATIVO CONTAGEM - COMARCA; CONTAGEM-PJ-11PJ 2.812,27 0,00 0,00 0,00 937,42 0,00 3.749,69 325,26 250,90 0,00 576,16 3.173,53 352,00 144,66 31/10/2012
587 444900 DEBORA CLAUDIA PEREIRA ALVES ANALISTA DO MP ATIVO BELO HORIZONTE - COMARCA; BH-08PJ JUIZADO ESPECIAL-SECRETARIA 5.421,69 0,00 0,00 0,00 0,00 0,00 5.421,69 627,06 638,67 0,00 1.265,73 4.155,96 352,00 278,82 31/10/2012
588 513100 DEBORA CRISTINA PEREIRA DE OLIVEIRA ANALISTA DO MP ATIVO BELO HORIZONTE - COMARCA; BH-23PJ CIVEL-SETOR JURIDICO 4.332,50 0,00 0,00 0,00 0,00 0,00 4.332,50 684,93 767,44 0,00 1.452,37 2.880,13 352,00 1.894,14 31/10/2012
589 424100 DEBORA SANTOS E ALVES ANALISTA DO MP ATIVO JANUÁRIA - COMARCA; JANUARIA-PJ-01PJ 5.598,22 335,89 0,00 0,00 0,00 0,00 5.934,11 652,75 695,84 0,00 1.348,59 4.585,52 352,00 0,00 31/10/2012
590 426300 DEBORA SCUCATO MACHADO SOARES OFICIAL DO MP ATIVO ITABIRA - COMARCA; ITABIRA-PJ-03PJ 3.300,91 198,05 0,00 0,00 0,00 0,00 3.498,96 401,38 180,33 0,00 581,71 2.917,25 352,00 149,95 31/10/2012
591 438000 DEBORAH COSTA LAGE ANALISTA DO MP ATIVO BELO HORIZONTE - COMARCA; ASSESS TECNICO-JUR JUNTO AS PROC. DE JUST 5.598,22 335,89 0,00 0,00 0,00 0,00 5.934,11 652,75 695,84 0,00 1.348,59 4.585,52 2.725,64 217,58 31/10/2012
592 475700 DEBORAH LOBAO LACERDA OFICIAL DO MP ATIVO BELO HORIZONTE - COMARCA; BH-23PJ INFRACIONAL 2.637,71 0,00 0,00 0,00 0,00 0,00 2.637,71 290,15 53,29 0,00 343,44 2.294,27 352,00 0,00 31/10/2012
593 506200 DEBORAH RALEMADHA RODRIGUES MELO ANALISTA DO MP ATIVO BELO HORIZONTE - COMARCA; PROC JUST ESP ACOES COMP ORIG CRIMINAL-ASSESS 4.924,85 0,00 0,00 0,00 0,00 0,00 4.924,85 563,94 512,48 0,00 1.076,42 3.848,43 352,00 253,67 31/10/2012
594 501900 DELI RAQUEL RODRIGUES ANALISTA DO MP ATIVO ITUIUTABA - COMARCA; ITUIUTABA-PJ-04PJ 4.473,58 0,00 0,00 0,00 0,00 0,00 4.473,58 523,13 407,44 0,00 930,57 3.543,01 352,00 282,16 31/10/2012
595 378600 DELIANE LOPES VIEIRA BREIJAO NEVES ANALISTA DO MP ATIVO SANTOS DUMONT - COMARCA; SANTOS DUMONT-PJ-03PJ 6.069,59 364,18 0,00 0,00 0,00 0,00 6.433,77 707,71 818,14 0,00 1.525,85 4.907,92 352,00 0,00 31/10/2012
596 522500 DELMINDA MARIA LEAO E SILVA OFICIAL DO MP ATIVO ITAGUARA - COMARCA; ITAGUARA-PJ-UNPJ 2.554,55 1.788,20 0,00 0,00 0,00 0,00 4.342,75 477,70 243,43 0,00 721,13 3.621,62 352,00 0,00 31/10/2012
597 393000 DENER LOPES MACHADO ANALISTA DO MP ATIVO PATOS DE MINAS - COMARCA; COORD REG BACIAS PARACATU,URUCUIA E ABAETE 5.085,23 305,11 0,00 0,00 0,00 0,00 5.390,34 592,94 562,76 0,00 1.155,70 4.234,64 352,00 0,00 31/10/2012
598 381600 DENER PIRES DE OLIVEIRA OFICIAL DO MP ATIVO BETIM - COMARCA; BETIM-PJ-05PJ 3.300,91 198,05 0,00 0,00 0,00 0,00 3.498,96 384,89 160,31 0,00 545,20 2.953,76 352,00 0,00 31/10/2012
599 487700 DENIA FERREIRA MAIA SILVA OFICIAL DO MP ATIVO TRÊS CORACOES - COMARCA; TRES CORACOES-PJ-01PJ 2.637,71 0,00 0,00 0,00 0,00 0,00 2.637,71 290,15 40,95 0,00 331,10 2.306,61 587,00 0,00 31/10/2012
600 424800 DENIS APARECIDO CAMPOS DELFINO ANALISTA DO MP ATIVO LUZ - COMARCA; LUZ-PJ-UNPJ 5.598,22 335,89 0,00 0,00 0,00 0,00 5.934,11 652,75 514,83 0,00 1.167,58 4.766,53 587,00 0,00 31/10/2012
601 381400 DENISE ANGELICA MELLO DE PAULA OFICIAL DO MP ATIVO BELO HORIZONTE - COMARCA; BH-18PJ DIREITOS HUMANOS-SECRETARIA 4.332,50 259,95 0,00 0,00 0,00 0,00 4.592,45 505,17 367,49 0,00 872,66 3.719,79 352,00 0,00 31/10/2012
602 196300 DENISE DE ALMEIDA VILELA FURTADO OFICIAL DO MP ATIVO PATOS DE MINAS - COMARCA; PATOS DE MINAS-PJ-02PJ 5.421,69 1.084,34 0,00 0,00 0,00 0,00 6.506,03 811,85 959,33 0,00 1.771,18 4.734,85 352,00 874,44 31/10/2012
603 336900 DENISE DE SOUSA MORAES SILVA OFICIAL DO MP ATIVO MATEUS LEME - COMARCA; MATEUS LEME-PJ-02PJ 3.811,39 381,14 0,00 0,00 0,00 0,00 4.192,53 461,18 287,40 0,00 748,58 3.443,95 352,00 0,00 31/10/2012
604 271100 DENISE ELOY PEIXOTO OFICIAL DO MP ATIVO BELO HORIZONTE - COMARCA; GAECO - SECRETARIA 5.250,75 525,08 0,00 0,00 0,00 0,00 5.775,83 635,34 657,10 0,00 1.292,44 4.483,39 352,00 0,00 31/10/2012
605 385400 DENISE FREITAS DE ASSIS OFICIAL DO MP ATIVO CARATINGA - COMARCA; CARATINGA-PJ-01PJ 3.574,80 214,49 0,00 0,00 0,00 0,00 3.789,29 416,82 149,70 0,00 566,52 3.222,77 352,00 0,00 31/10/2012
606 437100 DENISE NOGUEIRA MAGRI MENDES ANALISTA DO MP ATIVO BELO HORIZONTE - COMARCA; CAO-ORDEM ECONOMICA E TRIBUTARIA-SECRETARIA 5.598,22 1.119,64 0,00 0,00 0,00 0,00 6.717,86 738,96 751,91 0,00 1.490,87 5.226,99 587,00 0,00 31/10/2012
607 524700 DENISE RAMOS GUIMARAES OFICIAL DO MP ATIVO SANTA LUZIA - COMARCA; SANTA LUZIA-PJ-02PJ 2.812,27 0,00 0,00 0,00 0,00 0,00 2.812,27 309,35 68,64 0,00 377,99 2.434,28 352,00 0,00 31/10/2012
608 239100 DENISE RIBEIRO DOS SANTOS CAETANO OFICIAL DO MP ATIVO ITANHANDU - COMARCA; ITANHANDU-PJ-SECRETARIA 5.421,69 1.084,34 0,00 0,00 0,00 0,00 6.506,03 829,02 997,53 0,00 1.826,55 4.679,48 352,00 1.030,51 31/10/2012
609 325500 DENISE ROSA TORRES ASSESSOR/OFICIAL ATIVO BELO HORIZONTE - COMARCA; DIRETORIA DE PESSOAL ADMINISTRATIVO - DPAD 0,00 712,41 7.124,13 0,00 0,00 0,00 7.836,54 558,92 1.244,82 0,00 1.803,74 6.032,80 352,00 0,00 31/10/2012
610 437200 DENISE VIVIANE DOS SANTOS ANALISTA DO MP ATIVO BELO HORIZONTE - COMARCA; CGMP-ASSESSORIA JURIDICA 5.085,23 305,11 0,00 0,00 0,00 0,00 5.390,34 592,94 562,76 0,00 1.155,70 4.234,64 352,00 0,00 31/10/2012
611 267900 DENISIA DE ALMEIDA SALES OFICIAL DO MP ATIVO BELO HORIZONTE - COMARCA; CAO-SAUDE-SECRETARIA 4.195,87 419,59 0,00 0,00 0,00 0,00 4.615,46 507,70 298,04 0,00 805,74 3.809,72 352,00 0,00 31/10/2012
612 480300 DESIREE ARANTES FERREIRA GOUVEA OFICIAL DO MP ATIVO PRATÁPOLIS - COMARCA; PRATAPOLIS-PJ-UNPJ 2.637,71 0,00 0,00 0,00 0,00 0,00 2.637,71 290,15 53,29 0,00 343,44 2.294,27 352,00 0,00 31/10/2012
613 355300 DEYSE CRISTINA MORAIS OFICIAL DO MP ATIVO PASSOS - COMARCA; PASSOS-PJ-02PJ 3.691,17 369,12 0,00 0,00 0,00 0,00 4.060,29 446,63 260,92 0,00 707,55 3.352,74 352,00 0,00 31/10/2012
614 523700 DIANA CAMPOS RESENDE OFICIAL DO MP ATIVO SÃO JOÃO DEL REI - COMARCA; SAO JOAO DEL REI-PJ-04PJ 2.812,27 0,00 0,00 0,00 0,00 0,00 2.812,27 309,35 68,64 0,00 377,99 2.434,28 352,00 0,00 31/10/2012
615 241900 DIANA CARDOSO MARTINS OFICIAL DO MP ATIVO BELO HORIZONTE - COMARCA; DIRETORIA DE PRODUCAO EDITORIAL 4.473,58 894,72 0,00 0,00 0,00 0,00 5.368,30 590,51 557,36 0,00 1.147,87 4.220,43 352,00 0,00 31/10/2012
616 410100 DIANA GORDILHO SILVEIRA SENA ANALISTA DO MP ATIVO BELO HORIZONTE - COMARCA; ASSESS TECNICO-JUR JUNTO AS PROC. DE JUST 5.598,22 335,89 0,00 0,00 0,00 0,00 5.934,11 652,75 695,84 0,00 1.348,59 4.585,52 352,00 0,00 31/10/2012
617 520000 DIARLE TOSTE DOS SANTOS ANALISTA DO MP ATIVO RIO POMBA - COMARCA; RIO POMBA-PJ-UNPJ 4.332,50 0,00 0,00 0,00 0,00 0,00 4.332,50 476,58 204,35 0,00 680,93 3.651,57 587,00 0,00 31/10/2012
618 388100 DIEGO CESAR DO NASCIMENTO PERONI OFICIAL DO MP ATIVO CASSIA - COMARCA; CASSIA-PJ-02PJ 3.300,91 198,05 0,00 0,00 0,00 0,00 3.498,96 384,89 160,31 0,00 545,20 2.953,76 352,00 0,00 31/10/2012
619 446900 DIEGO DE FREITAS OFICIAL DO MP ATIVO UBERABA - COMARCA; UBERABA-PJ-06PJ 2.903,86 0,00 0,00 0,00 0,00 0,00 2.903,86 319,42 80,87 0,00 400,29 2.503,57 352,00 0,00 31/10/2012
620 379800 DIEGO OSORIO DA SILVA CORDEIRO OFICIAL DO MP ATIVO CONSELHEIRO LAFAIETE - COMARCA; CONSELHEIRO LAFAIETE-PJ-05PJ 3.574,80 214,49 0,00 0,00 0,00 0,00 3.789,29 416,82 206,66 0,00 623,48 3.165,81 352,00 0,00 31/10/2012
621 288800 DILENE NEPOMUCENO ALVES OFICIAL DO MP ATIVO BELO HORIZONTE - COMARCA; DIRETORIA DE PESSOAL ADMINISTRATIVO - DPAD 5.085,23 508,52 0,00 0,00 0,00 0,00 5.593,75 615,31 612,54 0,00 1.227,85 4.365,90 352,00 0,00 31/10/2012
622 270100 DILSON DO AMARAL OFICIAL DO MP ATIVO RIO CASCA - COMARCA; RIO CASCA-PJ-SECRETARIA 4.769,54 476,95 0,00 0,00 0,00 0,00 5.246,49 704,03 854,00 0,00 1.558,03 3.688,46 352,00 1.314,03 31/10/2012
623 466000 DIMITRI GUDE MARCIAL ANALISTA DO MP ATIVO NANUQUE - COMARCA; NANUQUE-PJ-02PJ 3.935,44 0,00 0,00 0,00 0,00 0,00 3.935,44 432,90 198,90 0,00 631,80 3.303,64 587,00 0,00 31/10/2012
624 516300 DINORA APARECIDA MACEDO BRANDAO ANALISTA DO MP ATIVO BELO HORIZONTE - COMARCA; PROC JUST ESP ACOES COMP ORIG CRIMINAL-ASSESS 3.935,44 0,00 0,00 0,00 1.311,81 0,00 5.247,25 432,90 567,42 0,00 1.000,32 4.246,93 352,00 0,00 31/10/2012
625 511700 DIOGENES HENRIQUES PEREIRA LOURENCO ANALISTA DO MP ATIVO CONTAGEM - COMARCA; CONTAGEM-PJ-22PJ 4.769,54 0,00 0,00 0,00 0,00 0,00 4.769,54 595,16 607,76 0,00 1.202,92 3.566,62 352,00 786,67 31/10/2012
626 387800 DIOGO FELIX DA SILVA OFICIAL DO MP ATIVO MANTENA - COMARCA; MANTENA-PJ-SECRETARIA 3.300,91 198,05 0,00 0,00 0,00 0,00 3.498,96 384,89 160,31 0,00 545,20 2.953,76 352,00 0,00 31/10/2012
627 259600 DIOGO MESQUITA MAIA ANALISTA DO MP ATIVO BELO HORIZONTE - COMARCA; DIRET DE APOIO AS PROCURADORIAS DE JUSTICA 7.595,56 5.316,90 0,00 0,00 0,00 0,00 12.912,46 1.420,37 2.268,03 0,00 3.688,40 9.224,06 587,00 0,00 31/10/2012
628 364100 DIOGO OLIVEIRA CANUTO OFICIAL DO MP ATIVO BELO HORIZONTE - COMARCA; EXTINTA-04ª PJ JUÍZO REG PÚBLICOS-SECRETARIA 4.063,61 406,36 0,00 0,00 0,00 0,00 4.469,97 541,27 447,79 0,00 989,06 3.480,91 352,00 450,64 31/10/2012
629 386700 DIRCIMAR FERNANDES CARNEIRO OFICIAL DO MP ATIVO ALTO RIO DOCE - COMARCA; ALTO RIO DOCE-PJ-UNPJ 3.935,44 1.574,17 0,00 0,00 0,00 0,00 5.509,61 820,15 1.068,30 0,00 1.888,45 3.621,16 392,96 1.946,29 31/10/2012
630 113800 DIRSON APARECIDO GUIMARAES ASSESSOR ATIVO BELO HORIZONTE - COMARCA; DIRETORIA DE MANUTENCAO PREDIAL 0,00 1.686,24 2.107,81 0,00 0,00 0,00 3.794,05 430,78 123,64 0,00 554,42 3.239,63 352,00 0,00 31/10/2012
631 216700 DOMICIO VALDETE PEREIRA OFICIAL DO MP ATIVO TEÓFILO OTONI - COMARCA; COORD REG PJ DEF EDU DIR CRIAN ADOL JEQUI MUC 6.069,59 1.213,92 0,00 0,00 0,00 0,00 7.283,51 883,59 983,20 0,00 1.866,79 5.416,72 352,00 749,16 31/10/2012
632 85700 DONIZETTE PEREIRA DOS SANTOS OFICIAL DO MP ATIVO BELO HORIZONTE - COMARCA; EXTINTA - PROTOCOLO DA PGJ 14.488,11 10.141,67 0,00 0,00 0,00 0,00 24.629,78 2.652,94 5.010,50 512,16 8.175,60 16.454,18 3.567,68 294,77 31/10/2012
633 192701 DONIZETTI APARECIDO AMORIM ANALISTA DO MP ATIVO PRATÁPOLIS - COMARCA; PRATAPOLIS-PJ-UNPJ 4.063,61 812,72 0,00 0,00 0,00 0,00 4.876,33 536,40 436,95 0,00 973,35 3.902,98 352,00 0,00 31/10/2012
634 276700 DORALICE ROSA DE OLIVEIRA FREITAS OFICIAL DO MP ATIVO CARMO DA MATA - COMARCA; CARMO DA MATA-PJ-SECRETARIA 4.195,87 3.356,70 0,00 0,00 0,00 876,94 8.429,51 876,94 1.435,81 0,00 2.312,75 6.116,76 352,00 419,59 31/10/2012
635 265900 DOUGLAS GOMES MOREIRA ANALISTA DO MP ATIVO BELO HORIZONTE - COMARCA; CENTRAL DE APOIO TECNICO-SETOR DE ENGENHARIA 8.361,90 836,19 0,00 0,00 0,00 0,00 9.198,09 1.011,79 1.494,70 0,00 2.506,49 6.691,60 352,00 0,00 31/10/2012
636 241000 DOUGLAS MEIRELLES DE CASTRO OFICIAL DO MP ATIVO CONCEIÇÃO DO RIO VERDE - COMARCA; CONCEICAO DO RIO VERDE-PJ-UNPJ 5.598,22 1.119,64 0,00 0,00 0,00 0,00 6.717,86 738,96 797,16 0,00 1.536,12 5.181,74 587,00 0,00 31/10/2012
637 146800 DUCINALVA AMARAL LOPES REIS OFICIAL DO MP ATIVO PARAISÓPOLIS - COMARCA; PARAISOPOLIS-PJ-UNPJ 8.098,20 4.049,10 0,00 0,00 0,00 0,00 12.147,30 1.336,20 2.035,51 0,00 3.371,71 8.775,59 587,00 0,00 31/10/2012
638 122500 DUILIO CARLOS FERREIRA UTSCH OFICIAL DO MP ATIVO CONCEIÇÃO DO MATO DENTRO - COMARCA; CONCEICAO DO MATO DENTRO-PJ-UNPJ 6.681,94 4.677,35 0,00 0,00 0,00 0,00 11.359,29 1.249,52 2.023,66 0,00 3.273,18 8.086,11 352,00 0,00 31/10/2012
639 201800 DULCINEIA ANDRE DE SOUZA OFICIAL DO MP ATIVO JEQUITINHONHA - COMARCA; JEQUITINHONHA-PJ-SECRETARIA 6.069,59 1.213,92 0,00 0,00 0,00 0,00 7.283,51 911,06 1.089,57 0,00 2.000,63 5.282,88 1.216,76 998,88 31/10/2012
640 395800 DUVIDIER MEDIRCIO JUNIOR ANALISTA DO MP ATIVO BELO HORIZONTE - COMARCA; CENTRAL DE APOIO TECNICO-SETOR DE ENGENHARIA 5.598,22 335,89 0,00 0,00 0,00 0,00 5.934,11 652,75 695,84 0,00 1.348,59 4.585,52 352,00 0,00 31/10/2012
641 273000 EDELFINA APARECIDA GUIMARAES OFICIAL DO MP ATIVO BELO HORIZONTE - COMARCA; PROMOT ESTADUAL DE DEF PATRI CULT E TUR DE MG 4.619,20 1.847,68 0,00 0,00 0,00 0,00 6.466,88 711,36 735,73 0,00 1.447,09 5.019,79 352,00 0,00 31/10/2012
642 523300 EDER DOS SANTOS PATRICIO ANALISTA DO MP ATIVO NOVA SERRANA - COMARCA; NOVA SERRANA-PJ-03PJ 3.935,44 0,00 0,00 0,00 0,00 0,00 3.935,44 432,90 235,92 0,00 668,82 3.266,62 352,00 0,00 31/10/2012
643 356700 EDER JOSE PACHECO OFICIAL DO MP ATIVO CAMPO BELO - COMARCA; CAMPO BELO-PJ-SECRETARIA 4.473,58 447,36 0,00 0,00 0,00 0,00 4.920,94 541,30 402,62 0,00 943,92 3.977,02 272,00 0,00 31/10/2012
644 507900 EDERSON SILVA LOPES OFICIAL DO MP ATIVO BELO HORIZONTE - COMARCA; SERVICO MEDICO-DEPTO PERIC MEDICA SAUDE OCUP 2.554,55 0,00 0,00 0,00 0,00 0,00 2.554,55 281,00 47,74 0,00 328,74 2.225,81 352,00 0,00 31/10/2012
645 296200 EDGARD GOULART MATOSINHO DE LAET JUNIOR ANALISTA DO MP ATIVO GOVERNADOR VALADARES - COMARCA; GOVERNADOR VALADARES-PJ-SECRETARIA 7.595,56 759,56 0,00 0,00 0,00 0,00 8.355,12 1.029,34 1.398,00 0,00 2.427,34 5.927,78 587,00 1.002,54 31/10/2012
646 295000 EDILA MARIA DA SILVEIRA OFICIAL DO MP ATIVO FORMIGA - COMARCA; FORMIGA-PJ-SECRETARIA 4.195,87 419,59 0,00 0,00 0,00 0,00 4.615,46 507,70 373,10 0,00 880,80 3.734,66 352,00 0,00 31/10/2012
647 332300 EDILA MARILAC MIRANDA PRADO OFICIAL DO MP ATIVO DIAMANTINA - COMARCA; DIAMANTINA-PJ-03PJ 4.332,50 1.299,75 0,00 0,00 0,00 0,00 5.632,25 619,55 531,45 0,00 1.151,00 4.481,25 352,00 0,00 31/10/2012
648 376600 EDILANE CONSOLACAO ROSA NAZARETH ANALISTA DO MP ATIVO BETIM - COMARCA; BETIM-PJ-10PJ 6.069,59 364,18 0,00 0,00 0,00 0,00 6.433,77 707,71 818,14 0,00 1.525,85 4.907,92 352,00 0,00 31/10/2012
649 301500 EDILENE APARECIDA DE CARVALHO ANALISTA DO MP ATIVO BELO HORIZONTE - COMARCA; DIRETORIA DE ADMINISTRACAO FINANCEIRA 7.595,56 759,56 0,00 0,00 0,00 0,00 8.355,12 919,06 1.288,39 0,00 2.207,45 6.147,67 352,00 0,00 31/10/2012
650 309800 EDILZA DOS REIS OFICIAL DO MP ATIVO UBERLÂNDIA - COMARCA; UBERLANDIA-PJ-03PJ 4.924,85 492,49 0,00 0,00 0,00 0,00 5.417,34 595,91 524,11 0,00 1.120,02 4.297,32 352,00 0,00 31/10/2012
651 200500 EDINEIA MARIA DE OLIVEIRA ANTUNES OFICIAL DO MP ATIVO MONTES CLAROS - COMARCA; MONTES CLAROS-PJ-10PJ 7.124,13 2.137,24 0,00 0,00 0,00 0,00 9.261,37 1.018,75 1.510,19 0,00 2.528,94 6.732,43 352,00 0,00 31/10/2012
652 427700 EDISANGELA SOARES LOPES OFICIAL DO MP ATIVO PIRAPORA - COMARCA; PIRAPORA-PJ-03PJ 3.300,91 198,05 0,00 0,00 0,00 0,00 3.498,96 384,89 160,31 0,00 545,20 2.953,76 415,15 0,00 31/10/2012
653 517700 EDMILSON TADEU FERNANDES OFICIAL DO MP ATIVO POUSO ALEGRE - COMARCA; POUSO ALEGRE-PJ-04PJ 2.812,27 0,00 0,00 0,00 0,00 0,00 2.812,27 309,35 68,64 0,00 377,99 2.434,28 352,00 0,00 31/10/2012
654 358400 EDNA APARECIDA SILVA FERREIRA OFICIAL DO MP ATIVO CORONEL FABRICIANO - COMARCA; CORONEL FABRICIANO-PJ-02PJ 4.332,50 433,25 0,00 0,00 0,00 0,00 4.765,75 524,23 409,89 0,00 934,12 3.831,63 587,00 0,00 31/10/2012
655 331800 EDNA MARCIA CAMILO DA SILVA OFICIAL DO MP ATIVO SETE LAGOAS - COMARCA; SETE LAGOAS-PJ-07PJ 4.619,20 461,92 0,00 0,00 0,00 0,00 5.081,12 558,92 487,08 0,00 1.046,00 4.035,12 352,00 0,00 31/10/2012
656 87400 EDNA MARIA DE LIMA OFICIAL DO MP ATIVO BELO HORIZONTE - COMARCA; EXTINTA - DIVISÃO DE MATERIAL PERMANENTE 6.267,25 3.133,63 0,00 0,00 0,00 0,00 9.400,88 1.034,10 1.499,08 0,00 2.533,18 6.867,70 352,00 0,00 31/10/2012
657 422800 EDNILSON DE SOUZA FERREIRA ASSESSOR ATIVO BELO HORIZONTE - COMARCA; DIRETORIA DE SERVICO CRIMINAL 0,00 0,00 2.107,81 0,00 0,00 0,00 2.107,81 270,58 15,01 0,00 285,59 1.822,22 352,00 0,00 31/10/2012
658 327900 EDRIEL SANTANA PEREIRA OFICIAL DO MP ATIVO TUPACIGUARA - COMARCA; TUPACIGUARA-PJ-01PJ 4.619,20 461,92 0,00 0,00 0,00 0,00 5.081,12 558,92 487,08 0,00 1.046,00 4.035,12 399,62 0,00 31/10/2012
659 482400 EDSON GARCIA OFICIAL DO MP ATIVO MACHADO - COMARCA; MACHADO-PJ-SECRETARIA 2.637,71 0,00 0,00 0,00 879,24 0,00 3.516,95 290,15 177,22 0,00 467,37 3.049,58 352,00 0,00 31/10/2012
660 225601 EDSON LABRE FILHO ANALISTA DO MP ATIVO VARGINHA - COMARCA; VARGINHA-PJ-01PJ 7.595,56 1.519,11 0,00 0,00 0,00 0,00 9.114,67 1.002,61 1.474,29 0,00 2.476,90 6.637,77 352,00 0,00 31/10/2012
661 414400 EDUARDO ABRANTES CAMPOS ANALISTA DO MP ATIVO OLIVEIRA - COMARCA; OLIVEIRA-PJ-02PJ 5.598,22 335,89 0,00 0,00 0,00 0,00 5.934,11 652,75 695,84 0,00 1.348,59 4.585,52 352,00 0,00 31/10/2012
662 476800 EDUARDO ALVES DE MOURA ANALISTA DO MP ATIVO UBERLÂNDIA - COMARCA; UBERLANDIA-PJ-19PJ 4.473,58 0,00 0,00 0,00 0,00 0,00 4.473,58 492,09 343,69 0,00 835,78 3.637,80 352,00 0,00 31/10/2012
663 390800 EDUARDO AMORIM PETTERSEN OFICIAL DO MP ATIVO CARANGOLA - COMARCA; CARANGOLA-PJ-03PJ 3.300,91 198,05 0,00 0,00 0,00 0,00 3.498,96 384,89 160,31 0,00 545,20 2.953,76 520,96 0,00 31/10/2012
664 461600 EDUARDO ANTONIO DE ASSIS FARIA ASSESSOR ATIVO BELO HORIZONTE - COMARCA; ASSESS EXECUTIVA DO CONSELHO SUPERIOR DO MP 0,00 0,00 3.519,31 0,00 0,00 0,00 3.519,31 425,84 157,22 0,00 583,06 2.936,25 352,00 0,00 31/10/2012
665 248800 EDUARDO DE CASTRO AMORIM ANALISTA DO MP ATIVO BELO HORIZONTE - COMARCA; CAO-FUNDACOES-ASSESSORIA JURIDICA 8.634,11 1.726,82 0,00 0,00 0,00 0,00 10.360,93 1.139,70 1.779,31 0,00 2.919,01 7.441,92 352,00 0,00 31/10/2012
666 209100 EDUARDO DE SOUZA MAIA ANALISTA DO MP ATIVO BELO HORIZONTE - COMARCA; CAO-FUNDACOES-ASSESSORIA JURIDICA 10.134,20 2.026,84 0,00 0,00 0,00 0,00 12.161,04 1.337,71 2.084,12 0,00 3.421,83 8.739,21 352,00 0,00 31/10/2012
667 350500 EDUARDO GONCALVES RIBEIRO OFICIAL DO MP ATIVO VESPASIANO - COMARCA; VESPASIANO-PJ-04PJ 3.691,17 369,12 0,00 0,00 0,00 0,00 4.060,29 446,63 260,92 0,00 707,55 3.352,74 352,00 0,00 31/10/2012
668 115800 EDUARDO HENRIQUE DE CAMPOS MAIA OFICIAL DO MP ATIVO BELO HORIZONTE - COMARCA; EXTINTA - DIVISAO DE SERVICOS GERAIS 7.356,10 2.942,44 0,00 0,00 0,00 0,00 10.298,54 1.213,76 1.898,82 0,00 3.112,58 7.185,96 352,00 735,61 31/10/2012
669 392600 EDUARDO HENRIQUE DOS SANTOS COSTA ELIAZAR OFICIAL DO MP ATIVO MATOZINHOS - COMARCA; MATOZINHOS-PJ-02PJ 3.574,80 214,49 0,00 0,00 0,00 0,00 3.789,29 416,82 149,70 0,00 566,52 3.222,77 587,00 0,00 31/10/2012
670 122900 EDUARDO JOSE COSTA SILVA OFICIAL DO MP ATIVO SETE LAGOAS - COMARCA; SETE LAGOAS-PJ-04PJ 9.814,62 6.870,24 0,00 0,00 0,00 0,00 16.684,86 1.835,33 3.281,84 0,00 5.117,17 11.567,69 352,00 0,00 31/10/2012
671 418700 EDUARDO LEMOS SIMOES OFICIAL DO MP ATIVO CAXAMBU - COMARCA; CAXAMBU-PJ-SECRETARIA 2.998,37 179,90 0,00 0,00 0,00 0,00 3.178,27 349,61 117,50 0,00 467,11 2.711,16 352,00 0,00 31/10/2012
672 407500 EDUARDO MASCARENHAS CURI AZEVEDO ANALISTA DO MP ATIVO BELO HORIZONTE - COMARCA; ASSESSORIA DE COMUNICACAO INTEGRADA 5.085,23 305,11 0,00 0,00 0,00 0,00 5.390,34 592,94 562,76 0,00 1.155,70 4.234,64 352,00 0,00 31/10/2012
673 257600 EDUARDO VALADARES CABRAL ASSESSOR/ANALISTA ATIVO BELO HORIZONTE - COMARCA; EXTINTA - SECRETARIA ADMINISTRATIVA 0,00 784,28 7.842,84 0,00 0,00 0,00 8.627,12 834,84 1.386,35 0,00 2.221,19 6.405,93 352,00 0,00 31/10/2012
674 487400 EDVIN OTTO FILHO ANALISTA DO MP ATIVO VISCONDE DO RIO BRANCO - COMARCA; VISCONDE DO RIO BRANCO-PJ-01PJ 4.924,85 0,00 0,00 0,00 0,00 0,00 4.924,85 541,73 448,83 0,00 990,56 3.934,29 352,00 0,00 31/10/2012
675 401700 EDWANIA AMORIM DO CARMO OFICIAL DO MP ATIVO RIBEIRÃO DAS NEVES - COMARCA; RIBEIRAO DAS NEVES-PJ-10PJ 3.935,44 236,13 0,00 0,00 0,00 0,00 4.171,57 458,87 283,21 0,00 742,08 3.429,49 352,00 0,00 31/10/2012
676 303600 EFIGENIO SARAIVA LOPES ANALISTA DO MP ATIVO BELO HORIZONTE - COMARCA; DIRETORIA DE PAGAMENTO DE PESSOAL-DPAG 8.361,90 836,19 0,00 0,00 0,00 0,00 9.198,09 1.011,79 1.358,94 0,00 2.370,73 6.827,36 352,00 0,00 31/10/2012
677 312000 ELAINE APARECIDA DE ARAUJO RODRIGUES ASSESSOR/OFICIAL ATIVO DIVINÓPOLIS - COMARCA; DIVINOPOLIS-PJ-02PJ 0,00 2.799,11 5.598,22 0,00 0,00 0,00 8.397,33 738,14 1.304,49 0,00 2.042,63 6.354,70 352,00 0,00 31/10/2012
678 286000 ELAINE APARECIDA SILVA BERZOINI OFICIAL DO MP ATIVO JUIZ DE FORA - COMARCA; JUIZ DE FORA-PJ-07PJ 5.085,23 508,52 0,00 0,00 0,00 0,00 5.593,75 615,31 612,54 0,00 1.227,85 4.365,90 587,00 0,00 31/10/2012
679 509000 ELAINE CANDIDA PONTES OFICIAL DO MP ATIVO BELO HORIZONTE - COMARCA; BH-02PJ FAMILIA-SECRETARIA 2.554,55 0,00 0,00 0,00 0,00 0,00 2.554,55 281,00 47,74 0,00 328,74 2.225,81 352,00 0,00 31/10/2012
680 283601 ELAINE CRISTINA MEQUELINO DUARTE ANALISTA DO MP ATIVO ALFENAS - COMARCA; ALFENAS-PJ-04PJ 6.069,59 364,18 0,00 0,00 0,00 0,00 6.433,77 707,71 818,14 0,00 1.525,85 4.907,92 587,00 0,00 31/10/2012
681 455700 ELAINE DE OLIVEIRA CASTRO ANALISTA DO MP ATIVO POMPÉU - COMARCA; POMPEU-PJ-UNPJ 4.924,85 0,00 0,00 0,00 0,00 0,00 4.924,85 541,73 448,83 0,00 990,56 3.934,29 352,00 0,00 31/10/2012
682 400600 ELAINE GONCALVES PINHEIRO ANALISTA DO MP ATIVO BELO HORIZONTE - COMARCA; ASSESS JUR DO CONS SUPERIOR DO MINISTERIO PUB 6.069,59 1.213,92 0,00 0,00 0,00 0,00 7.283,51 801,19 1.026,11 0,00 1.827,30 5.456,21 352,00 0,00 31/10/2012
683 367200 ELAINE MUNIZ BARBOSA FIGUEIREDO ANALISTA DO MP ATIVO BELO HORIZONTE - COMARCA; DIRETORIA DE REDES E BANCOS DE DADOS 7.124,13 712,41 0,00 0,00 0,00 0,00 7.836,54 862,02 1.161,46 0,00 2.023,48 5.813,06 352,00 0,00 31/10/2012
684 176900 ELAINE RIBEIRO TAVEIRA OFICIAL DO MP ATIVO BELO HORIZONTE - COMARCA; DIRETORIA DE PESSOAL ADMINISTRATIVO - DPAD 4.924,85 984,97 0,00 0,00 0,00 0,00 5.909,82 650,08 689,90 0,00 1.339,98 4.569,84 352,00 0,00 31/10/2012
685 496200 ELAINE SABRINA DIAS MOREIRA ANALISTA DO MP ATIVO CORONEL FABRICIANO - COMARCA; CORONEL FABRICIANO-PJ-03PJ 4.473,58 0,00 0,00 0,00 0,00 0,00 4.473,58 492,09 343,69 0,00 835,78 3.637,80 352,00 0,00 31/10/2012
686 489200 ELAINE VICENTINO GARCIA ANALISTA DO MP ATIVO BELO HORIZONTE - COMARCA; CENTRAL DE APOIO TECNICO-SETOR CONTABIL 4.924,85 492,49 0,00 0,00 0,00 0,00 5.417,34 595,91 569,36 0,00 1.165,27 4.252,07 822,00 0,00 31/10/2012
687 244500 ELCI ALVES DE SOUZA ASSESSOR ATIVO BELO HORIZONTE - COMARCA; CAO-DH CONT EXT ATIV POLIC E AP COMUN-SEC ADM 0,00 703,86 3.519,31 0,00 0,00 0,00 4.223,17 430,78 301,14 0,00 731,92 3.491,25 352,00 0,00 31/10/2012
688 472500 ELCI VAZ DE OLIVEIRA FILHO ANALISTA DO MP ATIVO PIUMHI - COMARCA; PIUMHI-PJ-02PJ 4.924,85 1.477,46 0,00 0,00 0,00 0,00 6.402,31 704,25 810,44 0,00 1.514,69 4.887,62 352,00 0,00 31/10/2012
689 385200 ELCI VIANA REIS OFICIAL DO MP ATIVO RIO PARDO DE MINAS - COMARCA; RIO PARDO DE MINAS-PJ-SECRETARIA 4.332,50 1.299,75 0,00 0,00 0,00 0,00 5.632,25 619,55 621,96 0,00 1.241,51 4.390,74 675,84 0,00 31/10/2012
690 289801 ELCIO JOSE DOS SANTOS ANALISTA DO MP ATIVO BELO HORIZONTE - COMARCA; EXTINTA - DIVISAO DE SERVICOS GERAIS 5.421,69 0,00 0,00 0,00 0,00 0,00 5.421,69 596,39 570,43 0,00 1.166,82 4.254,87 352,00 0,00 31/10/2012
691 123000 ELCIO VILHENA DE FARIA OFICIAL DO MP ATIVO BELO HORIZONTE - COMARCA; ARQUIVO DO MINISTERIO PUBLICO DO ESTADO DE MG 9.814,62 7.851,70 0,00 0,00 0,00 0,00 17.666,32 1.943,30 3.567,30 0,00 5.510,60 12.155,72 352,00 0,00 31/10/2012
692 503200 ELDER GOMES DUTRA ANALISTA DO MP ATIVO IGARAPÉ - COMARCA; IGARAPE-PJ-01PJ 4.924,85 0,00 0,00 0,00 0,00 0,00 4.924,85 575,90 524,85 0,00 1.100,75 3.824,10 352,00 310,62 31/10/2012
693 319600 ELEN TULER DE ALBERGARIA ANALISTA DO MP ATIVO BELO HORIZONTE - COMARCA; BH-19PJ SAUDE 5.878,19 1.175,64 0,00 0,00 0,00 0,00 7.053,83 775,92 969,90 0,00 1.745,82 5.308,01 587,00 0,00 31/10/2012
694 333100 ELENILDA ROCHA DE MORAES MELO OFICIAL DO MP ATIVO ALÉM PARAÍBA - COMARCA; ALEM PARAIBA-PJ-02PJ 3.811,39 381,14 0,00 0,00 0,00 0,00 4.192,53 461,18 213,35 0,00 674,53 3.518,00 352,00 0,00 31/10/2012
695 151000 ELI LOURENCO RIBEIRO AGENTE DO MP ATIVO BELO HORIZONTE - COMARCA; BH-17PJ PATRIMONIO PUBLICO-SECRETARIA 5.598,22 1.679,47 0,00 0,00 0,00 0,00 7.277,69 800,55 581,57 0,00 1.382,12 5.895,57 352,00 0,00 31/10/2012
696 205500 ELIANA ALVES DE SOUSA OFICIAL DO MP ATIVO GOVERNADOR VALADARES - COMARCA; GOVERNADOR VALADARES-PJ-07PJ 4.619,20 923,84 0,00 0,00 0,00 0,00 5.543,04 609,73 600,13 0,00 1.209,86 4.333,18 352,00 0,00 31/10/2012
697 301700 ELIANA DA SILVEIRA ANALISTA DO MP ATIVO BELO HORIZONTE - COMARCA; ASSESS TECNICO-JUR JUNTO AS PROC. DE JUST 7.124,13 712,41 0,00 0,00 0,00 0,00 7.836,54 862,02 1.116,21 0,00 1.978,23 5.858,31 352,00 0,00 31/10/2012
698 103400 ELIANA DE FARIA MORAIS JOTTA OFICIAL DO MP ATIVO BELO HORIZONTE - COMARCA; DIRET DE PESSOAL DO MINISTERIO PUBLICO - DPMP 16.922,34 6.768,93 0,00 0,00 0,00 0,00 23.691,27 2.606,04 4.906,15 0,00 7.512,19 16.179,08 352,00 0,00 31/10/2012
699 251500 ELIANA DE LIMA MILAGRES FONSECA ANALISTA DO MP ATIVO CONTAGEM - COMARCA; CONTAGEM-PJ-17PJ 7.124,13 1.424,83 0,00 0,00 0,00 0,00 8.548,96 1.109,66 1.621,95 0,00 2.731,61 5.817,35 352,00 1.538,82 31/10/2012
700 503900 ELIANA DIAS DUTRA FERREIRA OFICIAL DO MP ATIVO GOVERNADOR VALADARES - COMARCA; GOVERNADOR VALADARES-PJ-10PJ 3.196,81 0,00 0,00 0,00 0,00 0,00 3.196,81 372,72 71,50 0,00 444,22 2.752,59 587,00 191,56 31/10/2012
701 413900 ELIANA PINTO DE OLIVEIRA NEVES ANALISTA DO MP ATIVO CAMPO BELO - COMARCA; CAMPO BELO-PJ-03PJ 5.598,22 335,89 0,00 0,00 0,00 0,00 5.934,11 652,75 695,84 0,00 1.348,59 4.585,52 352,00 0,00 31/10/2012
702 228200 ELIANA RODRIGUES DA CUNHA PINHEIRO COORDENADOR/OFICIAL ATIVO BELO HORIZONTE - COMARCA; SUPERINTENDÊNCIA DE ENGENHARIA E ARQUITETURA 0,00 1.841,09 9.205,45 0,00 0,00 0,00 11.046,54 1.215,12 1.901,86 0,00 3.116,98 7.929,56 352,00 0,00 31/10/2012
703 386600 ELIANA SABINO CHAVES ANALISTA DO MP ATIVO CARATINGA - COMARCA; CARATINGA-PJ-03PJ 5.780,51 2.312,20 0,00 0,00 0,00 0,00 8.092,71 890,20 1.178,91 0,00 2.069,11 6.023,60 352,00 0,00 31/10/2012
704 297400 ELIANE AUGUSTA RIBEIRO COSTA ANALISTA DO MP ATIVO CONSELHEIRO LAFAIETE - COMARCA; CONSELHEIRO LAFAIETE-PJ-05PJ 7.595,56 759,56 0,00 0,00 0,00 0,00 8.355,12 919,06 1.152,62 0,00 2.071,68 6.283,44 587,00 0,00 31/10/2012
705 510600 ELIANE CAROLINA MAIA ANALISTA DO MP ATIVO IGARAPÉ - COMARCA; IGARAPE-PJ-02PJ 3.935,44 0,00 0,00 0,00 0,00 0,00 3.935,44 432,90 235,92 0,00 668,82 3.266,62 2.161,18 118,06 31/10/2012
706 269300 ELIANE EDLAMAR ROCHA OFICIAL DO MP ATIVO POÇOS DE CALDAS - COMARCA; POCOS DE CALDAS-PJ-05PJ 4.769,54 476,95 0,00 0,00 0,00 0,00 5.246,49 577,11 482,30 0,00 1.059,41 4.187,08 352,00 0,00 31/10/2012
707 359100 ELIANE FARIAS DE OLIVEIRA ASSESSOR ATIVO BELO HORIZONTE - COMARCA; EXTINTA-TUTELA DAS FUNDACOES-21 PJ- GABINETE 0,00 0,00 2.107,81 0,00 0,00 0,00 2.107,81 270,58 15,01 0,00 285,59 1.822,22 352,00 0,00 31/10/2012
708 262600 ELIANE FERREIRA SOARES ASSESSOR ATIVO BELO HORIZONTE - COMARCA; BH-18PJ DIREITOS HUMANOS 0,00 703,86 3.519,31 0,00 0,00 0,00 4.223,17 430,78 301,14 0,00 731,92 3.491,25 587,00 0,00 31/10/2012
709 204400 ELIANE GLAUCE DE QUEIROS MAIA OFICIAL DO MP ATIVO GUANHÃES - COMARCA; GUANHAES-PJ-01PJ 6.069,59 1.213,92 0,00 0,00 0,00 0,00 7.283,51 801,19 1.026,11 0,00 1.827,30 5.456,21 352,00 0,00 31/10/2012
710 91800 ELIANE KAPLER OFICIAL DO MP ATIVO BELO HORIZONTE - COMARCA; SUPERINTENDÊNCIA DE ENGENHARIA E ARQUITETURA 9.205,45 3.682,19 0,00 0,00 0,00 0,00 12.887,64 1.417,64 2.307,21 0,00 3.724,85 9.162,79 822,00 0,00 31/10/2012
711 334200 ELIANE MARCIA DE OLIVEIRA BRITO OFICIAL DO MP ATIVO BELO HORIZONTE - COMARCA; BH-09PJ AUDITORIA MILITAR 3.811,39 381,14 0,00 0,00 0,00 0,00 4.192,53 461,18 287,40 0,00 748,58 3.443,95 352,00 0,00 31/10/2012
712 365900 ELIANE MARIA DE OLIVEIRA FERREIRA OFICIAL DO MP ATIVO SETE LAGOAS - COMARCA; SETE LAGOAS-PJ-10PJ 4.473,58 1.342,07 0,00 0,00 0,00 0,00 5.815,65 639,72 666,85 0,00 1.306,57 4.509,08 352,00 0,00 31/10/2012
713 320600 ELIANE STADLER DE SOUZA OFICIAL DO MP ATIVO FRANCISCO SÁ - COMARCA; FRANCISCO SA-PJ-SECRETARIA 4.473,58 447,36 0,00 0,00 0,00 0,00 4.920,94 541,30 402,62 0,00 943,92 3.977,02 352,00 0,00 31/10/2012
714 448900 ELIAS PEREIRA OTONI ASSESSOR ATIVO BELO HORIZONTE - COMARCA; EXTINTA - DIVISAO DE TRANSPORTES 0,00 0,00 2.107,81 0,00 0,00 0,00 2.107,81 270,58 15,01 0,00 285,59 1.822,22 352,00 0,00 31/10/2012
715 495400 ELICA SOUZA GASPARONI MATTOS OFICIAL DO MP ATIVO UBÁ - COMARCA; UBA-PJ-SECRETARIA 2.637,71 0,00 0,00 0,00 0,00 0,00 2.637,71 290,15 53,29 0,00 343,44 2.294,27 352,00 0,00 31/10/2012
716 86600 ELIENE FERREIRA DA SILVA OFICIAL DO MP ATIVO BELO HORIZONTE - COMARCA; BH-22PJ PES COM DEF E IDOSOS 14.488,11 7.244,05 0,00 0,00 0,00 0,00 21.732,16 2.390,54 4.517,16 0,00 6.907,70 14.824,46 4.037,68 294,77 31/10/2012
717 183800 ELIENE MARIA CUNHA OFICIAL DO MP ATIVO BELO HORIZONTE - COMARCA; DIRETORIA DE PESSOAL ADMINISTRATIVO - DPAD 7.124,13 1.424,83 0,00 0,00 0,00 0,00 8.548,96 940,39 1.290,57 0,00 2.230,96 6.318,00 352,00 0,00 31/10/2012
718 172300 ELINA APARECIDA SILVA ASSESSOR ATIVO BELO HORIZONTE - COMARCA; BH-19PJ SAUDE 0,00 421,56 2.107,81 0,00 0,00 0,00 2.529,37 294,69 20,14 0,00 314,83 2.214,54 1.194,05 15,18 31/10/2012
719 492500 ELINE CAMPOS DA FONSECA CUNHA ANALISTA DO MP ATIVO CAPELINHA - COMARCA; CAPELINHA-PJ-02PJ 4.063,61 0,00 0,00 0,00 0,00 0,00 4.063,61 447,00 261,59 0,00 708,59 3.355,02 587,00 0,00 31/10/2012
720 256500 ELISABETE NOGUEIRA ANALISTA DO MP ATIVO BELO HORIZONTE - COMARCA; BH-21PJ TUTELA DAS FUNDACOES-ASS CURADORES 6.899,47 2.069,84 0,00 0,00 0,00 0,00 8.969,31 986,62 1.348,20 0,00 2.334,82 6.634,49 587,00 0,00 31/10/2012
721 355000 ELISANGELA DARLANTONI RIBEIRO OFICIAL DO MP ATIVO ARAXÁ - COMARCA; ARAXA-PJ-05PJ 3.691,17 369,12 0,00 0,00 0,00 0,00 4.060,29 446,63 260,92 0,00 707,55 3.352,74 587,00 0,00 31/10/2012
722 323800 ELISANGELA GONCALVES DE JESUS OFICIAL DO MP ATIVO BELO HORIZONTE - COMARCA; CAO-FUNDACOES-SECRETARIA 3.811,39 381,14 0,00 0,00 0,00 0,00 4.192,53 461,18 287,40 0,00 748,58 3.443,95 352,00 0,00 31/10/2012
723 261400 ELISANGELA MENDES OFICIAL DO MP ATIVO POUSO ALEGRE - COMARCA; POUSO ALEGRE-PJ-05PJ 4.769,54 476,95 0,00 0,00 0,00 0,00 5.246,49 577,11 527,55 0,00 1.104,66 4.141,83 352,00 0,00 31/10/2012
724 507400 ELISANGELA MIGUEL DA ROCHA ASSESSOR ATIVO BELO HORIZONTE - COMARCA; EXTINTA-CGMP-DIV APOIO FISC ORIENT FUNCIONAL 0,00 0,00 2.107,81 0,00 0,00 0,00 2.107,81 270,58 15,01 0,00 285,59 1.822,22 352,00 0,00 31/10/2012
725 461700 ELIZABETH ALEIXO DA PAZ ANALISTA DO MP ATIVO JUIZ DE FORA - COMARCA; JUIZ DE FORA-PJ-24PJ 4.924,85 0,00 0,00 0,00 0,00 0,00 4.924,85 675,76 747,04 0,00 1.422,80 3.502,05 352,00 1.218,43 31/10/2012
726 198100 ELIZABETH CARDOSO CAMPOS OFICIAL DO MP ATIVO PIUMHI - COMARCA; PIUMHI-PJ-02PJ 5.598,22 4.478,58 0,00 0,00 0,00 1.108,45 11.185,25 1.108,45 2.014,59 0,00 3.123,04 8.062,21 352,00 0,00 31/10/2012
727 227300 ELIZABETH COIMBRA FELIX ASSESSOR/OFICIAL ATIVO BELO HORIZONTE - COMARCA; DIRETORIA DE PAGAMENTO DE PESSOAL-DPAG 0,00 2.352,85 7.842,84 0,00 0,00 0,00 10.195,69 727,19 1.711,55 0,00 2.438,74 7.756,95 352,00 0,00 31/10/2012
728 354800 ELIZABETH DOS REIS OFICIAL DO MP ATIVO BELO HORIZONTE - COMARCA; EXTINTA - DIVISÃO DE MATERIAL PERMANENTE 4.473,58 447,36 0,00 0,00 0,00 0,00 4.920,94 541,30 402,62 0,00 943,92 3.977,02 352,00 0,00 31/10/2012
729 452800 ELIZANGELA MARIA DAVI OFICIAL DO MP ATIVO ARCOS - COMARCA; ARCOS-PJ-01PJ 2.903,86 0,00 0,00 0,00 0,00 0,00 2.903,86 319,42 80,87 0,00 400,29 2.503,57 587,00 0,00 31/10/2012
730 496300 ELIZANGELA MARQUES PINTO COELHO OFICIAL DO MP ATIVO BELO HORIZONTE - COMARCA; DIRETORIA DE PESSOAL ADMINISTRATIVO - DPAD 2.903,86 0,00 0,00 0,00 0,00 0,00 2.903,86 319,42 80,87 0,00 400,29 2.503,57 352,00 0,00 31/10/2012
731 422500 ELIZETE FORTES DA CUNHA ANALISTA DO MP ATIVO RIBEIRÃO DAS NEVES - COMARCA; RIBEIRAO DAS NEVES-PJ-01PJ 5.598,22 335,89 0,00 0,00 1.978,04 0,00 7.912,15 768,39 1.497,11 0,00 2.265,50 5.646,65 587,00 1.051,29 31/10/2012
732 506100 ELLEM CRISTINA ROCHA FONSECA BOWEN ANALISTA DO MP ATIVO GOVERNADOR VALADARES - COMARCA; COORD REG PJ DEF EDU DIR CRIANCA ADOL RIODOCE 3.935,44 0,00 0,00 0,00 0,00 0,00 3.935,44 432,90 235,92 0,00 668,82 3.266,62 822,00 0,00 31/10/2012
733 468200 ELLEN CRISTINA BERNARDES DARE ANALISTA DO MP ATIVO TRÊS PONTAS - COMARCA; TRES PONTAS-PJ-02PJ 4.924,85 0,00 0,00 0,00 1.641,62 0,00 6.566,47 707,40 1.268,88 0,00 1.976,28 4.590,19 352,00 1.506,06 31/10/2012
734 418800 ELLEN CRISTINA DE QUEIROZ FERREIRA ANALISTA DO MP ATIVO BELO HORIZONTE - COMARCA; CENTRAL DE APOIO TECNICO-SETOR CONTABIL 5.598,22 335,89 0,00 0,00 0,00 0,00 5.934,11 652,75 695,84 0,00 1.348,59 4.585,52 352,00 0,00 31/10/2012
735 328401 ELLEN CRISTINA FERREIRA MORAIS MONTEIRO ANALISTA DO MP ATIVO CAMANDUCAIA - COMARCA; CAMANDUCAIA-PJ-UNPJ 5.598,22 335,89 0,00 0,00 0,00 0,00 5.934,11 652,75 605,34 0,00 1.258,09 4.676,02 587,00 0,00 31/10/2012
736 447100 ELLEN ROSANA DE MACEDO BORGES OFICIAL DO MP ATIVO UBERLÂNDIA - COMARCA; UBERLANDIA-PJ-17PJ 3.519,31 0,00 0,00 0,00 0,00 0,00 3.519,31 387,12 163,03 0,00 550,15 2.969,16 352,00 0,00 31/10/2012
737 477700 ELMA JACOB OFICIAL DO MP ATIVO BELO HORIZONTE - COMARCA; CAO-CRIANCAS E ADOLESCENTES 2.637,71 1.318,85 0,00 0,00 0,00 0,00 3.956,56 435,22 240,15 0,00 675,37 3.281,19 352,00 0,00 31/10/2012
738 123300 ELMA PAULA DOS SANTOS COELHO OFICIAL DO MP ATIVO BELO HORIZONTE - COMARCA; BH-19PJ SAUDE 8.361,90 6.689,52 0,00 0,00 0,00 1.655,66 16.707,08 1.655,66 3.292,10 0,00 4.947,76 11.759,32 352,00 0,00 31/10/2012
739 356500 ELOISA CARDOSO SILVA FRANCA OFICIAL DO MP ATIVO PEÇANHA - COMARCA; PECANHA-PJ-SECRETARIA 3.691,17 369,12 0,00 0,00 0,00 0,00 4.060,29 446,63 260,92 0,00 707,55 3.352,74 352,00 0,00 31/10/2012
740 251901 ELOISA COSTA E SILVA ANALISTA DO MP ATIVO SANTOS DUMONT - COMARCA; SANTOS DUMONT-PJ-02PJ 4.924,85 984,97 0,00 0,00 0,00 0,00 5.909,82 650,08 689,90 0,00 1.339,98 4.569,84 352,00 0,00 31/10/2012
741 400400 ELOIZA MARIA FERRI PIRES DA SILVA OFICIAL DO MP ATIVO BELO HORIZONTE - COMARCA; EXTINTA - DIRETORIA DE COMPRAS E LICITAÇÕES 3.574,80 214,49 0,00 0,00 0,00 0,00 3.789,29 541,87 403,88 0,00 945,75 2.843,54 352,00 1.136,80 31/10/2012
742 258000 ELSO CECIANO PALMEIRA ASSESSOR/OFICIAL ATIVO BELO HORIZONTE - COMARCA; DIRET DE PESSOAL DO MINISTERIO PUBLICO - DPMP 0,00 2.849,66 7.124,13 0,00 0,00 0,00 9.973,79 808,62 1.628,13 0,00 2.436,75 7.537,04 352,00 0,00 31/10/2012
743 206900 ELVIRA RITA DOS SANTOS ANALISTA DO MP ATIVO BELO HORIZONTE - COMARCA; CENTRAL DE APOIO TECNICO-SETOR CONTABIL 10.464,02 2.092,80 0,00 0,00 0,00 0,00 12.556,82 1.381,25 2.316,75 0,00 3.698,00 8.858,82 352,00 0,00 31/10/2012
744 506800 ELVIS FERREIRA DA SILVA ANALISTA DO MP ATIVO BELO HORIZONTE - COMARCA; DIRETORIA DE SISTEMAS DE INFORMACAO 4.769,54 0,00 0,00 0,00 0,00 0,00 4.769,54 524,65 365,92 0,00 890,57 3.878,97 3.567,68 241,18 31/10/2012
745 154300 ELZA MARIA DA SILVA OFICIAL DO MP ATIVO ERVÁLIA - COMARCA; ERVALIA-PJ-SECRETARIA 6.267,25 4.387,09 0,00 0,00 0,00 1.171,98 11.826,32 1.171,98 2.082,91 0,00 3.254,89 8.571,43 352,00 0,00 31/10/2012
746 206600 ELZA MARIA GONTIJO DE MAGALHAES GOMES ANALISTA DO MP ATIVO BELO HORIZONTE - COMARCA; DIVISAO DE ACERVOS BIBLIOGRAFICOS 8.098,20 1.619,64 0,00 0,00 0,00 1.068,96 10.786,80 1.068,96 1.915,88 0,00 2.984,84 7.801,96 352,00 0,00 31/10/2012
747 368401 ELZIRA SIMOES DOS SANTOS ASSESSOR ATIVO BELO HORIZONTE - COMARCA; DIR RELACOES INSTITUCIONAIS 0,00 0,00 7.124,13 0,00 0,00 0,00 7.124,13 430,78 1.084,14 0,00 1.514,92 5.609,21 352,00 0,00 31/10/2012
748 437400 EMANOELLE DA SILVA RODRIGUES OFICIAL DO MP ATIVO UNAÍ - COMARCA; UNAI-PJ-03PJ 3.574,80 214,49 0,00 0,00 0,00 0,00 3.789,29 416,82 174,39 0,00 591,21 3.198,08 352,00 0,00 31/10/2012
749 458900 EMANUELLE CONRAD SILVA FREDERICO ANALISTA DO MP ATIVO DIVINÓPOLIS - COMARCA; DIVINOPOLIS-PJ-08PJ 4.924,85 0,00 0,00 0,00 0,00 0,00 4.924,85 541,73 448,83 0,00 990,56 3.934,29 352,00 0,00 31/10/2012
750 284100 EMERSON MAGNO ALMEIDA PEDROSA DA FONSECA ANALISTA DO MP ATIVO BELO HORIZONTE - COMARCA; CENTRAL DE APOIO TECNICO-SETOR CONTABIL 7.595,56 759,56 0,00 0,00 0,00 0,00 8.355,12 919,06 1.107,37 0,00 2.026,43 6.328,69 822,00 0,00 31/10/2012
751 179900 EMERSON MORAIS DIAS OFICIAL DO MP ATIVO BELO HORIZONTE - COMARCA; EXTINTA - DIVISÃO DE APOIO À LICITAÇÃO 7.356,10 1.471,22 0,00 0,00 0,00 0,00 8.827,32 971,01 1.403,96 0,00 2.374,97 6.452,35 352,00 0,00 31/10/2012
752 488700 EMERSON SIQUEIRA DE SOUSA TEIXEIRA ANALISTA DO MP ATIVO TARUMIRIM - COMARCA; TARUMIRIM-PJ-UNPJ 4.924,85 0,00 0,00 0,00 0,00 0,00 4.924,85 541,73 360,00 0,00 901,73 4.023,12 822,00 0,00 31/10/2012
753 194200 EMILIA ALVES FERREIRA RAMOS OFICIAL DO MP ATIVO UBERLÂNDIA - COMARCA; UBERLANDIA-PJ-04PJ 4.195,87 839,17 0,00 0,00 0,00 0,00 5.035,04 553,85 385,29 0,00 939,14 4.095,90 352,00 0,00 31/10/2012
754 123400 EMILIO CARLOS MARTINS OFICIAL DO MP ATIVO AREADO - COMARCA; AREADO-PJ-UNPJ 8.361,90 5.853,33 0,00 0,00 0,00 0,00 14.215,23 1.563,68 2.677,39 0,00 4.241,07 9.974,16 3.567,68 294,77 31/10/2012
755 297000 ENEIDA SOARES COSTA MELO ANALISTA DO MP ATIVO PIUMHI - COMARCA; PIUMHI-PJ-01PJ 7.595,56 759,56 0,00 0,00 0,00 0,00 8.355,12 919,06 1.288,39 0,00 2.207,45 6.147,67 352,00 0,00 31/10/2012
756 387700 ENI MARIA DOS REIS OFICIAL DO MP ATIVO POUSO ALEGRE - COMARCA; POUSO ALEGRE-PJ-03PJ 3.574,80 214,49 0,00 0,00 0,00 0,00 3.789,29 416,82 174,39 0,00 591,21 3.198,08 352,00 0,00 31/10/2012
757 417300 ERIC BARATTI DA SILVA ANALISTA DO MP ATIVO PRATA - COMARCA; PRATA-PJ-UNPJ 5.598,22 335,89 0,00 0,00 0,00 0,00 5.934,11 652,75 695,84 0,00 1.348,59 4.585,52 352,00 0,00 31/10/2012
758 398900 ERIC TEIXEIRA SILVA OFICIAL DO MP ATIVO UBERLÂNDIA - COMARCA; UBERLANDIA-PJ-08PJ 3.574,80 214,49 0,00 0,00 0,00 0,00 3.789,29 416,82 206,66 0,00 623,48 3.165,81 352,00 0,00 31/10/2012
759 274200 ERICA DE SOUZA ANDRADE OFICIAL DO MP ATIVO BELO HORIZONTE - COMARCA; BH-18PJ DIREITOS HUMANOS 5.085,23 508,52 0,00 0,00 0,00 0,00 5.593,75 615,31 612,54 0,00 1.227,85 4.365,90 352,00 0,00 31/10/2012
760 225700 ERICA GOMES DO COUTO OFICIAL DO MP ATIVO BELO HORIZONTE - COMARCA; BH-18PJ VIOLENCIA DOMESTICA 5.780,51 1.156,10 0,00 0,00 0,00 0,00 6.936,61 763,03 941,20 0,00 1.704,23 5.232,38 352,00 0,00 31/10/2012
761 524800 ERICA MACHADO DA COSTA E SOUZA ANALISTA DO MP ATIVO BELO HORIZONTE - COMARCA; BH-02PJ FAMILIA 4.332,50 0,00 0,00 0,00 0,00 0,00 4.332,50 476,58 315,43 0,00 792,01 3.540,49 352,00 0,00 31/10/2012
762 249500 ERICA RODRIGUES ANDRADE OFICIAL DO MP ATIVO SÃO FRANCISCO - COMARCA; SAO FRANCISCO-PJ-02PJ 4.195,87 839,17 0,00 0,00 0,00 0,00 5.035,04 553,85 475,80 0,00 1.029,65 4.005,39 587,00 0,00 31/10/2012
763 260800 ERICA VIANA GIARDINI DE OLIVEIRA OFICIAL DO MP ATIVO BELO HORIZONTE - COMARCA; EXTINTA - DIVISÃO DE COMPRAS 5.085,23 508,52 0,00 0,00 0,00 0,00 5.593,75 615,31 612,54 0,00 1.227,85 4.365,90 352,00 0,00 31/10/2012
764 299800 ERICH DOUGLAS RIBEIRO GARCIA ANALISTA DO MP ATIVO BELO HORIZONTE - COMARCA; CENTRAL DE APOIO TECNICO-SETOR CONTABIL 7.595,56 759,56 0,00 0,00 0,00 0,00 8.355,12 919,06 1.288,39 0,00 2.207,45 6.147,67 352,00 0,00 31/10/2012
765 365000 ERICK EDUARDO JOSE DA SILVA OFICIAL DO MP ATIVO ALÉM PARAÍBA - COMARCA; ALEM PARAIBA-PJ-01PJ 3.408,38 340,84 0,00 0,00 0,00 0,00 3.749,22 412,41 198,63 0,00 611,04 3.138,18 352,00 0,00 31/10/2012
766 123500 ERICO SEGISMUNDO LIMA VILASBOAS ANALISTA DO MP ATIVO MONTES CLAROS - COMARCA; COORD REG PJ DEF EDUC DIR CRIANCA ADOL NORTE 11.931,59 9.545,28 0,00 0,00 0,00 0,00 21.476,87 2.362,46 4.273,66 0,00 6.636,12 14.840,75 352,00 0,00 31/10/2012
767 227400 ERIKA DE LAET GOULART BOECHAT ASSESSOR/OFICIAL ATIVO BELO HORIZONTE - COMARCA; NUCLEO DE APOIO A ATIVIDADE-FIM 0,00 1.424,83 7.124,13 0,00 0,00 0,00 8.548,96 763,03 1.384,60 0,00 2.147,63 6.401,33 352,00 0,00 31/10/2012
768 451800 ERIKA DELLARETTI GUIMARAES OFICIAL DO MP ATIVO LAVRAS - COMARCA; LAVRAS-PJ-04PJ 2.903,86 0,00 0,00 0,00 0,00 0,00 2.903,86 319,42 80,87 0,00 400,29 2.503,57 352,00 0,00 31/10/2012
769 285100 ERIKA FERREIRA DA SILVA OFICIAL DO MP ATIVO JUIZ DE FORA - COMARCA; JUIZ DE FORA-PJ-14PJ 5.085,23 508,52 0,00 0,00 0,00 0,00 5.593,75 615,31 612,54 0,00 1.227,85 4.365,90 352,00 0,00 31/10/2012
770 420100 ERIKA JEANINE VERSIANI DE CASTRO ANALISTA DO MP ATIVO MONTES CLAROS - COMARCA; COORD REG PJ DEF EDUC DIR CRIANCA ADOL NORTE 5.598,22 335,89 0,00 0,00 0,00 0,00 5.934,11 764,67 944,85 0,00 1.709,52 4.224,59 352,00 1.017,40 31/10/2012
771 491000 ERIKA ROCHA PEREIRA E SILVA ANALISTA DO MP ATIVO BELO HORIZONTE - COMARCA; DIRETORIA DE SISTEMAS DE INFORMACAO 4.924,85 0,00 0,00 0,00 0,00 0,00 4.924,85 541,73 448,83 0,00 990,56 3.934,29 352,00 0,00 31/10/2012
772 283201 ERIKA STEHLING ASSESSOR/ANALISTA ATIVO BELO HORIZONTE - COMARCA; CENTRAL DE APOIO TECNICO-SETOR DE ENGENHARIA 0,00 0,00 7.124,13 0,00 0,00 0,00 7.124,13 541,73 1.053,63 0,00 1.595,36 5.528,77 3.567,68 294,77 31/10/2012
773 383500 ERIKO RODRIGUES VELOSO ANALISTA DO MP ATIVO BOCAIÚVA - COMARCA; BOCAIUVA-PJ-01PJ 5.085,23 305,11 0,00 0,00 0,00 0,00 5.390,34 592,94 562,76 0,00 1.155,70 4.234,64 352,00 0,00 31/10/2012
774 254000 ERLANDIA DA SILVA MENDES OFICIAL DO MP ATIVO IPATINGA - COMARCA; IPATINGA-PJ-03PJ 5.250,75 1.575,23 0,00 0,00 0,00 0,00 6.825,98 750,86 778,37 0,00 1.529,23 5.296,75 822,00 0,00 31/10/2012
775 208600 ERNANE JOSE DA COSTA ANALISTA DO MP ATIVO BELO HORIZONTE - COMARCA; CENTRAL DE APOIO TECNICO-SETOR MEDICO 10.464,02 5.232,01 0,00 0,00 0,00 0,00 15.696,03 1.726,56 3.085,07 0,00 4.811,63 10.884,40 352,00 0,00 31/10/2012
776 260600 ERNANI CALDEIRA DE ANDRADE ANALISTA DO MP ATIVO BELO HORIZONTE - COMARCA; CENTRAL DE APOIO TECNICO-SETOR CONTABIL 8.361,90 1.672,38 0,00 0,00 0,00 0,00 10.034,28 1.103,77 1.654,11 0,00 2.757,88 7.276,40 352,00 0,00 31/10/2012
777 348500 ERNILANDIA OLIVEIRA DIAS OFICIAL DO MP ATIVO BELO HORIZONTE - COMARCA; EXTINTA - JUIZO DE FAMILIA-02 PJ-02 VARA 4.063,61 406,36 0,00 0,00 0,00 0,00 4.469,97 491,70 342,96 0,00 834,66 3.635,31 352,00 0,00 31/10/2012
778 199300 ERTON PORTINARI DE ANDRADE OFICIAL DO MP ATIVO SETE LAGOAS - COMARCA; SETE LAGOAS-PJ-01PJ 6.069,59 1.820,88 0,00 0,00 0,00 0,00 7.890,47 1.016,76 1.415,25 0,00 2.432,01 5.458,46 587,00 1.352,80 31/10/2012
779 430400 ESDRAS SOARES VILAS BOAS RIBEIRO OFICIAL DO MP ATIVO BELO HORIZONTE - COMARCA; BH-17PJ PATRIMONIO PUBLICO-SECRETARIA 3.574,80 214,49 0,00 0,00 0,00 0,00 3.789,29 533,32 430,11 0,00 963,43 2.825,86 352,00 1.059,08 31/10/2012
780 326900 ESTER ALICE PIMENTA OFICIAL DO MP ATIVO BELO HORIZONTE - COMARCA; BH-14PJ DEFESA CONSUMIDOR-SECRETARIA 3.811,39 381,14 0,00 0,00 0,00 0,00 4.192,53 627,22 593,78 0,00 1.221,00 2.971,53 352,00 1.509,48 31/10/2012
781 503700 ESTHER GONCALVES FONSECA ANALISTA DO MP ATIVO BELO HORIZONTE - COMARCA; DIR CRIACAO E MIDIAS 4.063,61 0,00 0,00 0,00 1.354,54 0,00 5.418,15 461,57 642,95 0,00 1.104,52 4.313,63 352,00 132,44 31/10/2012
782 475600 ETIENE DE FATIMA OLIVEIRA PEREIRA ANALISTA DO MP ATIVO PATROCÍNIO - COMARCA; PATROCINIO-PJ-04PJ 4.473,58 0,00 0,00 0,00 0,00 0,00 4.473,58 582,29 539,06 0,00 1.121,35 3.352,23 352,00 819,94 31/10/2012
783 428800 EUGENIA RODRIGUES TRAJANO BORGES ANALISTA DO MP ATIVO UBERABA - COMARCA; UBERABA-PJ-08PJ 5.085,23 305,11 0,00 0,00 0,00 0,00 5.390,34 592,94 562,76 0,00 1.155,70 4.234,64 352,00 0,00 31/10/2012
784 272700 EUGENIO DE BARCELOS FILHO OFICIAL DO MP ATIVO FRUTAL - COMARCA; FRUTAL-PJ-02PJ 4.195,87 419,59 0,00 0,00 0,00 0,00 4.615,46 586,03 502,13 0,00 1.088,16 3.527,30 638,72 712,08 31/10/2012
785 254100 EULALIA ALVES MIRANDA LUCAS OFICIAL DO MP ATIVO ALMENARA - COMARCA; ALMENARA-PJ-SECRETARIA 5.085,23 1.017,05 0,00 0,00 0,00 0,00 6.102,28 727,19 725,70 0,00 1.452,89 4.649,39 352,00 508,52 31/10/2012
786 225800 EURO CESAR VIEIRA BARBOSA ANALISTA DO MP ATIVO BELO HORIZONTE - COMARCA; AUDITORIA INTERNA 9.505,17 1.901,03 0,00 0,00 0,00 0,00 11.406,20 1.254,68 1.989,88 0,00 3.244,56 8.161,64 587,00 0,00 31/10/2012
787 199400 EUSTAQUIO ADAILTON LIMA E SILVA OFICIAL DO MP ATIVO MANGA - COMARCA; MANGA-PJ-01PJ 7.124,13 2.849,65 0,00 0,00 0,00 0,00 9.973,78 1.097,12 1.548,79 0,00 2.645,91 7.327,87 1.360,83 70,93 31/10/2012
788 249000 EUSTAQUIO GOMES DE OLIVEIRA OFICIAL DO MP ATIVO BELO HORIZONTE - COMARCA; CAO-FUNDACOES-CONTROLADORIA E APOIO ENTIDADES 5.085,23 2.034,09 0,00 0,00 0,00 0,00 7.119,32 783,13 895,41 0,00 1.678,54 5.440,78 3.567,68 294,77 31/10/2012
789 67100 EVA DAS DORES BARROS VALGAS ANALISTA DO MP ATIVO FERROS - COMARCA; FERROS-PJ-SECRETARIA 11.477,24 5.738,62 0,00 0,00 0,00 0,00 17.215,86 1.893,74 3.321,29 0,00 5.215,03 12.000,83 352,00 0,00 31/10/2012
790 517000 EVALDO SENA COSTA FILHO ANALISTA DO MP ATIVO CONTAGEM - COMARCA; CONTAGEM-PJ-21PJ 3.935,44 787,09 0,00 0,00 1.574,18 0,00 6.296,71 519,48 832,21 0,00 1.351,69 4.945,02 587,00 0,00 31/10/2012
791 217500 EVELANGE LEAO RABELO ASSESSOR ATIVO BELO HORIZONTE - COMARCA; EXTINTA-COORD EST DEF DIR FAM PES DEFIC IDOSO 0,00 421,56 2.107,81 0,00 0,00 0,00 2.529,37 316,95 43,15 0,00 360,10 2.169,27 352,00 0,00 31/10/2012
792 469000 EWERTON CARDOSO DE SA RODRIGUES ANALISTA DO MP ATIVO CAMPO BELO - COMARCA; CAMPO BELO-PJ-01PJ 4.473,58 0,00 0,00 0,00 0,00 0,00 4.473,58 492,09 343,69 0,00 835,78 3.637,80 3.567,68 241,18 31/10/2012
793 368900 FABIANA BARBOSA SIQUEIRA OFICIAL DO MP ATIVO BELO HORIZONTE - COMARCA; CAO-ORDEM ECONOMICA E TRIBUTARIA-SECRETARIA 4.473,58 447,36 0,00 0,00 0,00 0,00 4.920,94 541,30 447,87 0,00 989,17 3.931,77 587,00 0,00 31/10/2012
794 273800 FABIANA CARNEIRO AMORIM COORDENADOR/OFICIAL ATIVO BELO HORIZONTE - COMARCA; BH-23PJ INFRACIONAL-COORD ADM INFRACIONAL 0,00 809,82 8.098,20 0,00 0,00 0,00 8.908,02 577,11 1.443,96 0,00 2.021,07 6.886,95 352,00 0,00 31/10/2012
795 519300 FABIANA DE OLIVEIRA LOUREIRO ANALISTA DO MP ATIVO BELO HORIZONTE - COMARCA; BH-09PJ AUDITORIA MILITAR 4.769,54 0,00 0,00 0,00 1.589,85 0,00 6.359,39 587,15 987,08 0,00 1.574,23 4.785,16 352,00 568,15 31/10/2012
796 363400 FABIANA DOURADO DUPIN VIEGAS ANALISTA DO MP ATIVO BELO HORIZONTE - COMARCA; PROC. JUSTICA DE HABEAS CORPUS 7.124,13 712,41 0,00 0,00 0,00 0,00 7.836,54 862,02 1.161,46 0,00 2.023,48 5.813,06 587,00 0,00 31/10/2012
797 410800 FABIANA DUARTE QUITITE ANALISTA DO MP ATIVO BELO HORIZONTE - COMARCA; COORD ESTADUAL COMBATE CRIMES CIBERNETICOS 5.598,22 335,89 0,00 0,00 0,00 0,00 5.934,11 686,33 770,55 0,00 1.456,88 4.477,23 352,00 305,22 31/10/2012
798 419500 FABIANA EULALIA DOS SANTOS ANALISTA DO MP ATIVO SÃO JOÃO DEL REI - COMARCA; SAO JOAO DEL REI-PJ-01PJ 5.598,22 335,89 0,00 0,00 0,00 0,00 5.934,11 652,75 695,84 0,00 1.348,59 4.585,52 352,00 0,00 31/10/2012
799 376300 FABIANA MATTOSO LEMOS ANALISTA DO MP ATIVO BELO HORIZONTE - COMARCA; COORD REG BACIAS RIO VELHAS E PARAOPEBA 6.069,59 364,18 0,00 0,00 0,00 0,00 6.433,77 707,71 818,14 0,00 1.525,85 4.907,92 352,00 0,00 31/10/2012
800 331500 FABIANA PACHECO OFICIAL DO MP ATIVO GUAXUPÉ - COMARCA; GUAXUPE-PJ-01PJ 4.473,58 447,36 0,00 0,00 0,00 0,00 4.920,94 541,30 447,87 0,00 989,17 3.931,77 369,92 0,00 31/10/2012
801 510700 FABIANA PEREIRA SANTOS BORGES ANALISTA DO MP ATIVO BELO HORIZONTE - COMARCA; DIRETORIA DE SISTEMAS DE INFORMACAO 3.935,44 0,00 0,00 0,00 0,00 0,00 3.935,44 432,90 235,92 0,00 668,82 3.266,62 587,00 0,00 31/10/2012
802 181700 FABIANA SOUZA FERREIRA OFICIAL DO MP ATIVO BELO HORIZONTE - COMARCA; BH-23PJ CIVEL-SETOR ATEND PUB 3.778,02 787,09 0,00 0,00 0,00 0,00 4.565,11 519,48 284,06 0,00 803,54 3.761,57 587,00 0,00 31/10/2012
803 272900 FABIANA STOCKLER LEITE OFICIAL DO MP ATIVO LAJINHA - COMARCA; LAJINHA-PJ-SECRETARIA 4.924,85 1.477,46 0,00 0,00 0,00 0,00 6.402,31 704,25 719,93 0,00 1.424,18 4.978,13 743,16 0,00 31/10/2012
804 225500 FABIANE DE FATIMA PORTELLA ANALISTA DO MP ATIVO BELO HORIZONTE - COMARCA; SERVICO MEDICO-DEPTO PERIC MEDICA SAUDE OCUP 9.205,45 1.841,09 0,00 0,00 0,00 0,00 11.046,54 1.215,12 1.947,11 0,00 3.162,23 7.884,31 352,00 0,00 31/10/2012
805 433800 FABIANE DINIZ MATTOS ANALISTA DO MP ATIVO BELO HORIZONTE - COMARCA; BH-23PJ INFRACIONAL-ASS JURIDICA 5.598,22 335,89 0,00 0,00 0,00 0,00 5.934,11 652,75 695,84 0,00 1.348,59 4.585,52 352,00 0,00 31/10/2012
806 455000 FABIANO CARVALHO DA SILVA ANALISTA DO MP ATIVO LAVRAS - COMARCA; COORD REG DO MA DA BACIA DO RIO GRANDE 5.421,69 0,00 0,00 0,00 0,00 0,00 5.421,69 596,39 570,43 0,00 1.166,82 4.254,87 352,00 0,00 31/10/2012
807 498800 FABIANO FURTADO PESSOA COELHO ANALISTA DO MP ATIVO BELO HORIZONTE - COMARCA; DIRETORIA DE REDES E BANCOS DE DADOS 4.473,58 0,00 0,00 0,00 0,00 0,00 4.473,58 610,18 555,87 0,00 1.166,05 3.307,53 3.271,15 1.274,83 31/10/2012
808 394600 FABIANO PALHARES SILVA ANALISTA DO MP ATIVO BELO HORIZONTE - COMARCA; CENTRAL DE APOIO TECN-SETOR DE MEIO AMBIENTE 6.069,59 364,18 0,00 0,00 0,00 0,00 6.433,77 707,71 818,14 0,00 1.525,85 4.907,92 587,00 0,00 31/10/2012
809 444400 FABIANO SARAIVA MEDEIROS ANALISTA DO MP ATIVO BETIM - COMARCA; BETIM-PJ-11PJ 5.421,69 0,00 0,00 0,00 0,00 0,00 5.421,69 596,39 525,17 0,00 1.121,56 4.300,13 587,00 0,00 31/10/2012
810 408700 FABIANO SOARES PORTILHO ANALISTA DO MP ATIVO VIÇOSA - COMARCA; VICOSA-PJ-SECRETARIA 5.085,23 305,11 0,00 0,00 0,00 0,00 5.390,34 592,94 562,76 0,00 1.155,70 4.234,64 352,00 0,00 31/10/2012
811 384301 FABIO BRUNO DA SILVA ANALISTA DO MP ATIVO BONFIM - COMARCA; BONFIM-PJ-UNPJ 5.085,23 305,11 0,00 0,00 1.796,78 0,00 7.187,12 592,94 1.056,87 0,00 1.649,81 5.537,31 352,00 0,00 31/10/2012
812 442600 FABIO CARVALHO ANALISTA DO MP ATIVO BELO HORIZONTE - COMARCA; BH-09PJ AUDITORIA MILITAR 4.473,58 0,00 0,00 0,00 0,00 0,00 4.473,58 517,40 394,68 0,00 912,08 3.561,50 352,00 230,04 31/10/2012
813 123700 FABIO JOSE ANDRADE NOGUEIRA OFICIAL DO MP ATIVO FORMIGA - COMARCA; FORMIGA-PJ-SECRETARIA 6.069,59 4.248,72 0,00 0,00 0,00 0,00 10.318,31 1.135,01 852,83 0,00 1.987,84 8.330,47 352,00 0,00 31/10/2012
814 240101 FABIO JUNQUEIRA DE ASSIS FONSECA OFICIAL DO MP ATIVO BELO HORIZONTE - COMARCA; BH-17PJ PATRIMONIO PUBLICO 3.408,38 340,84 0,00 0,00 0,00 0,00 3.749,22 412,41 198,63 0,00 611,04 3.138,18 352,00 0,00 31/10/2012
815 271500 FABIO LUIZ VIEIRA OFICIAL DO MP ATIVO SANTA VITÓRIA - COMARCA; SANTA VITORIA-PJ-UNPJ 4.332,50 433,25 0,00 0,00 0,00 0,00 4.765,75 614,10 519,34 0,00 1.133,44 3.632,31 1.066,40 817,00 31/10/2012
816 213100 FABIO PRATES GONCALVES ASSESSOR ATIVO BELO HORIZONTE - COMARCA; DIR RELACOES INSTITUCIONAIS 0,00 703,86 3.519,31 0,00 0,00 0,00 4.223,17 430,78 227,09 0,00 657,87 3.565,30 587,00 0,00 31/10/2012
817 436700 FABIO SANTIAGO DE CARVALHO OFICIAL DO MP ATIVO POÇO FUNDO - COMARCA; POCO FUNDO-PJ-UNPJ 3.574,80 214,49 0,00 0,00 0,00 0,00 3.789,29 484,71 330,23 0,00 814,94 2.974,35 352,00 617,12 31/10/2012
818 208400 FABIOLA DE SOUSA CARDOSO ASSESSOR/ANALISTA ATIVO BELO HORIZONTE - COMARCA; CGMP-ASSESSORIA JURIDICA 10.464,02 3.819,62 0,00 0,00 0,00 0,00 14.283,64 1.381,25 2.791,63 0,00 4.172,88 10.110,76 352,00 0,00 31/10/2012
819 392200 FABIOLA LEROY COSTA ANALISTA DO MP ATIVO ESMERALDAS - COMARCA; ESMERALDAS-PJ-01PJ 5.085,23 305,11 0,00 0,00 0,00 0,00 5.390,34 592,94 562,76 0,00 1.155,70 4.234,64 352,00 0,00 31/10/2012
820 409000 FABIOLA MONTEIRO DE CARVALHO CASTRO ANALISTA DO MP ATIVO BOM SUCESSO - COMARCA; BOM SUCESSO-PJ-UNPJ 5.598,22 335,89 0,00 0,00 0,00 0,00 5.934,11 652,75 695,84 0,00 1.348,59 4.585,52 352,00 0,00 31/10/2012
821 227900 FABIOLA PIMENTA DE CARVALHO OFICIAL DO MP ATIVO MONTES CLAROS - COMARCA; COORD REG BACIA RIOS VERDE GRANDE E PARDO 4.473,58 894,72 0,00 0,00 0,00 0,00 5.368,30 590,51 512,11 0,00 1.102,62 4.265,68 352,00 0,00 31/10/2012
822 525800 FABRICIA ALVES DANTAS OFICIAL DO MP ATIVO MONTES CLAROS - COMARCA; MONTES CLAROS-PJ-02PJ 3.095,99 0,00 0,00 0,00 0,00 0,00 3.095,99 340,56 106,51 0,00 447,07 2.648,92 587,00 0,00 31/10/2012
823 263400 FABRICIA PINTO TEIXEIRA SANTIAGO OFICIAL DO MP ATIVO BELO HORIZONTE - COMARCA; CAO-FUNDACOES-SECRETARIA 5.085,23 508,52 0,00 0,00 1.864,58 0,00 7.458,33 615,31 1.034,79 0,00 1.650,10 5.808,23 822,00 0,00 31/10/2012
824 420800 FABRICIO BERNARDES DE OLIVEIRA OFICIAL DO MP ATIVO ITURAMA - COMARCA; ITURAMA-PJ-02PJ 3.300,91 198,05 0,00 0,00 0,00 0,00 3.498,96 450,86 268,63 0,00 719,49 2.779,47 515,07 599,80 31/10/2012
825 474000 FABRICIO DE FREITAS SALES ANALISTA DO MP ATIVO BUENÓPOLIS - COMARCA; BUENOPOLIS-PJ-UNPJ 4.924,85 0,00 0,00 0,00 0,00 0,00 4.924,85 541,73 448,83 0,00 990,56 3.934,29 352,00 0,00 31/10/2012
826 510100 FABRICIO FURTADO ASSIS DO CARMO ANALISTA DO MP ATIVO BELO HORIZONTE - COMARCA; SERVICO MEDICO-DEPTO PERIC MEDICA SAUDE OCUP 4.332,50 0,00 0,00 0,00 0,00 0,00 4.332,50 476,58 315,43 0,00 792,01 3.540,49 352,00 0,00 31/10/2012
827 519600 FABRICIO GONTIJO SALVATI ANALISTA DO MP ATIVO JUIZ DE FORA - COMARCA; JUIZ DE FORA-PJ-13PJ 4.332,50 0,00 0,00 0,00 0,00 0,00 4.332,50 476,58 315,43 0,00 792,01 3.540,49 352,00 0,00 31/10/2012
828 428200 FABRICIO ORZIL VIANA ANALISTA DO MP ATIVO SANTA LUZIA - COMARCA; SANTA LUZIA-PJ-04PJ 5.085,23 305,11 0,00 0,00 0,00 0,00 5.390,34 592,94 562,76 0,00 1.155,70 4.234,64 352,00 0,00 31/10/2012
829 455600 FABRICIO PAIVA DA ROCHA ANALISTA DO MP ATIVO ANDRELÂNDIA - COMARCA; ANDRELANDIA-PJ-UNPJ 4.924,85 0,00 0,00 0,00 0,00 0,00 4.924,85 621,16 666,91 0,00 1.288,07 3.636,78 532,51 889,00 31/10/2012
830 511500 FABRICIO RENE CARDOSO DE PADUA ANALISTA DO MP ATIVO SÃO SEBASTIÃO DO PARAÍSO - COMARCA; SAO SEBASTIAO DO PARAISO-PJ-03PJ 4.332,50 0,00 0,00 0,00 1.444,17 0,00 5.776,67 476,58 700,99 0,00 1.177,57 4.599,10 352,00 0,00 31/10/2012
831 496100 FABRICIO RESENDE GONCALVES OFICIAL DO MP ATIVO ENTRE-RIOS DE MINAS - COMARCA; ENTRE RIOS DE MINAS-PJ-UNPJ 2.637,71 0,00 0,00 0,00 0,00 0,00 2.637,71 290,15 53,29 0,00 343,44 2.294,27 352,00 0,00 31/10/2012
832 514900 FADUA MARIA DRUMOND CHEQUER MAGNO ANALISTA DO MP ATIVO ALMENARA - COMARCA; COORD REG INCLUSAO MOBILIZ VALE JEQUITINHONHA 4.769,54 0,00 0,00 0,00 0,00 0,00 4.769,54 524,65 410,81 0,00 935,46 3.834,08 352,00 0,00 31/10/2012
833 282500 FANNY FERREIRA MELO FAVERO DE FRAVET OFICIAL DO MP ATIVO ARAXÁ - COMARCA; ARAXA-PJ-03PJ 4.195,87 419,59 0,00 0,00 0,00 0,00 4.615,46 604,18 587,76 0,00 1.191,94 3.423,52 822,00 877,04 31/10/2012
834 382800 FATIMA DE OLIVEIRA COELHO E SILVA OFICIAL DO MP ATIVO NOVA LIMA - COMARCA; NOVA LIMA-PJ-04PJ 2.998,37 299,84 0,00 0,00 0,00 0,00 3.298,21 362,80 133,51 0,00 496,31 2.801,90 352,00 0,00 31/10/2012
835 398600 FELIPE ANTONIO HORTA DE PAULA OFICIAL DO MP ATIVO BELO HORIZONTE - COMARCA; PROC. JUSTICA DIR. DIFUSOS E COLETIVOS-SEC 3.574,80 214,49 0,00 0,00 0,00 0,00 3.789,29 416,82 206,66 0,00 623,48 3.165,81 352,00 0,00 31/10/2012
836 529200 FELIPE AUGUSTO NASCIMENTO PEREIRA ASSESSOR ATIVO UBERABA - COMARCA; COORD REG PP TRIANGULO MINEIRO UBERABA 0,00 0,00 3.519,31 0,00 0,00 0,00 3.519,31 425,84 157,22 0,00 583,06 2.936,25 352,00 0,00 31/10/2012
837 430900 FELIPE BOY VIEIRA ANALISTA DO MP ATIVO BELO HORIZONTE - COMARCA; CAO-DH CONT EXT ATIV POLIC E AP COMUN-SEC ADM 5.598,22 335,89 0,00 0,00 0,00 0,00 5.934,11 652,75 695,84 0,00 1.348,59 4.585,52 352,00 0,00 31/10/2012
838 487300 FELIPE FERNANDES SILVEIRA ASSESSOR ATIVO BELO HORIZONTE - COMARCA; DIRETORIA DE MANUTENCAO PREDIAL 0,00 0,00 2.107,81 0,00 0,00 0,00 2.107,81 270,58 15,01 0,00 285,59 1.822,22 352,00 0,00 31/10/2012
839 394200 FELIPE VALENTE VASCONCELOS SOUSA ANALISTA DO MP ATIVO SÃO SEBASTIÃO DO PARAÍSO - COMARCA; SAO SEBASTIAO DO PARAISO-PJ-05PJ 6.069,59 364,18 0,00 0,00 0,00 0,00 6.433,77 802,07 982,83 0,00 1.784,90 4.648,87 384,00 857,82 31/10/2012
840 508400 FERNANDA AGANETTI MATTOS DE OLIVEIRA ANALISTA DO MP ATIVO BELO HORIZONTE - COMARCA; BH-19PJ SAUDE 4.769,54 0,00 0,00 0,00 0,00 0,00 4.769,54 524,65 410,81 0,00 935,46 3.834,08 352,00 0,00 31/10/2012
841 453600 FERNANDA ALBERNAZ RABELO ANALISTA DO MP ATIVO BELO HORIZONTE - COMARCA; ASSESS TECNICO-JUR JUNTO AS PROC. DE JUST 5.421,69 0,00 0,00 0,00 0,00 0,00 5.421,69 596,39 570,43 0,00 1.166,82 4.254,87 352,00 0,00 31/10/2012
842 255600 FERNANDA ALINA DE ALMEIDA ANDRADE OFICIAL DO MP ATIVO BELO HORIZONTE - COMARCA; DIR ESTRUTURA E PROCESSOS ORGANIZACIONAIS 4.619,20 461,92 0,00 0,00 0,00 0,00 5.081,12 558,92 487,08 0,00 1.046,00 4.035,12 352,00 0,00 31/10/2012
843 443200 FERNANDA ALMEIDA LOPES ANALISTA DO MP ATIVO CONTAGEM - COMARCA; CONTAGEM-PJ-23PJ 5.421,69 0,00 0,00 0,00 0,00 0,00 5.421,69 790,63 1.002,62 0,00 1.793,25 3.628,44 352,00 1.765,86 31/10/2012
844 281100 FERNANDA ANANIAS MEIRA ANALISTA DO MP ATIVO BELO HORIZONTE - COMARCA; BH-23PJ INFRACIONAL-ASS JURIDICA 7.595,56 759,56 0,00 0,00 0,00 0,00 8.355,12 919,06 1.288,39 0,00 2.207,45 6.147,67 352,00 0,00 31/10/2012
845 451200 FERNANDA BLOISE PRADO OFICIAL DO MP ATIVO BELO HORIZONTE - COMARCA; CAO-MEIO AMBIENTE-SECRETARIA 3.196,81 0,00 0,00 0,00 0,00 0,00 3.196,81 351,65 119,97 0,00 471,62 2.725,19 352,00 0,00 31/10/2012
846 427900 FERNANDA BRAGA CARNEIRO BICALHO ANALISTA DO MP ATIVO PEÇANHA - COMARCA; PECANHA-PJ-SECRETARIA 5.085,23 305,11 0,00 0,00 0,00 0,00 5.390,34 592,94 517,50 0,00 1.110,44 4.279,90 352,00 0,00 31/10/2012
847 507100 FERNANDA CABRINI VAZ MOTA ANALISTA DO MP ATIVO BELO HORIZONTE - COMARCA; ASSESSORIA JURIDICO-ADMINISTRATIVA 4.473,58 0,00 0,00 0,00 0,00 0,00 4.473,58 507,61 372,91 0,00 880,52 3.593,06 2.141,43 275,29 31/10/2012
848 259800 FERNANDA CALZAVARA DE SOUSA COORDENADOR/OFICIAL ATIVO BELO HORIZONTE - COMARCA; DIRET DE FORMACAO, APERFEIC. E POS-GRADUACAO 0,00 920,55 9.205,45 0,00 0,00 0,00 10.126,00 635,34 1.853,40 0,00 2.488,74 7.637,26 352,00 0,00 31/10/2012
849 494400 FERNANDA CAMPOS BARATA OFICIAL DO MP ATIVO JUIZ DE FORA - COMARCA; JUIZ DE FORA-PJ-08PJ 2.637,71 0,00 0,00 0,00 0,00 0,00 2.637,71 290,15 53,29 0,00 343,44 2.294,27 587,00 0,00 31/10/2012
850 471600 FERNANDA CAMPOS DE CERQUEIRA LANA ANALISTA DO MP ATIVO BELO HORIZONTE - COMARCA; PROC JUST RECURSOS ESP E EXTRAORD CRIMINAIS 4.473,58 0,00 0,00 0,00 0,00 0,00 4.473,58 492,09 343,69 0,00 835,78 3.637,80 352,00 0,00 31/10/2012
851 294500 FERNANDA COSTA FLORES OFICIAL DO MP ATIVO PARÁ DE MINAS - COMARCA; PARA DE MINAS-PJ-04PJ 5.085,23 508,52 0,00 0,00 0,00 0,00 5.593,75 615,31 567,29 0,00 1.182,60 4.411,15 352,00 0,00 31/10/2012
852 344500 FERNANDA CRISTINA DE SOUZA PAZ ASSESSOR ATIVO BELO HORIZONTE - COMARCA; CENTRAL DE APOIO TECN-SETOR DE MEIO AMBIENTE 0,00 0,00 3.519,31 0,00 0,00 0,00 3.519,31 425,84 157,22 0,00 583,06 2.936,25 822,00 0,00 31/10/2012
853 337800 FERNANDA CRISTINA REIS ROLAND CLIMACO DA SILVA ASSESSOR/OFICIAL ATIVO BELO HORIZONTE - COMARCA; DIRETORIA-GERAL 0,00 712,41 7.124,13 0,00 0,00 0,00 7.836,54 577,11 1.239,81 0,00 1.816,92 6.019,62 352,00 0,00 31/10/2012
854 429801 FERNANDA CUNHA PINHEIRO DA SILVA ANALISTA DO MP ATIVO BELO HORIZONTE - COMARCA; DIRETORIA DE PRODUCAO EDITORIAL 4.332,50 0,00 0,00 0,00 0,00 0,00 4.332,50 476,58 315,43 0,00 792,01 3.540,49 352,00 0,00 31/10/2012
855 408000 FERNANDA DAS NEVES RAMOS ANALISTA DO MP ATIVO BELO HORIZONTE - COMARCA; CENTRAL DE APOIO TECNICO-SETOR CONTABIL 5.598,22 335,89 0,00 0,00 0,00 0,00 5.934,11 652,75 695,84 0,00 1.348,59 4.585,52 352,00 0,00 31/10/2012
856 496000 FERNANDA DE ALMEIDA VIANA ANALISTA DO MP ATIVO BELO HORIZONTE - COMARCA; PROC JUST RECURSOS ESP E EXTRAORD CRIMINAIS 4.473,58 0,00 0,00 0,00 0,00 0,00 4.473,58 492,09 343,69 0,00 835,78 3.637,80 352,00 0,00 31/10/2012
857 521600 FERNANDA DE ANDRADE ROCHA ANALISTA DO MP ATIVO SETE LAGOAS - COMARCA; SETE LAGOAS-PJ-05PJ 4.332,50 0,00 0,00 0,00 0,00 0,00 4.332,50 476,58 315,43 0,00 792,01 3.540,49 352,00 0,00 31/10/2012
858 266700 FERNANDA DE CASTRO LUCAS OFICIAL DO MP ATIVO BELO HORIZONTE - COMARCA; DIRET DE DESENV DE RECURSOS HUMANOS-DDRH 5.085,23 508,52 0,00 0,00 0,00 0,00 5.593,75 615,31 612,54 0,00 1.227,85 4.365,90 352,00 0,00 31/10/2012
859 433200 FERNANDA DE FIGUEIREDO NORTE ANALISTA DO MP ATIVO BELO HORIZONTE - COMARCA; ASSESS JUR DO CONS SUPERIOR DO MINISTERIO PUB 5.598,22 335,89 0,00 0,00 0,00 0,00 5.934,11 820,62 1.069,36 0,00 1.889,98 4.044,13 352,00 1.526,10 31/10/2012
860 419200 FERNANDA DE MIRANDA MARTINS SIMOES ANALISTA DO MP ATIVO UBERLÂNDIA - COMARCA; UBERLANDIA-PJ-19PJ 5.598,22 335,89 0,00 0,00 0,00 0,00 5.934,11 652,75 695,84 0,00 1.348,59 4.585,52 352,00 0,00 31/10/2012
861 441400 FERNANDA DE MORAIS PINTO ANALISTA DO MP ATIVO BELO HORIZONTE - COMARCA; PROC. JUSTICA DIR. DIFUSOS E COLETIVOS-SEC 5.598,22 335,89 0,00 0,00 0,00 0,00 5.934,11 682,26 761,49 0,00 1.443,75 4.490,36 352,00 268,21 31/10/2012
862 432200 FERNANDA DE MOURA GUIMARAES ANALISTA DO MP ATIVO BELO HORIZONTE - COMARCA; CAO-CRIMINAL-SECRETARIA 5.598,22 335,89 0,00 0,00 0,00 0,00 5.934,11 652,75 695,84 0,00 1.348,59 4.585,52 352,00 0,00 31/10/2012
863 461800 FERNANDA DE OLIVEIRA SANTOS ANALISTA DO MP ATIVO JUIZ DE FORA - COMARCA; JUIZ DE FORA-PJ-21PJ 4.924,85 0,00 0,00 0,00 0,00 0,00 4.924,85 541,73 448,83 0,00 990,56 3.934,29 352,00 0,00 31/10/2012
864 432500 FERNANDA DE PAULA ABRANTES ANALISTA DO MP ATIVO BELO HORIZONTE - COMARCA; BH-12PJ JUIZO CRIMINAL-GAB 091PJ 5.598,22 335,89 0,00 0,00 0,00 0,00 5.934,11 652,75 695,84 0,00 1.348,59 4.585,52 352,00 0,00 31/10/2012
865 431600 FERNANDA DIAS BARBOSA MENEZES ANALISTA DO MP ATIVO OURO BRANCO - COMARCA; OURO BRANCO-PJ-UNPJ 5.598,22 335,89 0,00 0,00 0,00 0,00 5.934,11 652,75 650,59 0,00 1.303,34 4.630,77 352,00 0,00 31/10/2012
866 162200 FERNANDA FERNANDES MONTEIRO ASSESSOR ATIVO BELO HORIZONTE - COMARCA; PROCON-MG-SECRETARIA DE FISCALIZACOES 0,00 1.055,79 3.519,31 0,00 0,00 0,00 4.575,10 430,78 269,24 0,00 700,02 3.875,08 587,00 0,00 31/10/2012
867 512800 FERNANDA FERREIRA BARBOSA MOREIRA ANALISTA DO MP ATIVO CARATINGA - COMARCA; CARATINGA-PJ-02PJ 4.332,50 0,00 0,00 0,00 0,00 0,00 4.332,50 476,58 315,43 0,00 792,01 3.540,49 352,00 0,00 31/10/2012
868 329200 FERNANDA GABRIEL GUZELLA OFICIAL DO MP ATIVO BELO HORIZONTE - COMARCA; DIRET DE PLANOS PROJETOS E PROGRAMAS INST 4.332,50 433,25 0,00 0,00 0,00 0,00 4.765,75 524,23 409,89 0,00 934,12 3.831,63 352,00 0,00 31/10/2012
869 324200 FERNANDA GEORGIA NEVES ZAHAN OFICIAL DO MP ATIVO IPANEMA - COMARCA; IPANEMA-PJ-SECRETARIA 3.811,39 1.905,70 0,00 0,00 0,00 0,00 5.717,09 628,88 597,47 0,00 1.226,35 4.490,74 352,00 0,00 31/10/2012
870 355400 FERNANDA HELENA BASQUES OFICIAL DO MP ATIVO SABARÁ - COMARCA; SABARA-PJ-01PJ 4.473,58 447,36 0,00 0,00 0,00 0,00 4.920,94 541,30 447,87 0,00 989,17 3.931,77 352,00 0,00 31/10/2012
871 454800 FERNANDA IATAROLA BARBOSA DIAS ANALISTA DO MP ATIVO BARBACENA - COMARCA; BARBACENA-PJ-01PJ 5.421,69 0,00 0,00 0,00 0,00 0,00 5.421,69 642,39 672,79 0,00 1.315,18 4.106,51 352,00 418,23 31/10/2012
872 515500 FERNANDA LILIANE MARUGEIRO ANALISTA DO MP ATIVO VESPASIANO - COMARCA; VESPASIANO-PJ-02PJ 4.332,50 0,00 0,00 0,00 0,00 0,00 4.332,50 476,58 315,43 0,00 792,01 3.540,49 2.951,50 194,96 31/10/2012
873 392900 FERNANDA MAGALHAES SILVA ANALISTA DO MP ATIVO BELO HORIZONTE - COMARCA; ASSESSORIA DE COMUNICACAO INTEGRADA 6.069,59 364,18 0,00 0,00 0,00 0,00 6.433,77 707,71 818,14 0,00 1.525,85 4.907,92 352,00 0,00 31/10/2012
874 409200 FERNANDA MAIA SANTIAGO ANALISTA DO MP ATIVO PIRAPORA - COMARCA; PIRAPORA-PJ-02PJ 4.619,20 277,15 0,00 0,00 0,00 0,00 4.896,35 538,60 441,85 0,00 980,45 3.915,90 352,00 0,00 31/10/2012
875 412900 FERNANDA PORTELA ROSA ANALISTA DO MP ATIVO BELO HORIZONTE - COMARCA; BH-08PJ JUIZADO ESPECIAL-SECRETARIA 5.598,22 335,89 0,00 0,00 0,00 0,00 5.934,11 753,47 919,95 0,00 1.673,42 4.260,69 352,00 915,66 31/10/2012
876 274301 FERNANDA QUEIROZ PARREIRA ANALISTA DO MP ATIVO PATOS DE MINAS - COMARCA; COORD REG PJ DEF EDU DIR CRI ADO AL PAR NOROE 4.924,85 0,00 0,00 0,00 0,00 0,00 4.924,85 541,73 448,83 0,00 990,56 3.934,29 352,00 0,00 31/10/2012
877 467900 FERNANDA QUEIROZ SIMOES GANNAM ANALISTA DO MP ATIVO SÃO LOURENÇO - COMARCA; SAO LOURENCO-PJ-04PJ 4.924,85 0,00 0,00 0,00 0,00 0,00 4.924,85 541,73 448,83 0,00 990,56 3.934,29 352,00 0,00 31/10/2012
878 255500 FERNANDA SIMOES LOPES MENDES ANALISTA DO MP ATIVO BELO HORIZONTE - COMARCA; BH-17PJ PATRIMONIO PUBLICO-SECRETARIA 8.361,90 836,19 0,00 0,00 0,00 0,00 9.198,09 1.011,79 1.449,45 0,00 2.461,24 6.736,85 587,00 0,00 31/10/2012
879 481700 FERNANDA VIANA FROES DA SILVA OFICIAL DO MP ATIVO GOVERNADOR VALADARES - COMARCA; GOVERNADOR VALADARES-PJ-09PJ 3.196,81 0,00 0,00 0,00 0,00 0,00 3.196,81 351,65 119,97 0,00 471,62 2.725,19 587,00 0,00 31/10/2012
880 123900 FERNANDO ANTONIO FARIA ABREU DIRETOR/ANALISTA ATIVO BELO HORIZONTE - COMARCA; DIRETORIA-GERAL 18.137,48 19.248,24 0,00 0,00 0,00 0,00 37.385,72 2.652,94 3.023,91 13.268,10 18.944,95 18.440,77 352,00 0,00 31/10/2012
881 416900 FERNANDO APARECIDO DA SILVA ANALISTA DO MP ATIVO BOM DESPACHO - COMARCA; BOM DESPACHO-PJ-01PJ 5.598,22 2.239,29 0,00 0,00 2.612,50 0,00 10.450,01 862,13 1.834,88 0,00 2.697,01 7.753,00 587,00 0,00 31/10/2012
882 395900 FERNANDO AUGUSTO ETO LAGES ANALISTA DO MP ATIVO BELO HORIZONTE - COMARCA; CENTRAL DE APOIO TECN-SETOR DE MEIO AMBIENTE 5.598,22 335,89 0,00 0,00 0,00 0,00 5.934,11 652,75 695,84 0,00 1.348,59 4.585,52 352,00 0,00 31/10/2012
883 380500 FERNANDO BONES COSTA OFICIAL DO MP ATIVO BELO HORIZONTE - COMARCA; EXTINTA - DIVISÃO DE MATERIAL PERMANENTE 3.300,91 198,05 0,00 0,00 0,00 0,00 3.498,96 384,89 160,31 0,00 545,20 2.953,76 352,00 0,00 31/10/2012
884 500100 FERNANDO CEZAR PINTO OFICIAL DO MP ATIVO BELO HORIZONTE - COMARCA; EXTINTA - DIVISÃO DE MATERIAL PERMANENTE 2.903,86 0,00 0,00 0,00 0,00 0,00 2.903,86 339,57 80,64 0,00 420,21 2.483,65 587,00 183,18 31/10/2012
885 346100 FERNANDO EUSTAQUIO CAMPOS UTSCH MOREIRA ANALISTA DO MP ATIVO BELO HORIZONTE - COMARCA; DIRETORIA DE REDES E BANCOS DE DADOS 7.356,10 735,61 0,00 0,00 0,00 0,00 8.091,71 1.126,61 1.614,40 0,00 2.741,01 5.350,70 3.802,68 2.444,93 31/10/2012
886 103500 FERNANDO LUIZ DA SILVA JUNIOR OFICIAL DO MP ATIVO BELO HORIZONTE - COMARCA; DIVISAO DE ATENDIMENTO E CONSULTA JURIDICA 9.814,62 3.925,85 0,00 0,00 4.580,16 0,00 18.320,63 1.511,45 3.865,99 0,00 5.377,44 12.943,19 352,00 0,00 31/10/2012
887 287300 FERNANDO MARCIO ALVES MARTINS OFICIAL DO MP ATIVO LEOPOLDINA - COMARCA; LEOPOLDINA-PJ-01PJ 4.195,87 419,59 0,00 0,00 0,00 0,00 4.615,46 507,70 261,02 0,00 768,72 3.846,74 352,00 0,00 31/10/2012
888 262200 FERNANDO MARCIO RESENDE PEREIRA COORDENADOR/OFICIAL ATIVO BELO HORIZONTE - COMARCA; BH-12PJ JUIZO CRIMINAL-SECRETARIA 0,00 809,82 8.098,20 0,00 0,00 0,00 8.908,02 679,35 1.506,35 0,00 2.185,70 6.722,32 352,00 0,00 31/10/2012
889 472900 FERNANDO RODRIGUES DE FREITAS ANALISTA DO MP ATIVO SANTA BÁRBARA - COMARCA; SANTA BARBARA-PJ-UNPJ 4.063,61 0,00 0,00 0,00 0,00 0,00 4.063,61 447,00 224,56 0,00 671,56 3.392,05 352,00 0,00 31/10/2012
890 219600 FERNANDO SOARES MIRANDA COORDENADOR/ANALISTA ATIVO BELO HORIZONTE - COMARCA; PROCON-MG-GAB DO COORDENADOR DO PROCON-MG 10.134,20 12.700,26 0,00 0,00 0,00 2.118,05 24.952,51 2.118,05 5.432,44 0,00 7.550,49 17.402,02 352,00 0,00 31/10/2012
891 421400 FERNANDO TEODORO MACIEL ANALISTA DO MP ATIVO SANTA VITÓRIA - COMARCA; SANTA VITORIA-PJ-UNPJ 5.085,23 305,11 0,00 0,00 0,00 0,00 5.390,34 694,58 743,65 0,00 1.438,23 3.952,11 587,00 924,00 31/10/2012
892 446300 FERNANDO VITOR DE OLIVEIRA ANALISTA DO MP ATIVO MONTES CLAROS - COMARCA; COORD REG BACIA RIOS VERDE GRANDE E PARDO 5.421,69 0,00 0,00 0,00 0,00 0,00 5.421,69 708,84 820,65 0,00 1.529,49 3.892,20 352,00 1.022,34 31/10/2012
893 398400 FLAVIA ALVARES GUIMARAES OFICIAL DO MP ATIVO RIBEIRÃO DAS NEVES - COMARCA; RIBEIRAO DAS NEVES-PJ-01PJ 3.300,91 198,05 0,00 0,00 0,00 0,00 3.498,96 384,89 160,31 0,00 545,20 2.953,76 457,47 0,00 31/10/2012
894 398200 FLAVIA ALVES DE ASSUNCAO RODRIGUES ANALISTA DO MP ATIVO DIVINÓPOLIS - COMARCA; EXTINTA-DIVINÓPOLIS-COORD BACIA ALTO SÃO FRAN 5.598,22 335,89 0,00 0,00 0,00 0,00 5.934,11 652,75 695,84 0,00 1.348,59 4.585,52 352,00 0,00 31/10/2012
895 318500 FLAVIA BEATRIZ NUNES CRUZ VIEIRA ANALISTA DO MP ATIVO BARBACENA - COMARCA; BARBACENA-PJ-SECRETARIA 7.356,10 735,61 0,00 0,00 0,00 0,00 8.091,71 890,09 1.178,66 0,00 2.068,75 6.022,96 587,00 0,00 31/10/2012
896 496500 FLAVIA CARAM BORLIDO ANALISTA DO MP ATIVO BELO HORIZONTE - COMARCA; EXTINTA - DIVISAO DE SERVICOS GERAIS 4.924,85 0,00 0,00 0,00 0,00 0,00 4.924,85 619,50 663,23 0,00 1.282,73 3.642,12 532,51 873,96 31/10/2012
897 219500 FLAVIA CRISTINA ANCELMO OFICIAL DO MP ATIVO BELO HORIZONTE - COMARCA; BH-17PJ PATRIMONIO PUBLICO-SECRETARIA 4.195,87 839,17 0,00 0,00 0,00 0,00 5.035,04 553,85 475,80 0,00 1.029,65 4.005,39 352,00 0,00 31/10/2012
898 329600 FLAVIA CRISTINA DE MATOS XAVIER ANALISTA DO MP ATIVO UBERABA - COMARCA; UBERABA-PJ-15PJ 7.356,10 1.471,22 0,00 0,00 0,00 0,00 8.827,32 971,01 1.313,45 0,00 2.284,46 6.542,86 587,00 0,00 31/10/2012
899 207600 FLAVIA DE ANDRADE MANCINI ANALISTA DO MP ATIVO BELO HORIZONTE - COMARCA; ASSESSORIA JURIDICO-ADMINISTRATIVA 9.505,17 1.901,03 0,00 0,00 0,00 0,00 11.406,20 1.254,68 1.989,88 0,00 3.244,56 8.161,64 822,00 0,00 31/10/2012
900 402801 FLAVIA MARIA DE RESENDE NASCIMENTO ANALISTA DO MP ATIVO SÃO JOÃO DEL REI - COMARCA; SAO JOAO DEL REI-PJ-04PJ 4.769,54 0,00 0,00 0,00 1.589,85 0,00 6.359,39 524,65 848,02 0,00 1.372,67 4.986,72 352,00 0,00 31/10/2012
901 437500 FLAVIA MARIA TORRES MARCHETTI ANALISTA DO MP ATIVO BELO HORIZONTE - COMARCA; BH-13ª PJ JUÍXO DE TÓXICOS 5.598,22 335,89 0,00 0,00 0,00 0,00 5.934,11 803,84 1.032,00 0,00 1.835,84 4.098,27 352,00 1.373,49 31/10/2012
902 386000 FLAVIA NEVES BRIGIDO OFICIAL DO MP ATIVO OURO PRETO - COMARCA; OURO PRETO-PJ-04PJ 3.300,91 198,05 0,00 0,00 0,00 0,00 3.498,96 384,89 160,31 0,00 545,20 2.953,76 352,00 0,00 31/10/2012
903 488600 FLAVIA PEREIRA COSTA ANALISTA DO MP ATIVO BELO HORIZONTE - COMARCA; SERVICO MEDICO-DEPTO PERIC MEDICA SAUDE OCUP 4.924,85 0,00 0,00 0,00 0,00 0,00 4.924,85 541,73 448,83 0,00 990,56 3.934,29 352,00 0,00 31/10/2012
904 365400 FLAVIA PEREIRA DA SILVA OFICIAL DO MP ATIVO BELO HORIZONTE - COMARCA; BH-15PJ M AMB 16PJ HAB URB-SECRETARIA 3.691,17 369,12 0,00 0,00 0,00 0,00 4.060,29 446,63 260,92 0,00 707,55 3.352,74 352,00 0,00 31/10/2012
905 515400 FLAVIA RODRIGUES DE OLIVEIRA E SILVA PAIVA ANALISTA DO MP ATIVO CARATINGA - COMARCA; CARATINGA-PJ-01PJ 4.332,50 0,00 0,00 0,00 0,00 0,00 4.332,50 476,58 172,85 0,00 649,43 3.683,07 352,00 0,00 31/10/2012
906 515300 FLAVIA VIEIRA OLIVEIRA ANALISTA DO MP ATIVO BELO HORIZONTE - COMARCA; CAO-CRIMINAL-SECRETARIA 4.769,54 0,00 0,00 0,00 1.589,85 0,00 6.359,39 524,65 848,02 0,00 1.372,67 4.986,72 352,00 0,00 31/10/2012
907 377500 FLAVIANA GONCALVES DE OLIVEIRA ANALISTA DO MP ATIVO AÇUCENA - COMARCA; ACUCENA-PJ-UNPJ 6.069,59 364,18 0,00 0,00 2.144,59 0,00 8.578,36 707,71 1.407,90 0,00 2.115,61 6.462,75 352,00 0,00 31/10/2012
908 273100 FLAVIANE DOS SANTOS CASTRO OFICIAL DO MP ATIVO NATÉRCIA - COMARCA 4.769,54 476,95 0,00 0,00 0,00 0,00 5.246,49 684,64 675,10 0,00 1.359,74 3.886,75 822,00 1.137,76 31/10/2012
909 310600 FLAVIANE NAVES ALCANTARA ASSESSOR/OFICIAL ATIVO BELO HORIZONTE - COMARCA; PROC JUST ESP ACOES COMP ORIG CRIMINAL-SEC 0,00 712,41 7.124,13 0,00 0,00 0,00 7.836,54 658,77 1.391,79 0,00 2.050,56 5.785,98 352,00 634,31 31/10/2012
910 378200 FLAVIANE RIBEIRO BORGES OFICIAL DO MP ATIVO SÃO GONÇALO DO SAPUCAÍ - COMARCA; SAO GONCALO DO SAPUCAI-PJ-02PJ 3.300,91 198,05 0,00 0,00 0,00 0,00 3.498,96 384,89 160,31 0,00 545,20 2.953,76 352,00 0,00 31/10/2012
911 455800 FLAVIO ANTONIO RIBEIRO OFICIAL DO MP ATIVO PASSA TEMPO - COMARCA; PASSA TEMPO-PJ-SECRETARIA 2.903,86 0,00 0,00 0,00 0,00 0,00 2.903,86 398,82 177,23 0,00 576,05 2.327,81 352,00 721,81 31/10/2012
912 458200 FLAVIO AUGUSTO BRAGA SOARES ANALISTA DO MP ATIVO BELO HORIZONTE - COMARCA; DIRETORIA DE MANUTENCAO PREDIAL 4.924,85 0,00 0,00 0,00 0,00 0,00 4.924,85 541,73 448,83 0,00 990,56 3.934,29 352,00 0,00 31/10/2012
913 516500 FLAVIO AUGUSTO RODRIGUES CORREA ANALISTA DO MP ATIVO BELO HORIZONTE - COMARCA; COORD-GERAL DAS PJS POR BACIA HIDRO. DE MG 4.332,50 0,00 0,00 0,00 0,00 0,00 4.332,50 476,58 315,43 0,00 792,01 3.540,49 352,00 0,00 31/10/2012
914 84300 FLAVIO DE FARIA BELTRAO OFICIAL DO MP ATIVO BELO HORIZONTE - COMARCA; DIRETORIA DE ADMINISTRACAO FINANCEIRA 16.277,88 8.138,94 0,00 0,00 0,00 0,00 24.416,82 2.652,94 5.101,00 299,20 8.053,14 16.363,68 352,00 0,00 31/10/2012
915 266600 FLAVIO GUIMARAES LANA ANALISTA DO MP ATIVO BELO HORIZONTE - COMARCA; CENTRAL DE APOIO TECN-SETOR DE MEIO AMBIENTE 6.681,94 668,19 0,00 0,00 0,00 0,00 7.350,13 808,51 1.042,42 0,00 1.850,93 5.499,20 352,00 0,00 31/10/2012
916 241500 FLAVIO HENRIQUE SILVA MARTINS LAGE OFICIAL DO MP ATIVO BELO HORIZONTE - COMARCA; CAO-DH CONT EXT ATIV POLIC E AP COMUNIT 4.619,20 1.385,76 0,00 0,00 0,00 0,00 6.004,96 711,36 826,24 0,00 1.537,60 4.467,36 629,16 487,33 31/10/2012
917 86700 FLAVIO LUCAS TOMAZ AGENTE DO MP ATIVO BELO HORIZONTE - COMARCA; BH-06PJ JUIZO CIVEL-SECRETARIA 4.332,50 2.166,25 0,00 0,00 0,00 0,00 6.498,75 714,86 495,09 0,00 1.209,95 5.288,80 352,00 0,00 31/10/2012
918 407200 FLAVIO LUCIO MONTEIRO PENA ANALISTA DO MP ATIVO BELO HORIZONTE - COMARCA; DIR CONTEUDO JORNALISTICO 4.619,20 277,15 0,00 0,00 0,00 0,00 4.896,35 538,60 441,85 0,00 980,45 3.915,90 352,00 0,00 31/10/2012
919 451700 FLAVIO MAGALHAES PEREIRA ANALISTA DO MP ATIVO BELO HORIZONTE - COMARCA; BH-12PJ JUIZO CRIMINAL-GAB 098PJ 5.421,69 0,00 0,00 0,00 0,00 0,00 5.421,69 627,06 638,67 0,00 1.265,73 4.155,96 352,00 278,82 31/10/2012
920 481500 FLAVIO NEVES GUELBER DE MACEDO OFICIAL DO MP ATIVO SÃO JOÃO NEPOMUCENO - COMARCA; SAO JOAO NEPOMUCENO-PJ-02PJ 2.903,86 0,00 0,00 0,00 0,00 0,00 2.903,86 319,42 80,87 0,00 400,29 2.503,57 352,00 0,00 31/10/2012
921 278100 FRANCIANE MARY DE SOUZA DOMENICI DE BRITO E CASTRO ANALISTA DO MP ATIVO BELO HORIZONTE - COMARCA; BH-12PJ JUIZO CRIMINAL 8.098,20 809,82 0,00 0,00 0,00 0,00 8.908,02 979,88 1.378,45 0,00 2.358,33 6.549,69 352,00 0,00 31/10/2012
922 192501 FRANCIELLE REIS DE OLIVEIRA ANALISTA DO MP ATIVO PASSOS - COMARCA; PASSOS-PJ-04PJ 7.595,56 759,56 0,00 0,00 0,00 0,00 8.355,12 919,06 1.152,62 0,00 2.071,68 6.283,44 587,00 0,00 31/10/2012
923 523600 FRANCINE MOURA LIMIRIO OFICIAL DO MP ATIVO UBERABA - COMARCA; UBERABA-PJ-02PJ 2.554,55 0,00 0,00 0,00 0,00 0,00 2.554,55 281,00 47,74 0,00 328,74 2.225,81 352,00 0,00 31/10/2012
924 467200 FRANCINI RENNO ANALISTA DO MP ATIVO SILVIANÓPOLIS - COMARCA; SILVIANOPOLIS-PJ-UNPJ 4.473,58 0,00 0,00 0,00 0,00 0,00 4.473,58 492,09 343,69 0,00 835,78 3.637,80 352,00 0,00 31/10/2012
925 189300 FRANCIS BERNARDO DO NASCIMENTO OFICIAL DO MP ATIVO VARGINHA - COMARCA; VARGINHA-PJ-05PJ 7.124,13 1.424,83 0,00 0,00 0,00 0,00 8.548,96 940,39 1.335,83 0,00 2.276,22 6.272,74 352,00 0,00 31/10/2012
926 207800 FRANCISCO CAMPOS PIRES DE MORAIS ANALISTA DO MP ATIVO BELO HORIZONTE - COMARCA; CENTRAL DE APOIO TECN-SETOR DE MEIO AMBIENTE 10.464,02 2.092,80 0,00 0,00 0,00 0,00 12.556,82 1.381,25 2.316,75 0,00 3.698,00 8.858,82 352,00 0,00 31/10/2012
927 424200 FRANCISCO DE FREITAS JUNIOR ANALISTA DO MP ATIVO MONTE AZUL - COMARCA; MONTE AZUL-PJ-UNPJ 4.619,20 277,15 0,00 0,00 0,00 0,00 4.896,35 538,60 441,85 0,00 980,45 3.915,90 352,00 0,00 31/10/2012
928 204600 FRANCISCO FERREIRA NOVAIS OFICIAL DO MP ATIVO IPATINGA - COMARCA; IPATINGA-PJ-08PJ 5.421,69 1.626,51 0,00 0,00 0,00 0,00 7.048,20 775,30 878,01 0,00 1.653,31 5.394,89 587,00 0,00 31/10/2012
929 124100 FRANCISCO MARCOS DE CARVALHO RIBEIRO OFICIAL DO MP ATIVO BELO HORIZONTE - COMARCA; PROC JUST ESP ACOES COMP ORIG CRIMINAL-SEC 10.464,02 9.417,62 0,00 0,00 0,00 2.186,98 22.068,62 2.186,98 4.620,41 0,00 6.807,39 15.261,23 352,00 0,00 31/10/2012
930 60500 FRANCISCO OLIMPIO TEIXEIRA AGENTE DO MP ATIVO BELO HORIZONTE - COMARCA; EXTINTA - DIVISAO DE TRANSPORTES 4.195,87 3.356,70 0,00 0,00 0,00 0,00 7.552,57 1.186,85 1.748,46 0,00 2.935,31 4.617,26 587,00 3.237,00 31/10/2012
931 411600 FRANCISCO PAIVA BRITO ANALISTA DO MP ATIVO BELO HORIZONTE - COMARCA; TRIBUNAL DO JURI-07 PJ-02 TRIBUNAL 5.085,23 305,11 0,00 0,00 0,00 0,00 5.390,34 592,94 562,76 0,00 1.155,70 4.234,64 352,00 0,00 31/10/2012
932 515800 FRANCISCO RAFAEL DA SILVA NETO ANALISTA DO MP ATIVO SACRAMENTO - COMARCA; SACRAMENTO-PJ-01PJ 3.935,44 0,00 0,00 0,00 0,00 0,00 3.935,44 432,90 144,53 0,00 577,43 3.358,01 352,00 0,00 31/10/2012
933 515200 FRANCISLEI ELIAS GONCALVES OFICIAL DO MP ATIVO PASSOS - COMARCA; PASSOS-PJ-01PJ 2.554,55 510,91 0,00 0,00 0,00 0,00 3.065,46 337,20 44,81 0,00 382,01 2.683,45 352,00 0,00 31/10/2012
934 443600 FRANCISLEI MARTINS DE SOUSA ANALISTA DO MP ATIVO TIMÓTEO - COMARCA; TIMOTEO-PJ-01PJ 5.421,69 0,00 0,00 0,00 0,00 0,00 5.421,69 596,39 570,43 0,00 1.166,82 4.254,87 352,00 0,00 31/10/2012
935 424500 FREDERICO AUGUSTO COBRA MULLER ANALISTA DO MP ATIVO POUSO ALEGRE - COMARCA; POUSO ALEGRE-PJ-03PJ 5.598,22 335,89 0,00 0,00 0,00 0,00 5.934,11 652,75 695,84 0,00 1.348,59 4.585,52 352,00 0,00 31/10/2012
936 473100 FREDERICO AUGUSTO LIMA FELICIO ANALISTA DO MP ATIVO CONCEIÇÃO DO MATO DENTRO - COMARCA; CONCEICAO DO MATO DENTRO-PJ-UNPJ 4.473,58 0,00 0,00 0,00 0,00 0,00 4.473,58 492,09 343,69 0,00 835,78 3.637,80 352,00 0,00 31/10/2012
937 318100 FREDERICO BIANCHINI JOVIANO DOS SANTOS ASSESSOR/OFICIAL ATIVO BELO HORIZONTE - COMARCA; PROMOT ESTADUAL DE DEF PATRI CULT E TUR DE MG 0,00 712,41 7.124,13 0,00 0,00 0,00 7.836,54 507,70 1.258,90 0,00 1.766,60 6.069,94 352,00 0,00 31/10/2012
938 124200 FREDERICO DE SOUZA ROCHA OFICIAL DO MP ATIVO ESPINOSA - COMARCA; ESPINOSA-PJ-SECRETARIA 7.842,84 5.489,98 0,00 0,00 0,00 0,00 13.332,82 1.705,48 2.857,14 0,00 4.562,62 8.770,20 847,48 2.171,51 31/10/2012
939 177100 FREDERICO FERNANDES DE ANDRADE ASSESSOR/OFICIAL ATIVO BELO HORIZONTE - COMARCA; DIRETORIA DE SUPORTE E MANUTENCAO 0,00 1.424,83 7.124,13 0,00 0,00 0,00 8.548,96 738,96 1.391,22 0,00 2.130,18 6.418,78 352,00 0,00 31/10/2012
940 456200 FREDERICO FERNANDES PASSOS ANALISTA DO MP ATIVO BELO HORIZONTE - COMARCA; DIRETORIA DE REDES E BANCOS DE DADOS 5.421,69 0,00 0,00 0,00 1.807,23 0,00 7.228,92 758,28 1.382,37 0,00 2.140,65 5.088,27 352,00 1.471,73 31/10/2012
941 400900 FREDERICO LUCIANO BORGES REIS ANALISTA DO MP ATIVO BELO HORIZONTE - COMARCA; DIRETORIA DE SISTEMAS DE INFORMACAO 6.069,59 364,18 0,00 0,00 0,00 0,00 6.433,77 756,24 926,10 0,00 1.682,34 4.751,43 352,00 441,12 31/10/2012
942 466200 FREDERICO LUIS FERNANDES ANALISTA DO MP ATIVO BELO HORIZONTE - COMARCA; BH-12PJ JUIZO CRIMINAL 4.063,61 0,00 0,00 0,00 0,00 0,00 4.063,61 447,00 261,59 0,00 708,59 3.355,02 352,00 0,00 31/10/2012
943 419700 FREDERICO MECKLER SANTOS ANALISTA DO MP ATIVO CLÁUDIO - COMARCA; CLAUDIO-PJ-UNPJ 5.598,22 335,89 0,00 0,00 0,00 0,00 5.934,11 746,46 904,35 0,00 1.650,81 4.283,30 352,00 851,90 31/10/2012
944 257100 FULVIA HERONVILLE DA SILVA OFICIAL DO MP ATIVO BELO HORIZONTE - COMARCA; DIVISAO DE MEMORIA INSTITUCIONAL 5.250,75 525,08 0,00 0,00 0,00 0,00 5.775,83 635,34 611,85 0,00 1.247,19 4.528,64 587,00 0,00 31/10/2012
945 405500 GABRIEL CARVALHO DE ASSIS OFICIAL DO MP ATIVO JUIZ DE FORA - COMARCA; COORD REG DEF ORDEM ECO TRIB JUIZ DE FORA-SEC 3.300,91 198,05 0,00 0,00 0,00 0,00 3.498,96 441,33 251,26 0,00 692,59 2.806,37 352,00 513,10 31/10/2012
946 397200 GABRIEL DEIVID MARTINS LEITE OFICIAL DO MP ATIVO MONTE CARMELO - COMARCA; MONTE CARMELO-PJ-02PJ 3.574,80 214,49 0,00 0,00 0,00 0,00 3.789,29 416,82 206,66 0,00 623,48 3.165,81 373,76 0,00 31/10/2012
947 386800 GABRIELA SIMOES CHAVES ANALISTA DO MP ATIVO BELO HORIZONTE - COMARCA; EXTINTA - DIVISÃO DE COMPRAS 6.069,59 364,18 0,00 0,00 0,00 0,00 6.433,77 835,09 1.101,54 0,00 1.936,63 4.497,14 352,00 1.157,94 31/10/2012
948 248600 GABRIELA TERESA DIAS DE MORAIS ANALISTA DO MP ATIVO BELO HORIZONTE - COMARCA; PROC. JUSTICA DE HABEAS CORPUS 9.205,45 1.841,09 0,00 0,00 0,00 0,00 11.046,54 1.215,12 1.947,11 0,00 3.162,23 7.884,31 587,00 0,00 31/10/2012
949 449700 GABRIELE COSTA FERREIRA OFICIAL DO MP ATIVO BELO HORIZONTE - COMARCA; DIRETORIA DE ORCAMENTO-DIOR/SPC 2.903,86 0,00 0,00 0,00 0,00 0,00 2.903,86 319,42 80,87 0,00 400,29 2.503,57 352,00 0,00 31/10/2012
950 357600 GABRIELLA CRUZ EMRICH OFICIAL DO MP ATIVO BELO HORIZONTE - COMARCA; BH-12PJ JUIZO CRIMINAL 3.691,17 369,12 0,00 0,00 0,00 0,00 4.060,29 446,63 260,92 0,00 707,55 3.352,74 352,00 0,00 31/10/2012
951 470600 GABRIELLA SPIRANDELLI COIMBRA ANALISTA DO MP ATIVO UBERLÂNDIA - COMARCA; UBERLANDIA-PJ-19PJ 4.924,85 0,00 0,00 0,00 0,00 0,00 4.924,85 541,73 448,83 0,00 990,56 3.934,29 352,00 0,00 31/10/2012
952 86000 GASPAR GOMES DE SOUSA AGENTE DO MP ATIVO BELO HORIZONTE - COMARCA; BH-15PJ M AMB PAT HIST CULT-RECEPCAO 16.277,88 11.394,51 0,00 0,00 0,00 0,00 27.672,39 2.652,94 5.146,26 3.554,77 11.353,97 16.318,42 352,00 0,00 31/10/2012
953 183100 GECIELLE FERNANDA SILVA OFICIAL DO MP ATIVO PITANGUI - COMARCA; PITANGUI-PJ-02PJ 7.124,13 1.424,83 0,00 0,00 0,00 0,00 8.548,96 940,39 1.245,32 0,00 2.185,71 6.363,25 352,00 0,00 31/10/2012
954 387300 GEOFFREY GIULLIANO OLIVEIRA ALMEIDA ANALISTA DO MP ATIVO JANAÚBA - COMARCA; JANAUBA-PJ-03PJ 5.598,22 335,89 0,00 0,00 0,00 0,00 5.934,11 652,75 695,84 0,00 1.348,59 4.585,52 352,00 0,00 31/10/2012
955 277700 GEORGIA CRISTINA BASILIO MEDRADO ANALISTA DO MP ATIVO BELO HORIZONTE - COMARCA; SERVICO MEDICO-DEPTO PERIC MEDICA SAUDE OCUP 7.595,56 759,56 0,00 0,00 0,00 0,00 8.355,12 919,06 1.243,13 0,00 2.162,19 6.192,93 352,00 0,00 31/10/2012
956 512100 GEOVANI VICENTIN ANALISTA DO MP ATIVO SANTA RITA DE CALDAS - COMARCA; SANTA RITA DE CALDAS-PJ-UNPJ 4.332,50 0,00 0,00 0,00 0,00 0,00 4.332,50 476,58 315,43 0,00 792,01 3.540,49 352,00 0,00 31/10/2012
957 116300 GEOVANNA DAS GRACAS ROSA REQUEIJO AGENTE DO MP ATIVO SANTA LUZIA - COMARCA; SANTA LUZIA-PJ-06PJ 10.619,67 3.185,90 0,00 0,00 0,00 0,00 13.805,57 1.518,61 2.486,62 0,00 4.005,23 9.800,34 587,00 0,00 31/10/2012
958 207200 GERALDO AFONSO DE MOURA CALDEIRA ANALISTA DO MP ATIVO BELO HORIZONTE - COMARCA; BH-17PJ PATRIMONIO PUBLICO 10.464,02 2.092,80 0,00 0,00 0,00 1.381,25 13.938,07 1.381,25 2.696,60 0,00 4.077,85 9.860,22 352,00 0,00 31/10/2012
959 274901 GERALDO ANDRE DE OLIVEIRA ANALISTA DO MP ATIVO CONTAGEM - COMARCA; CONTAGEM-PJ-18PJ 4.063,61 406,36 0,00 0,00 0,00 0,00 4.469,97 491,70 342,96 0,00 834,66 3.635,31 352,00 0,00 31/10/2012
960 270900 GERALDO BATISTA BRITES OFICIAL DO MP ATIVO BOM DESPACHO - COMARCA; BOM DESPACHO-PJ-01PJ 5.085,23 1.017,05 0,00 0,00 0,00 0,00 6.102,28 671,25 646,50 0,00 1.317,75 4.784,53 587,00 0,00 31/10/2012
961 204200 GERALDO CELIO ARAUJO SOARES OFICIAL DO MP ATIVO GOVERNADOR VALADARES - COMARCA; GOVERNADOR VALADARES-PJ-12PJ 7.124,13 1.424,83 0,00 0,00 0,00 0,00 8.548,96 940,39 1.290,57 0,00 2.230,96 6.318,00 587,00 0,00 31/10/2012
962 66900 GERALDO DIAS CYRINO OFICIAL DO MP ATIVO BELO HORIZONTE - COMARCA; BH-14PJ DEFESA CONSUMIDOR-SECRETARIA 10.464,02 5.232,01 0,00 0,00 0,00 0,00 15.696,03 1.726,56 3.039,82 0,00 4.766,38 10.929,65 352,00 0,00 31/10/2012
963 366500 GERALDO LEVY ROMUALDO DA SILVA OFICIAL DO MP ATIVO RIO POMBA - COMARCA; RIO POMBA-PJ-SECRETARIA 3.408,38 340,84 0,00 0,00 0,00 0,00 3.749,22 412,41 198,63 0,00 611,04 3.138,18 352,00 0,00 31/10/2012
964 278400 GERALDO MAGELA RAMALHO OFICIAL DO MP ATIVO VISCONDE DO RIO BRANCO - COMARCA; VISCONDE DO RIO BRANCO-PJ-03PJ 3.691,17 369,12 0,00 0,00 0,00 0,00 4.060,29 446,63 260,92 0,00 707,55 3.352,74 352,00 0,00 31/10/2012
965 124300 GERALDO MARCIO GOMES DA SILVA COORDENADOR/ANALISTA ATIVO BELO HORIZONTE - COMARCA; EXTINTA - DIRETORIA SERVIÇOS GERAIS E TRANS 15.658,01 15.103,93 0,00 0,00 0,00 0,00 30.761,94 2.652,94 4.919,99 6.644,32 14.217,25 16.544,69 352,00 0,00 31/10/2012
966 124400 GERALDO MAURICIO DE FARIA ROCHA OFICIAL DO MP ATIVO BELO HORIZONTE - COMARCA; CAO-CONFLITOS AGRARIOS 6.471,28 4.529,89 0,00 0,00 0,00 0,00 11.001,17 1.210,13 1.845,50 0,00 3.055,63 7.945,54 352,00 0,00 31/10/2012
967 472800 GERALDO MONTEIRO CAMARGO JUNIOR ANALISTA DO MP ATIVO ESPINOSA - COMARCA; ESPINOSA-PJ-UNPJ 4.063,61 812,72 0,00 0,00 0,00 0,00 4.876,33 536,40 436,95 0,00 973,35 3.902,98 352,00 0,00 31/10/2012
968 124500 GERALDO ROGERIO GOMES SILVEIRA COORDENADOR/OFICIAL ATIVO BELO HORIZONTE - COMARCA; DIRETORIA DE PESSOAL ADMINISTRATIVO - DPAD 8.098,20 8.062,16 0,00 0,00 0,00 0,00 16.160,36 1.514,36 3.225,87 0,00 4.740,23 11.420,13 352,00 0,00 31/10/2012
969 445900 GERALDO TAVARES FERREIRA ANALISTA DO MP ATIVO FORMIGA - COMARCA; FORMIGA-PJ-SECRETARIA 4.924,85 0,00 0,00 0,00 0,00 0,00 4.924,85 541,73 448,83 0,00 990,56 3.934,29 352,00 0,00 31/10/2012
970 521000 GERALDO VINICIUS IRENO ANALISTA DO MP ATIVO CURVELO - COMARCA; CURVELO-PJ-01PJ 4.332,50 0,00 0,00 0,00 0,00 0,00 4.332,50 476,58 315,43 0,00 792,01 3.540,49 352,00 0,00 31/10/2012
971 325400 GERSONI FERREIRA LUCENA OFICIAL DO MP ATIVO POÇOS DE CALDAS - COMARCA; POCOS DE CALDAS-PJ-01PJ 4.195,87 419,59 0,00 0,00 0,00 0,00 4.615,46 507,70 298,04 0,00 805,74 3.809,72 587,00 0,00 31/10/2012
972 445600 GERUSA E SILVA CASTRO LOPEZ ANALISTA DO MP ATIVO BELO HORIZONTE - COMARCA; ASSESSORIA JURIDICO-ADMINISTRATIVA 4.924,85 0,00 0,00 0,00 0,00 0,00 4.924,85 541,73 448,83 0,00 990,56 3.934,29 352,00 0,00 31/10/2012
973 468600 GILDA MARIA SANTOS DE FILIPPO OFICIAL DO MP ATIVO UBÁ - COMARCA; COORD REG BACIA DO RIO PARAIBA DO SUL 3.196,81 0,00 0,00 0,00 0,00 0,00 3.196,81 351,65 119,97 0,00 471,62 2.725,19 352,00 0,00 31/10/2012
974 508300 GILMAR ALVES FERREIRA OFICIAL DO MP ATIVO BELO HORIZONTE - COMARCA; BH-13ª PJ JUÍXO DE TÓXICOS 2.554,55 0,00 0,00 0,00 0,00 0,00 2.554,55 281,00 47,74 0,00 328,74 2.225,81 352,00 0,00 31/10/2012
975 455400 GILMAR DIAS NASCIMENTO OFICIAL DO MP ATIVO SÃO FRANCISCO - COMARCA; SAO FRANCISCO-PJ-01PJ 2.903,86 0,00 0,00 0,00 0,00 0,00 2.903,86 319,42 80,87 0,00 400,29 2.503,57 352,00 0,00 31/10/2012
976 213000 GILMAR JOSE DA SILVA OFICIAL DO MP ATIVO DIVINÓPOLIS - COMARCA; DIVINOPOLIS-PJ-SECRETARIA 7.124,13 1.424,83 0,00 0,00 0,00 0,00 8.548,96 940,39 1.335,83 0,00 2.276,22 6.272,74 352,00 0,00 31/10/2012
977 496900 GILSON NOGUEIRA GUIMARAES ANALISTA DO MP ATIVO MANHUMIRIM - COMARCA; MANHUMIRIM-PJ-01PJ 4.924,85 0,00 0,00 0,00 0,00 0,00 4.924,85 541,73 448,83 0,00 990,56 3.934,29 352,00 0,00 31/10/2012
978 476600 GIMENNI JULIANA VILELA MACHADO MOREIRA OFICIAL DO MP ATIVO CONTAGEM - COMARCA; CONTAGEM-PJ-12PJ 2.903,86 0,00 0,00 0,00 967,95 0,00 3.871,81 319,42 210,11 0,00 529,53 3.342,28 587,00 0,00 31/10/2012
979 391700 GIORDANI LOPES TAVARES ANALISTA DO MP ATIVO BELO HORIZONTE - COMARCA; SUPERINTENDÊNCIA DE ENGENHARIA E ARQUITETURA 6.069,59 364,18 0,00 0,00 0,00 0,00 6.433,77 707,71 818,14 0,00 1.525,85 4.907,92 352,00 0,00 31/10/2012
980 251300 GIOVANE SOUZA PEREIRA OFICIAL DO MP ATIVO PARAGUAÇU - COMARCA; PARAGUACU-PJ-SECRETARIA 4.332,50 866,50 0,00 0,00 0,00 0,00 5.199,00 571,89 515,93 0,00 1.087,82 4.111,18 352,00 0,00 31/10/2012
981 438800 GIOVANNA BRANDAO DE ARAUJO ANALISTA DO MP ATIVO ALMENARA - COMARCA; ALMENARA-PJ-01PJ 5.085,23 305,11 0,00 0,00 0,00 0,00 5.390,34 626,60 637,65 0,00 1.264,25 4.126,09 352,00 306,00 31/10/2012
982 243400 GIOVANNA FRANCA BISTENE OFICIAL DO MP ATIVO BELO HORIZONTE - COMARCA; ASSESS EXECUTIVA DO CONSELHO SUPERIOR DO MP 5.598,22 1.119,64 0,00 0,00 0,00 0,00 6.717,86 738,96 797,16 0,00 1.536,12 5.181,74 822,00 0,00 31/10/2012
983 124600 GIOVANNI ANANIAS CAMILO DO VALLE ANALISTA DO MP ATIVO OLIVEIRA - COMARCA; OLIVEIRA-PJ-01PJ 11.931,59 5.965,80 0,00 0,00 0,00 0,00 17.897,39 1.968,71 3.623,86 0,00 5.592,57 12.304,82 352,00 0,00 31/10/2012
984 366700 GIOVANNI DE SOUZA ANDRADE OFICIAL DO MP ATIVO PASSOS - COMARCA; PASSOS-PJ-01PJ 3.408,38 340,84 0,00 0,00 0,00 0,00 3.749,22 412,41 119,67 0,00 532,08 3.217,14 352,00 0,00 31/10/2012
985 124700 GIOVANNI REIS CONDE OFICIAL DO MP ATIVO MERCÊS - COMARCA; MERCES-PJ-SECRETARIA 4.619,20 3.233,44 0,00 0,00 0,00 0,00 7.852,64 863,79 619,95 0,00 1.483,74 6.368,90 352,00 0,00 31/10/2012
986 219000 GIRLEI DE FATIMA SOUSA ASSESSOR ATIVO BELO HORIZONTE - COMARCA; BH-17PJ PATRIMONIO PUBLICO 0,00 1.568,57 7.842,84 0,00 0,00 0,00 9.411,41 430,78 1.713,14 0,00 2.143,92 7.267,49 352,00 0,00 31/10/2012
987 444600 GISELE ADRIANE FONSECA ANALISTA DO MP ATIVO BETIM - COMARCA; BETIM-PJ-03PJ 5.421,69 0,00 0,00 0,00 0,00 0,00 5.421,69 698,62 797,90 0,00 1.496,52 3.925,17 352,00 929,40 31/10/2012
988 445100 GISELE DE CAMPOS VERSIANI ASSESSOR/OFICIAL ATIVO BELO HORIZONTE - COMARCA; DIRET DE INFORMACAO E EXPEDICAO DE PROCESSOS 0,00 0,00 7.124,13 0,00 0,00 0,00 7.124,13 351,65 1.105,90 0,00 1.457,55 5.666,58 352,00 0,00 31/10/2012
989 423000 GISELE MEGALE SANTINI ANALISTA DO MP ATIVO BELO HORIZONTE - COMARCA; BH-09PJ AUDITORIA MILITAR-SECRETARIA 5.598,22 335,89 0,00 0,00 0,00 0,00 5.934,11 652,75 695,84 0,00 1.348,59 4.585,52 352,00 0,00 31/10/2012
990 425300 GISELE MENEZES RIBEIRO DE OLIVEIRA ANALISTA DO MP ATIVO SANTA LUZIA - COMARCA; SANTA LUZIA-PJ-01PJ 5.085,23 305,11 0,00 0,00 0,00 0,00 5.390,34 592,94 517,50 0,00 1.110,44 4.279,90 352,00 0,00 31/10/2012
991 116500 GISELIA MARIA GABRIEL DE PAULA OFICIAL DO MP ATIVO BELO HORIZONTE - COMARCA; EXTINTA - SECRETARIA ADMINISTRATIVA 7.595,56 5.316,90 0,00 0,00 0,00 1.420,37 14.332,83 1.420,37 2.794,40 0,00 4.214,77 10.118,06 352,00 0,00 31/10/2012
992 478200 GISELLE BRESCIA SOARES DE SOUZA CUNHA ANALISTA DO MP ATIVO ITAÚNA - COMARCA; ITAUNA-PJ-04PJ 4.473,58 0,00 0,00 0,00 0,00 0,00 4.473,58 513,18 345,05 0,00 858,23 3.615,35 587,00 191,70 31/10/2012
993 289300 GISELLE CASTRO MACHADO ANALISTA DO MP ATIVO BELO HORIZONTE - COMARCA; EXTINTA - SECRETARIA ADMINISTRATIVA 5.421,69 542,17 0,00 0,00 0,00 0,00 5.963,86 656,02 703,13 0,00 1.359,15 4.604,71 352,00 0,00 31/10/2012
994 345400 GISELLE CORREIA BORGES ANALISTA DO MP ATIVO BELO HORIZONTE - COMARCA; ASSESSORIA DE COMUNICACAO INTEGRADA 7.356,10 735,61 0,00 0,00 0,00 0,00 8.091,71 890,09 1.223,92 0,00 2.114,01 5.977,70 352,00 0,00 31/10/2012
995 399100 GISELLE DE VIVEIROS LEITAO OFICIAL DO MP ATIVO MATIAS BARBOSA - COMARCA; MATIAS BARBOSA-PJ-SECRETARIA 3.300,91 198,05 0,00 0,00 0,00 0,00 3.498,96 384,89 160,31 0,00 545,20 2.953,76 352,00 0,00 31/10/2012
996 357401 GISELLE GUIMARAES DE OLIVEIRA REZENDE ANALISTA DO MP ATIVO BELO HORIZONTE - COMARCA; PROC JUST ESP ACOES COMP ORIG CRIMINAL-ASSESS 6.069,59 364,18 0,00 0,00 0,00 0,00 6.433,77 707,71 818,14 0,00 1.525,85 4.907,92 352,00 0,00 31/10/2012
997 492200 GISELLE MUNIZ DE AGUIAR ANALISTA DO MP ATIVO BRASÍLIA DE MINAS - COMARCA; BRASILIA DE MINAS-PJ-02PJ 4.473,58 0,00 0,00 0,00 0,00 0,00 4.473,58 492,09 343,69 0,00 835,78 3.637,80 352,00 0,00 31/10/2012
998 520300 GISELLE NORMANDIA GONCALVES ANALISTA DO MP ATIVO SANTO ANTÔNIO DO MONTE - COMARCA; SANTO ANTONIO DO MONTE-PJ-UNPJ 4.769,54 0,00 0,00 0,00 0,00 0,00 4.769,54 588,75 553,44 0,00 1.142,19 3.627,35 352,00 582,72 31/10/2012
999 112300 GISELLE VILELA RIBEIRO AGENTE DO MP ATIVO BELO HORIZONTE - COMARCA; BH-07PJ 01 TRIBUNAL DO JURI 7.595,56 3.797,78 0,00 0,00 0,00 0,00 11.393,34 1.253,27 2.031,99 0,00 3.285,26 8.108,08 3.567,68 294,77 31/10/2012
1000 459800 GISELLI FERNANDES COSTA ANALISTA DO MP ATIVO GOVERNADOR VALADARES - COMARCA; GOVERNADOR VALADARES-PJ-08PJ 4.924,85 984,97 0,00 0,00 0,00 0,00 5.909,82 650,08 689,90 0,00 1.339,98 4.569,84 352,00 0,00 31/10/2012
1001 149600 GISLAINE FERNANDES MAGNO OFICIAL DO MP ATIVO BELO HORIZONTE - COMARCA; SUPRIN DE FORMACAO E APERFEICOAMENTO-SFA/CEAF 7.595,56 2.278,67 0,00 0,00 0,00 0,00 9.874,23 1.086,17 1.569,68 0,00 2.655,85 7.218,38 352,00 0,00 31/10/2012
1002 85800 GISLANDIA MARTINS ABREU E SILVA OFICIAL DO MP ATIVO BELO HORIZONTE - COMARCA; JUNTA RECURSAL DO PROCON ESTADUAL 18.757,35 7.502,95 0,00 0,00 0,00 0,00 26.260,30 2.652,94 5.055,75 2.142,68 9.851,37 16.408,93 352,00 0,00 31/10/2012
1003 112700 GISLEIA MARTINS DA SILVA OFICIAL DO MP ATIVO BELO HORIZONTE - COMARCA; ASSESSORIA ESPECIAL DO PGJ 7.595,56 3.038,23 0,00 0,00 0,00 0,00 10.633,79 1.169,72 1.710,33 0,00 2.880,05 7.753,74 587,00 0,00 31/10/2012
1004 250100 GISLEIDE GONALVES DE OLIVEIRA OFICIAL DO MP ATIVO JANAÚBA - COMARCA; JANAUBA-PJ-01PJ 4.924,85 984,97 0,00 0,00 0,00 0,00 5.909,82 650,08 689,90 0,00 1.339,98 4.569,84 352,00 0,00 31/10/2012
1005 335300 GISLENE FAUSTINO DIAS DE ALMEIDA OFICIAL DO MP ATIVO UBERLÂNDIA - COMARCA; UBERLANDIA-COORD CONJ-FAMÍLIA E JUIZ ESP CRIM 4.619,20 461,92 0,00 0,00 0,00 0,00 5.081,12 558,92 487,08 0,00 1.046,00 4.035,12 352,00 0,00 31/10/2012
1006 492400 GISLENE GOMIDE GUIMARAES CREPALDE ANALISTA DO MP ATIVO CARATINGA - COMARCA; CARATINGA-PJ-05PJ 4.924,85 0,00 0,00 0,00 0,00 0,00 4.924,85 541,73 448,83 0,00 990,56 3.934,29 352,00 0,00 31/10/2012
1007 329800 GISLENE MENDES MARTINS OFICIAL DO MP ATIVO BELO HORIZONTE - COMARCA; BH-17PJ PATRIMONIO PUBLICO-SECRETARIA 4.769,54 476,95 0,00 0,00 0,00 0,00 5.246,49 577,11 527,55 0,00 1.104,66 4.141,83 2.382,81 186,16 31/10/2012
1008 327200 GISLEY CERQUEIRA SCAPOLATEMPORE BERNIS ASSESSOR/OFICIAL ATIVO BELO HORIZONTE - COMARCA; EXTINTA-CGMP-DIV APOIO FISC ORIENT FUNCIONAL 0,00 784,28 7.842,84 0,00 0,00 0,00 8.627,12 649,38 1.437,35 0,00 2.086,73 6.540,39 352,00 0,00 31/10/2012
1009 525300 GIULIANO LOMBARDI ASSUMPCAO OFICIAL DO MP ATIVO CONTAGEM - COMARCA; CONTAGEM-PJ-01PJ 2.554,55 0,00 0,00 0,00 0,00 0,00 2.554,55 295,45 56,51 0,00 351,96 2.202,59 352,00 131,40 31/10/2012
1010 503100 GIULLIANA MATTIOLI OFICIAL DO MP ATIVO ITAJUBA - COMARCA; ITAJUBA-PJ-02PJ 2.903,86 0,00 0,00 0,00 0,00 0,00 2.903,86 337,22 77,78 0,00 415,00 2.488,86 689,00 161,81 31/10/2012
1011 459300 GLADSON LIMA DE SOUZA OFICIAL DO MP ATIVO PATOS DE MINAS - COMARCA; PATOS DE MINAS-PJ-05PJ 2.637,71 0,00 0,00 0,00 0,00 0,00 2.637,71 290,15 53,29 0,00 343,44 2.294,27 352,00 0,00 31/10/2012
1012 148300 GLADSTON ALMEIDA CAJA AGENTE DO MP ATIVO BELO HORIZONTE - COMARCA; PROCON-MG-SECRETARIA DE FISCALIZACOES 5.085,23 2.034,09 0,00 0,00 0,00 0,00 7.119,32 803,26 940,22 0,00 1.743,48 5.375,84 352,00 183,06 31/10/2012
1013 333800 GLADSTON CIRILO TAVARES GOMES OFICIAL DO MP ATIVO JUIZ DE FORA - COMARCA; JUIZ DE FORA-PJ-24PJ 4.195,87 419,59 0,00 0,00 0,00 0,00 4.615,46 507,70 373,10 0,00 880,80 3.734,66 352,00 0,00 31/10/2012
1014 391600 GLAUBER COELHO CARVALHO ANALISTA DO MP ATIVO JANUÁRIA - COMARCA; JANUARIA-PJ-02PJ 6.069,59 364,18 0,00 0,00 0,00 0,00 6.433,77 707,71 818,14 0,00 1.525,85 4.907,92 352,00 0,00 31/10/2012
1015 478700 GLAUCIA TAVARES ANALISTA DO MP ATIVO RIBEIRÃO DAS NEVES - COMARCA; RIBEIRAO DAS NEVES-PJ-03PJ 4.063,61 0,00 0,00 0,00 0,00 0,00 4.063,61 447,00 261,59 0,00 708,59 3.355,02 352,00 0,00 31/10/2012
1016 263800 GLAUDITON FERREIRA DE MATOS ASSESSOR ATIVO BELO HORIZONTE - COMARCA; DIRETORIA DE SUPORTE E MANUTENCAO 0,00 351,93 3.519,31 0,00 0,00 0,00 3.871,24 430,78 221,95 0,00 652,73 3.218,51 352,00 0,00 31/10/2012
1017 444500 GLAYSSON PEREIRA DA COSTA ANALISTA DO MP ATIVO CONTAGEM - COMARCA; CONTAGEM-PJ-APO TECNICO 5.421,69 1.084,34 0,00 0,00 0,00 0,00 6.506,03 715,66 835,82 0,00 1.551,48 4.954,55 352,00 0,00 31/10/2012
1018 238900 GLEICE LUCIA FRANCO OFICIAL DO MP ATIVO BELO HORIZONTE - COMARCA; BH-13ª PJ JUÍXO DE TÓXICOS 5.598,22 1.119,64 0,00 0,00 0,00 0,00 6.717,86 776,97 972,24 0,00 1.749,21 4.968,65 352,00 345,54 31/10/2012
1019 276400 GLEICE RENATA DE AMORIM FREITAS OFICIAL DO MP ATIVO BELO HORIZONTE - COMARCA; EXTINTA-CGMP-DIV APOIO ADMINISTRATIVO 5.085,23 508,52 0,00 0,00 0,00 0,00 5.593,75 615,31 612,54 0,00 1.227,85 4.365,90 352,00 0,00 31/10/2012
1020 410900 GLEICIANE GARCIA LAGARES RESENDE ANALISTA DO MP ATIVO IPATINGA - COMARCA; IPATINGA-PJ-03PJ 4.619,20 277,15 0,00 0,00 0,00 0,00 4.896,35 538,60 441,85 0,00 980,45 3.915,90 587,00 0,00 31/10/2012
1021 423200 GLEISON SOUZA CREPALDE ANALISTA DO MP ATIVO RAUL SOARES - COMARCA; RAUL SOARES-PJ-UNPJ 5.598,22 335,89 0,00 0,00 0,00 0,00 5.934,11 652,75 695,84 0,00 1.348,59 4.585,52 352,00 0,00 31/10/2012
1022 452200 GLEISY ANDRADE MORAIS ANALISTA DO MP ATIVO BELO HORIZONTE - COMARCA; PROC JUST ESP ACOES COMP ORIG CRIMINAL-ASSESS 5.421,69 0,00 0,00 0,00 0,00 0,00 5.421,69 596,39 570,43 0,00 1.166,82 4.254,87 352,00 0,00 31/10/2012
1023 476500 GRACIELLY MARTINS PARREIRA PORTO ANALISTA DO MP ATIVO PASSOS - COMARCA; PASSOS-PJ-03PJ 4.924,85 0,00 0,00 0,00 0,00 0,00 4.924,85 541,73 403,57 0,00 945,30 3.979,55 352,00 0,00 31/10/2012
1024 491700 GRAZIELA COLARES LUZ SUSKI ANALISTA DO MP ATIVO BELO HORIZONTE - COMARCA; BH-18PJ VIOLENCIA DOMESTICA-SECRETARIA 4.924,85 0,00 0,00 0,00 0,00 0,00 4.924,85 541,73 448,83 0,00 990,56 3.934,29 352,00 0,00 31/10/2012
1025 421700 GRAZIELI DE SOUSA OLIVEIRA ANALISTA DO MP ATIVO RIBEIRÃO DAS NEVES - COMARCA; RIBEIRAO DAS NEVES-PJ-02PJ 5.598,22 335,89 0,00 0,00 0,00 0,00 5.934,11 652,75 695,84 0,00 1.348,59 4.585,52 352,00 0,00 31/10/2012
1026 401800 GRAZIELLA CRISTINA DE SOUZA COUTO ANALISTA DO MP ATIVO ALÉM PARAÍBA - COMARCA; ALEM PARAIBA-PJ-01PJ 6.069,59 364,18 0,00 0,00 0,00 0,00 6.433,77 707,71 818,14 0,00 1.525,85 4.907,92 352,00 0,00 31/10/2012
1027 518000 GRAZIELLA LEDO DE PAULA OFICIAL DO MP ATIVO PALMA - COMARCA; PALMA-PJ-UNPJ 2.554,55 0,00 0,00 0,00 0,00 0,00 2.554,55 326,77 89,78 0,00 416,55 2.138,00 623,36 416,10 31/10/2012
1028 489100 GRAZIELLE HELEN FERREIRA BRANDAO OFICIAL DO MP ATIVO BELO HORIZONTE - COMARCA; EXTINTA - PROTOCOLO DA PGJ 3.196,81 0,00 0,00 0,00 0,00 0,00 3.196,81 351,65 119,97 0,00 471,62 2.725,19 352,00 0,00 31/10/2012
1029 465400 GRAZZIELA DE OLIVEIRA E SOUSA LACERDA ANALISTA DO MP ATIVO ALMENARA - COMARCA; ALMENARA-PJ-03PJ 4.473,58 0,00 0,00 0,00 0,00 0,00 4.473,58 492,09 343,69 0,00 835,78 3.637,80 352,00 0,00 31/10/2012
1030 124800 GUARACI BARBOZA RIBEIRO OFICIAL DO MP ATIVO UBERLÂNDIA - COMARCA; UBERLANDIA-PJ-13PJ 7.595,56 5.316,90 0,00 0,00 0,00 0,00 12.912,46 1.420,37 2.268,03 0,00 3.688,40 9.224,06 352,00 0,00 31/10/2012
1031 116100 GUILHERME ANTONIO FURTADO OLIVEIRA OFICIAL DO MP ATIVO BELO HORIZONTE - COMARCA; DIRET DE INFORMACAO E EXPEDICAO DE PROCESSOS 10.134,20 4.053,68 0,00 0,00 0,00 0,00 14.187,88 1.560,67 2.715,95 0,00 4.276,62 9.911,26 352,00 0,00 31/10/2012
1032 422900 GUILHERME CORREA LAGROTTA ANALISTA DO MP ATIVO LAMBARI - COMARCA; LAMBARI-PJ-UNPJ 5.085,23 305,11 0,00 0,00 0,00 0,00 5.390,34 592,94 562,76 0,00 1.155,70 4.234,64 352,00 0,00 31/10/2012
1033 502300 GUILHERME DAHER DE ALMEIDA JUNQUEIRA ANALISTA DO MP ATIVO LAVRAS - COMARCA; COORD REG DO MA DA BACIA DO RIO GRANDE 4.063,61 0,00 0,00 0,00 0,00 0,00 4.063,61 468,62 310,55 0,00 779,17 3.284,44 587,00 239,25 31/10/2012
1034 476100 GUILHERME FIDELIS MARQUES ANALISTA DO MP ATIVO JABOTICATUBAS - COMARCA; JABOTICATUBAS-PJ-UNPJ 4.332,50 0,00 0,00 0,00 0,00 0,00 4.332,50 476,58 315,43 0,00 792,01 3.540,49 352,00 0,00 31/10/2012
1035 448000 GUILHERME LACERDA RIBEIRO ANALISTA DO MP ATIVO BELO HORIZONTE - COMARCA; DIRETORIA DE SISTEMAS DE INFORMACAO 5.421,69 0,00 0,00 0,00 0,00 0,00 5.421,69 596,39 570,43 0,00 1.166,82 4.254,87 352,00 0,00 31/10/2012
1036 380600 GUILHERME RIBEIRO JOAQUIM OFICIAL DO MP ATIVO CACHOEIRA DE MINAS - COMARCA; CACHOEIRA DE MINAS-PJ-SECRETARIA 2.998,37 179,90 0,00 0,00 0,00 0,00 3.178,27 349,61 117,50 0,00 467,11 2.711,16 426,24 0,00 31/10/2012
1037 490900 GUSTAVO DE CARVALHO HERZOG ANALISTA DO MP ATIVO BELO HORIZONTE - COMARCA; BH-18PJ VIOLENCIA DOMESTICA-SECRETARIA 4.924,85 0,00 0,00 0,00 0,00 0,00 4.924,85 607,92 596,09 0,00 1.204,01 3.720,84 352,00 601,69 31/10/2012
1038 431100 GUSTAVO DE SOUZA RIBEIRO ANALISTA DO MP ATIVO UBERLÂNDIA - COMARCA; UBERLANDIA-PJ-19PJ 5.085,23 305,11 0,00 0,00 0,00 0,00 5.390,34 592,94 562,76 0,00 1.155,70 4.234,64 352,00 0,00 31/10/2012
1039 506300 GUSTAVO GOMES FREIRE OFICIAL DO MP ATIVO OURO PRETO - COMARCA; OURO PRETO-PJ-02PJ 2.554,55 0,00 0,00 0,00 0,00 0,00 2.554,55 281,00 47,74 0,00 328,74 2.225,81 352,00 0,00 31/10/2012
1040 368200 GUSTAVO MESQUITA PEREIRA VARGAS ANALISTA DO MP ATIVO BELO HORIZONTE - COMARCA; ASSESS TECNICO-JUR JUNTO AS PROC. DE JUST 4.769,54 476,95 0,00 0,00 0,00 0,00 5.246,49 577,11 527,55 0,00 1.104,66 4.141,83 352,00 0,00 31/10/2012
1041 523100 GUSTAVO PORTO DINIZ REIS OFICIAL DO MP ATIVO BELO HORIZONTE - COMARCA; DIRETORIA DE SERVICO CRIMINAL 2.812,27 0,00 0,00 0,00 0,00 0,00 2.812,27 309,35 68,64 0,00 377,99 2.434,28 352,00 0,00 31/10/2012
1042 475400 GUSTAVO RICCIARDI CRUVINEL ANALISTA DO MP ATIVO GUAXUPÉ - COMARCA; GUAXUPE-PJ-03PJ 4.924,85 0,00 0,00 0,00 0,00 0,00 4.924,85 619,50 531,36 0,00 1.150,86 3.773,99 352,00 706,99 31/10/2012
1043 386200 GUSTHAVO CARVALHO NAVARRO OFICIAL DO MP ATIVO LAGOA SANTA - COMARCA; LAGOA SANTA-PJ-01PJ 4.332,50 259,95 0,00 0,00 0,00 0,00 4.592,45 505,17 367,49 0,00 872,66 3.719,79 352,00 0,00 31/10/2012
1044 275500 HEBER SOUZA FRANCA OFICIAL DO MP ATIVO BELO HORIZONTE - COMARCA; DIRET DE INFORMACAO E EXPEDICAO DE PROCESSOS 4.195,87 839,17 0,00 0,00 0,00 0,00 5.035,04 553,85 430,54 0,00 984,39 4.050,65 352,00 0,00 31/10/2012
1045 251701 HEBIA LUIZA MACHADO ASSIS ANALISTA DO MP ATIVO ITAÚNA - COMARCA; ITAUNA-PJ-03PJ 4.924,85 984,97 0,00 0,00 0,00 0,00 5.909,82 704,25 810,44 0,00 1.514,69 4.395,13 352,00 492,49 31/10/2012
1046 242000 HELAINE GUARNIERI AGOSTINHO OFICIAL DO MP ATIVO JUIZ DE FORA - COMARCA; JUIZ DE FORA-PJ-13PJ 5.598,22 1.119,64 0,00 0,00 0,00 0,00 6.717,86 738,96 842,41 0,00 1.581,37 5.136,49 587,00 0,00 31/10/2012
1047 511900 HELBERTH ELIAS CUNHA ANALISTA DO MP ATIVO CONTAGEM - COMARCA; CONTAGEM-PJ-04PJ 3.935,44 787,09 0,00 0,00 1.574,18 0,00 6.296,71 519,48 832,21 0,00 1.351,69 4.945,02 587,00 0,00 31/10/2012
1048 524900 HELDER DA COSTA RODRIGUES ANALISTA DO MP ATIVO BELO HORIZONTE - COMARCA; CAO-MEIO AMBIENTE-SECRETARIA 4.332,50 0,00 0,00 0,00 0,00 0,00 4.332,50 476,58 315,43 0,00 792,01 3.540,49 352,00 0,00 31/10/2012
1049 397000 HELEN CRISTINA TABELINI DE ANDRADE ASSESSOR ATIVO BELO HORIZONTE - COMARCA; CENT DE ATENDIMENTO AS PROMOTORIAS DE JUSTICA 0,00 0,00 3.519,31 0,00 0,00 0,00 3.519,31 425,84 157,22 0,00 583,06 2.936,25 587,00 0,00 31/10/2012
1050 465300 HELEN GOULART MAGALHAES DA FONSECA OFICIAL DO MP ATIVO CONTAGEM - COMARCA; CONTAGEM-PJ-10PJ 2.903,86 0,00 0,00 0,00 0,00 0,00 2.903,86 319,42 80,87 0,00 400,29 2.503,57 352,00 0,00 31/10/2012
1051 310801 HELEN ROCHA DO VALLE ANALISTA DO MP ATIVO BELO HORIZONTE - COMARCA; DIRETORIA DE CONTABILIDADE 7.124,13 1.424,83 0,00 0,00 0,00 0,00 8.548,96 940,39 1.335,83 0,00 2.276,22 6.272,74 352,00 0,00 31/10/2012
1052 498600 HELENA CARVALHO MOYSES OFICIAL DO MP ATIVO BELO HORIZONTE - COMARCA; DIRETORIA DE PRODUCAO EDITORIAL 2.903,86 0,00 0,00 0,00 0,00 0,00 2.903,86 319,42 80,87 0,00 400,29 2.503,57 822,00 0,00 31/10/2012
1053 324000 HELENA DO CARMO FERREIRA RAMOS OFICIAL DO MP ATIVO BURITIS - COMARCA; BURITIS-PJ-SECRETARIA 4.619,20 3.233,44 0,00 0,00 0,00 0,00 7.852,64 863,79 1.029,64 0,00 1.893,43 5.959,21 352,00 0,00 31/10/2012
1054 327800 HELENO TADEU TUCCI DE ALMEIDA OFICIAL DO MP ATIVO ITAJUBA - COMARCA; ITAJUBA-PJ-01PJ 3.811,39 381,14 0,00 0,00 0,00 0,00 4.192,53 461,18 213,35 0,00 674,53 3.518,00 587,00 0,00 31/10/2012
1055 204300 HELIANE DAS GRAAS MACHADO SANTOS VIEIRA OFICIAL DO MP ATIVO GOVERNADOR VALADARES - COMARCA; GOVERNADOR VALADARES-PJ-11PJ 5.780,51 1.156,10 0,00 0,00 0,00 0,00 6.936,61 763,03 895,95 0,00 1.658,98 5.277,63 352,00 0,00 31/10/2012
1056 374500 HELIONARDO FEITOZA GONCALVES ANALISTA DO MP ATIVO JEQUITINHONHA - COMARCA; JEQUITINHONHA-PJ-SECRETARIA 5.598,22 335,89 0,00 0,00 0,00 0,00 5.934,11 652,75 695,84 0,00 1.348,59 4.585,52 352,00 0,00 31/10/2012
1057 488500 HELLEN QUEIROZ ARAUJO ANALISTA DO MP ATIVO MONTES CLAROS - COMARCA; COORD REG PATRI PUB ORD TRIB-NORTE MINAS 4.473,58 0,00 0,00 0,00 0,00 0,00 4.473,58 492,09 343,69 0,00 835,78 3.637,80 587,00 0,00 31/10/2012
1058 374000 HELOISA HELENA RODRIGUES OFICIAL DO MP ATIVO CAMPOS ALTOS - COMARCA; CAMPOS ALTOS-PJ-SECRETARIA 3.574,80 214,49 0,00 0,00 0,00 0,00 3.789,29 416,82 149,70 0,00 566,52 3.222,77 352,00 0,00 31/10/2012
1059 497700 HELOISA MARIA FERREIRA DURAES ANALISTA DO MP ATIVO BELO HORIZONTE - COMARCA; ASSESS TECNICO-JUR JUNTO AS PROC. DE JUST 4.924,85 0,00 0,00 0,00 0,00 0,00 4.924,85 541,73 448,83 0,00 990,56 3.934,29 352,00 0,00 31/10/2012
1060 444300 HELVES RODRIGUES DA SILVA ANALISTA DO MP ATIVO SETE LAGOAS - COMARCA; SETE LAGOAS-PJ-08PJ 5.421,69 0,00 0,00 0,00 0,00 0,00 5.421,69 698,62 752,65 0,00 1.451,27 3.970,42 352,00 929,40 31/10/2012
1061 521400 HENRIQUE EDUARDO BRUZZI OFICIAL DO MP ATIVO BELO HORIZONTE - COMARCA; DIRETORIA DE ADMINISTRACAO FINANCEIRA 2.554,55 0,00 0,00 0,00 0,00 0,00 2.554,55 281,00 47,74 0,00 328,74 2.225,81 352,00 0,00 31/10/2012
1062 515700 HENRIQUE FLORES MENDES ANALISTA DO MP ATIVO PARÁ DE MINAS - COMARCA; PARA DE MINAS-PJ-02PJ 4.332,50 0,00 0,00 0,00 0,00 0,00 4.332,50 476,58 315,43 0,00 792,01 3.540,49 352,00 0,00 31/10/2012
1063 445500 HENRIQUE MATHEUS LONDERO DOS SANTOS ANALISTA DO MP ATIVO UBERLÂNDIA - COMARCA; UBERLANDIA-PJ-21PJ 5.421,69 0,00 0,00 0,00 0,00 0,00 5.421,69 596,39 570,43 0,00 1.166,82 4.254,87 2.755,68 198,80 31/10/2012
1064 504500 HENRIQUE MOREIRA DE MELO SILVA ANALISTA DO MP ATIVO DIAMANTINA - COMARCA; COORD REG BACIAS RIOS JEQUITINHONHA E MUCURI 4.063,61 0,00 0,00 0,00 0,00 0,00 4.063,61 461,57 297,72 0,00 759,29 3.304,32 587,00 175,16 31/10/2012
1065 310700 HENRIQUE RODRIGUES VALLE OFICIAL DO MP ATIVO BELO HORIZONTE - COMARCA; DIRETORIA DE SISTEMAS DE INFORMACAO 4.195,87 1.258,76 0,00 0,00 0,00 0,00 5.454,63 600,01 578,49 0,00 1.178,50 4.276,13 352,00 0,00 31/10/2012
1066 493100 HENRIQUE YUKIO PEREIRA DE SOUZA ANALISTA DO MP ATIVO BELO HORIZONTE - COMARCA; BH-07PJ TRIBUNAL DO JURI 4.924,85 0,00 0,00 0,00 0,00 0,00 4.924,85 541,73 448,83 0,00 990,56 3.934,29 352,00 0,00 31/10/2012
1067 478300 HERNANE LOPES SOUZA ANALISTA DO MP ATIVO MONTES CLAROS - COMARCA; MONTES CLAROS-PJ-12PJ 4.473,58 0,00 0,00 0,00 0,00 0,00 4.473,58 492,09 343,69 0,00 835,78 3.637,80 352,00 0,00 31/10/2012
1068 490000 HERNANI GANDRA DE ALMEIDA ANALISTA DO MP ATIVO VIRGINÓPOLIS - COMARCA; VIRGINOPOLIS-PJ-UNPJ 4.473,58 0,00 0,00 0,00 0,00 0,00 4.473,58 492,09 343,69 0,00 835,78 3.637,80 352,00 0,00 31/10/2012
1069 124900 HILARINO NOGUEIRA DE CARVALHO OFICIAL DO MP ATIVO SÃO JOÃO DEL REI - COMARCA; SAO JOAO DEL REI-PJ-03PJ 7.356,10 5.149,27 0,00 0,00 0,00 0,00 12.505,37 1.375,59 2.258,91 0,00 3.634,50 8.870,87 352,00 0,00 31/10/2012
1070 474700 HORTELIA MARIA DE MIRANDA GONCALVES ANALISTA DO MP ATIVO ARCOS - COMARCA; ARCOS-PJ-02PJ 4.063,61 0,00 0,00 0,00 0,00 0,00 4.063,61 447,00 261,59 0,00 708,59 3.355,02 352,00 0,00 31/10/2012
1071 504200 HUGO CESAR ROCHA DE PAIVA OFICIAL DO MP ATIVO BELO HORIZONTE - COMARCA; BH-19PJ SAUDE-ASS TECNICA 2.637,71 0,00 0,00 0,00 0,00 0,00 2.637,71 307,22 66,06 0,00 373,28 2.264,43 352,00 155,23 31/10/2012
1072 412000 HUMBERTO AUGUSTO DA SILVA GOMES ANALISTA DO MP ATIVO CONCEICAO DAS ALAGOAS - COMARCA; CONCEICAO DAS ALAGOAS-PJ-01PJ 5.085,23 305,11 0,00 0,00 1.796,78 0,00 7.187,12 592,94 1.011,62 0,00 1.604,56 5.582,56 3.567,68 294,77 31/10/2012
1073 297500 HUMBERTO JOSE TRIVELATO ANALISTA DO MP ATIVO JUIZ DE FORA - COMARCA; JUIZ DE FORA-PJ-22PJ 8.634,11 863,41 0,00 0,00 0,00 0,00 9.497,52 1.044,73 1.567,99 0,00 2.612,72 6.884,80 352,00 0,00 31/10/2012
1074 300400 HUMBERTO PEREIRA LANDIM ANALISTA DO MP ATIVO BELO HORIZONTE - COMARCA; BH-07PJ 01 TRIBUNAL JURI-SECRETARIA 7.595,56 759,56 0,00 0,00 0,00 0,00 8.355,12 919,06 1.288,39 0,00 2.207,45 6.147,67 352,00 0,00 31/10/2012
1075 125100 HYARBAS DELPHUS FERREIRA OFICIAL DO MP ATIVO BELO HORIZONTE - COMARCA; DIRETORIA DE SERVICO CIVEL 8.361,90 5.853,33 0,00 0,00 0,00 0,00 14.215,23 1.563,68 2.722,65 0,00 4.286,33 9.928,90 1.704,51 123,98 31/10/2012
1076 458100 IARA CAROLINA DE OLIVEIRA ANALISTA DO MP ATIVO NOVA SERRANA - COMARCA; NOVA SERRANA-PJ-01PJ 5.421,69 0,00 0,00 0,00 0,00 0,00 5.421,69 703,87 764,32 0,00 1.468,19 3.953,50 352,00 977,12 31/10/2012
1077 256000 IARA FERREIRA ARAUJO OFICIAL DO MP ATIVO DIVINÓPOLIS - COMARCA; EXTINTA-DIVINÓPOLIS-COORD BACIA ALTO SÃO FRAN 3.519,31 351,93 0,00 0,00 0,00 0,00 3.871,24 425,84 223,07 0,00 648,91 3.222,33 352,00 0,00 31/10/2012
1078 93100 IARA MARCIA ALVES OFICIAL DO MP ATIVO BELO HORIZONTE - COMARCA; BH-19PJ SAUDE 8.915,18 4.457,59 0,00 0,00 0,00 0,00 13.372,77 1.471,00 2.471,20 0,00 3.942,20 9.430,57 352,00 0,00 31/10/2012
1079 404100 IARA ROCHA BARBALHO ANALISTA DO MP ATIVO BELO HORIZONTE - COMARCA; SUPERINTENDÊNCIA DE ENGENHARIA E ARQUITETURA 6.069,59 364,18 0,00 0,00 0,00 0,00 6.433,77 707,71 772,88 0,00 1.480,59 4.953,18 352,00 0,00 31/10/2012
1080 248500 IDELSON MENDES BOTELHO ANALISTA DO MP ATIVO JUIZ DE FORA - COMARCA; COORD REG DEF ORDEM ECO TRIB JUIZ DE FORA-SEC 6.899,47 1.379,89 0,00 0,00 0,00 0,00 8.279,36 958,51 1.376,15 0,00 2.334,66 5.944,70 352,00 434,34 31/10/2012
1081 205600 IDELZIA RANGEL OFICIAL DO MP ATIVO SÃO JOÃO EVANGELISTA - COMARCA; SAO JOAO EVANGELISTA-PJ-SECRETARIA 6.069,59 2.427,84 0,00 0,00 0,00 0,00 8.497,43 934,72 1.277,96 0,00 2.212,68 6.284,75 352,00 0,00 31/10/2012
1082 429400 IEDA ALVES DA SILVA RABELO OFICIAL DO MP ATIVO BELO HORIZONTE - COMARCA; DIRET DE ESTAGIOS E CONVENIOS ACADEMICOS 2.998,37 179,90 0,00 0,00 0,00 0,00 3.178,27 349,61 117,50 0,00 467,11 2.711,16 352,00 0,00 31/10/2012
1083 507200 IGGOR LEONARDO COSTA GONTIJO ASSESSOR/ANALISTA ATIVO BELO HORIZONTE - COMARCA; DIRETORIA DE SISTEMAS DE INFORMACAO 0,00 0,00 7.124,13 0,00 0,00 0,00 7.124,13 524,65 1.058,33 0,00 1.582,98 5.541,15 1.044,77 63,50 31/10/2012
1084 434700 IGOR DE OLIVEIRA PACHECO ANALISTA DO MP ATIVO BELO HORIZONTE - COMARCA; PROC. JUSTICA DE HABEAS CORPUS 5.598,22 335,89 0,00 0,00 0,00 0,00 5.934,11 652,75 695,84 0,00 1.348,59 4.585,52 352,00 0,00 31/10/2012
1085 369700 IGOR DE OLIVEIRA RODRIGUES OFICIAL DO MP ATIVO UBERLÂNDIA - COMARCA; UBERLANDIA-PJ-10PJ 3.408,38 340,84